ECMWFNIL_500_spd_000.txt.gz
Wind_Speed
22 23 24 25 25 24 24 24 25 26 27 27 27 27 27 27 26 25 24 24 23 22 22 22 21 20 21 22 22 23 24 25 26 28 29 30 31 31 32 33 34 35
22 23 24 26 27 27 26 25 25 26 27 28 28 28 27 27 27 26 25 24 23 23 23 23 22 22 22 23 24 25 25 26 27 29 30 31 32 33 34 35 36 37
23 23 24 26 28 28 27 26 27 27 27 27 27 27 27 26 27 27 26 25 24 24 24 24 23 23 23 24 25 26 27 27 28 29 31 32 33 34 35 36 37 38
25 25 25 27 28 29 28 28 29 29 29 29 28 27 27 25 25 26 26 25 24 24 24 24 24 24 24 25 26 27 27 28 29 30 32 33 34 35 35 36 38 38
27 27 27 29 30 30 31 31 33 33 32 31 29 28 27 25 23 24 25 25 24 24 24 25 25 25 25 26 26 27 28 28 30 31 33 34 34 34 35 36 37 38
27 27 29 31 32 32 33 34 35 35 34 32 31 30 29 26 23 23 23 24 24 24 24 25 26 25 25 26 26 27 27 29 30 31 32 33 33 34 35 36 37 37
27 27 27 30 32 33 34 35 36 36 35 34 33 32 31 27 24 22 22 22 23 23 24 25 25 26 26 26 26 26 27 28 29 30 31 32 32 33 34 35 36 36
28 27 27 28 30 30 32 34 36 35 35 34 33 34 32 27 24 23 22 22 23 23 24 25 26 27 27 27 26 26 26 27 28 30 30 31 32 33 34 34 35 35
29 28 27 27 27 27 28 31 35 37 37 36 34 35 33 29 25 24 23 24 24 23 23 25 27 28 28 27 26 26 26 27 29 30 30 31 32 33 34 34 35 37
32 31 29 27 26 28 28 29 33 38 39 38 38 38 36 32 29 27 26 27 27 26 25 26 27 28 27 27 26 26 27 28 30 31 31 32 33 34 35 36 37 39
33 34 34 33 31 31 32 32 35 36 37 38 39 38 37 35 34 33 32 31 30 29 28 27 28 28 27 27 26 25 27 28 30 31 32 33 34 35 36 37 39 41
33 34 36 38 37 37 38 38 37 35 34 37 38 38 37 36 35 37 37 35 32 31 30 29 29 28 26 25 25 26 27 28 30 32 33 34 35 37 38 38 39 41
35 37 39 41 42 43 41 39 38 38 37 37 37 36 36 36 36 38 41 38 34 32 31 31 30 29 26 25 26 27 28 28 30 32 33 34 36 37 38 38 39 41
37 39 42 45 47 49 48 44 40 35 32 34 35 33 35 37 38 39 41 40 36 33 32 33 32 30 27 26 27 28 28 28 30 32 33 34 35 37 38 38 39 42
38 39 43 48 51 52 52 48 40 31 29 30 31 33 37 38 38 39 40 39 37 34 34 34 33 31 29 28 28 29 28 28 30 32 32 33 35 37 38 39 40 42
39 41 44 51 54 54 56 54 47 39 38 35 30 34 38 39 39 41 41 39 37 35 35 35 35 34 32 30 29 29 28 27 29 30 31 33 36 38 39 40 41 42
38 41 44 49 50 48 46 43 38 36 42 40 35 37 39 40 42 44 43 41 39 37 36 37 36 36 35 31 30 29 27 27 28 30 32 36 39 40 40 41 41 42
39 39 41 42 39 36 35 31 30 35 41 41 39 39 41 42 43 44 45 44 41 39 39 39 39 39 37 33 31 29 28 27 28 29 33 37 39 39 40 42 43 43
40 38 38 38 34 33 35 36 35 38 41 42 42 42 42 44 44 43 43 44 43 42 41 41 40 40 39 35 32 30 28 27 27 29 34 38 39 39 41 43 44 44
41 42 40 37 35 36 38 39 39 39 42 42 43 45 43 43 44 42 40 41 42 42 42 41 41 41 40 37 33 29 28 28 29 30 35 38 39 40 43 45 45 43
42 44 44 41 38 35 35 39 40 41 44 44 44 44 41 39 40 37 35 37 40 41 41 41 41 42 41 37 34 31 30 31 31 32 36 38 39 41 43 44 43 41
45 44 44 42 39 35 36 39 41 43 46 48 45 41 37 34 34 33 33 36 40 41 41 41 42 41 39 36 34 34 34 34 33 35 38 38 39 42 43 42 41 39
47 46 45 42 38 38 40 41 44 47 47 47 45 40 34 31 33 34 37 40 41 42 43 43 41 39 37 35 35 37 38 36 35 38 38 37 39 42 42 41 40 39
49 49 46 42 40 42 44 42 44 46 44 43 44 40 33 31 33 37 41 44 43 42 43 42 38 36 35 34 35 39 40 37 36 38 38 38 40 42 41 41 40 39
49 48 45 43 43 45 46 44 43 43 44 45 45 42 38 35 35 37 40 42 40 39 41 41 37 34 33 32 34 38 38 36 38 38 37 38 40 41 41 41 40 39
48 46 43 43 44 45 45 46 46 46 46 44 41 40 39 38 38 39 39 39 37 35 36 37 36 35 34 33 34 36 37 38 38 37 37 39 40 40 40 41 40 39

ECMWFNIL_500_spd_003.txt.gz
Wind_Speed
19 20 21 21 22 22 21 21 21 22 23 25 26 26 27 28 28 28 27 27 26 25 25 24 23 21 21 20 20 20 20 20 20 20 20 21 21 22 23 24 25 27
19 19 19 20 20 21 21 21 22 23 23 24 26 27 27 28 29 29 29 29 28 28 27 25 25 24 23 22 22 22 22 22 22 22 22 22 22 22 23 24 26 27
19 19 19 19 19 20 21 22 24 25 25 25 26 27 28 28 28 29 29 30 29 29 28 27 27 26 25 24 24 24 24 24 24 24 23 23 23 23 24 25 25 26
19 20 20 20 20 20 21 23 26 28 28 28 27 27 27 27 27 26 28 30 29 28 28 28 28 28 27 26 26 26 25 25 25 26 25 25 24 24 25 25 25 25
19 21 21 21 21 21 22 24 27 30 30 30 29 27 26 26 26 25 26 28 28 27 28 28 28 29 28 28 28 27 27 27 27 27 27 26 25 24 25 25 25 25
20 21 22 23 22 21 22 23 26 28 29 30 30 27 27 27 26 26 25 26 26 26 26 27 27 28 29 29 29 28 28 28 29 29 29 27 25 25 25 25 25 25
21 23 23 24 23 22 22 24 26 28 29 31 29 27 29 29 28 27 26 26 27 26 26 27 27 27 27 28 29 29 29 30 30 31 30 27 26 25 25 25 25 26
22 24 25 25 23 23 25 28 30 31 31 32 30 29 31 31 28 29 29 28 29 29 29 29 29 29 28 28 30 30 30 30 31 31 30 27 26 26 26 26 26 27
22 25 27 27 26 28 30 32 34 35 36 36 34 31 32 33 32 34 33 31 30 32 33 32 32 33 33 32 33 33 32 31 30 31 31 28 26 26 26 27 27 28
24 26 28 29 31 33 34 34 35 37 39 42 42 41 38 36 37 39 37 34 32 33 35 34 33 35 36 35 35 35 34 31 30 31 31 29 27 27 27 28 28 29
25 27 28 29 31 34 34 35 36 38 41 43 46 47 45 40 40 40 39 39 36 33 33 34 34 35 36 36 36 36 34 32 31 32 31 29 28 28 28 28 28 29
23 26 27 28 28 31 33 34 36 40 43 45 46 48 48 45 42 39 37 37 36 33 31 34 35 36 37 38 37 36 34 32 31 32 32 29 28 28 28 27 27 28
21 25 28 27 28 32 34 35 39 42 43 48 49 48 48 44 39 36 37 37 36 34 32 34 36 37 38 39 39 37 35 33 33 33 32 30 28 28 28 26 26 26
22 26 28 28 30 34 37 38 40 41 46 54 49 39 36 34 31 33 37 38 36 37 36 36 38 41 41 40 39 38 36 35 34 34 33 30 28 28 28 27 26 27
24 27 30 31 31 33 36 39 39 39 46 50 40 29 24 23 24 27 30 31 32 35 38 40 40 42 44 42 40 39 38 36 36 35 34 32 30 30 29 28 29 30
27 29 32 34 34 34 35 38 37 37 38 38 34 30 24 19 22 26 28 31 33 32 35 41 43 45 45 44 42 41 40 39 38 37 36 34 33 32 30 30 31 31
29 32 34 36 38 37 37 37 37 37 37 36 35 33 29 25 24 27 31 34 35 35 35 38 43 46 46 45 44 43 43 43 42 40 38 37 36 34 33 33 32 32
30 32 34 37 40 39 38 38 38 39 40 39 37 35 36 35 31 32 38 38 35 37 37 36 38 43 46 46 45 44 44 45 43 41 38 38 38 37 36 36 35 35
32 33 36 40 41 38 37 38 38 39 39 39 38 38 41 40 37 39 46 45 40 38 38 36 35 38 44 46 45 45 46 46 44 43 40 39 39 39 39 39 37 37
34 35 38 43 42 40 41 41 39 38 37 38 40 41 41 39 38 41 47 48 44 39 36 35 33 35 41 44 44 44 44 44 44 44 41 39 39 40 41 40 39 38
36 37 40 43 45 45 47 47 45 42 39 40 43 42 42 42 42 44 46 45 43 38 34 34 33 34 36 38 39 40 41 43 44 43 41 40 40 39 40 39 38 37
38 40 41 43 45 48 50 51 51 48 44 43 43 42 42 44 44 45 42 40 40 38 33 30 30 30 30 32 36 39 40 41 40 39 40 39 38 37 37 36 36 36
41 42 42 43 45 48 50 52 53 51 48 45 44 43 43 44 44 43 39 37 38 36 30 28 28 27 29 32 33 34 34 35 35 36 35 35 35 35 34 33 35 36
43 43 43 45 47 50 51 52 52 53 51 47 45 44 43 44 43 41 38 36 34 29 25 26 27 28 29 29 27 28 29 31 33 35 35 35 36 35 34 35 37 37
45 45 46 48 50 52 51 51 51 52 51 48 46 45 44 44 43 40 38 35 31 26 22 21 23 25 23 21 23 25 27 27 29 32 33 34 35 35 36 37 38 37
48 47 49 51 52 51 50 49 51 51 49 46 44 43 43 44 43 41 39 35 30 27 23 19 18 17 16 18 23 27 29 31 33 35 35 34 33 35 36 37 37 37

ECMWFNIL_500_spd_006.txt.gz
Wind_Speed
17 17 16 15 15 15 16 17 17 17 17 17 17 17 18 20 21 22 23 23 23 23 23 22 21 22 23 23 24 25 25 25 26 26 25 24 24 24 25 25 26 26
16 15 15 15 15 16 16 16 17 19 19 20 20 21 21 21 22 23 24 24 24 24 24 23 23 23 24 24 25 26 26 26 27 27 27 26 25 25 25 26 27 27
15 15 16 16 16 16 16 16 18 20 22 22 23 24 24 24 25 25 26 25 24 24 25 25 24 24 24 25 25 25 26 27 27 27 28 28 28 27 27 27 28 29
15 16 17 17 17 16 16 17 19 22 23 25 26 26 27 28 28 28 27 26 24 24 26 27 27 25 25 25 26 25 25 26 26 27 28 28 29 29 28 28 29 30
16 16 17 18 18 18 17 19 21 23 24 26 27 28 29 31 33 32 31 29 29 27 27 28 27 27 26 27 27 27 26 26 26 27 28 28 29 29 29 29 30 31
15 16 17 17 18 18 19 20 22 22 23 26 28 30 32 34 36 37 36 35 35 33 31 31 30 29 29 30 31 30 29 28 27 27 27 28 29 29 30 31 31 32
15 17 17 17 19 20 20 21 22 22 24 28 30 31 33 34 36 37 39 40 41 39 37 36 34 33 33 33 33 34 33 32 30 29 28 28 29 30 31 32 32 33
15 17 18 19 21 21 21 22 24 25 27 29 30 31 32 33 34 36 38 41 43 44 43 42 39 38 39 38 38 37 37 36 35 33 33 32 32 32 33 33 32 33
15 17 19 20 22 21 21 23 24 24 26 28 29 30 31 32 34 37 39 41 45 46 44 45 44 40 39 39 40 39 38 38 38 37 37 37 36 35 34 34 33 33
14 17 19 20 21 21 21 24 25 24 25 27 28 29 32 34 36 40 40 41 45 45 44 45 44 38 36 39 41 41 39 38 38 38 39 39 38 36 35 34 33 33
13 15 17 17 18 21 24 27 29 28 27 27 28 30 32 34 33 34 34 34 38 41 39 38 36 33 35 41 43 42 40 39 38 39 40 40 39 37 36 34 32 32
11 12 14 15 18 21 24 27 28 29 30 28 29 31 32 33 33 32 32 31 31 31 26 24 24 26 32 37 40 41 42 42 40 40 41 41 41 39 37 35 33 32
11 12 15 20 26 27 26 28 29 29 31 31 31 30 31 34 36 34 31 27 25 23 20 20 24 29 33 36 38 40 43 45 44 42 42 41 41 39 37 37 35 32
14 16 20 26 31 31 31 34 34 35 37 37 34 32 32 36 36 33 30 27 26 26 26 29 33 36 38 40 41 41 43 46 48 46 44 42 40 38 38 38 37 35
19 21 26 29 32 32 33 35 37 39 39 36 34 35 35 36 35 34 33 32 31 31 31 34 36 38 40 43 45 44 42 44 48 48 47 45 41 38 38 38 38 37
24 27 30 31 33 34 34 34 33 34 33 32 33 35 35 36 37 38 38 35 33 32 33 34 36 38 40 41 43 44 42 41 43 44 45 46 43 39 38 39 39 40
28 31 32 33 35 35 36 36 33 31 31 33 34 35 35 36 37 38 39 38 36 35 35 36 38 38 37 37 39 41 41 39 38 37 39 42 43 40 39 40 42 44
31 33 34 35 36 37 38 40 38 35 34 36 37 37 37 37 36 36 37 37 38 38 38 38 38 35 34 36 39 40 39 37 35 36 36 36 39 40 40 42 44 45
34 36 36 38 39 39 40 42 42 40 39 40 41 43 43 42 39 36 35 35 36 37 38 39 37 35 34 36 38 37 36 35 34 35 35 34 35 39 42 43 44 44
37 38 39 41 42 42 42 43 44 44 44 44 45 46 48 48 46 41 38 37 36 36 38 37 36 34 34 35 35 34 34 33 31 30 30 31 32 35 39 41 41 41
39 41 42 43 43 43 44 44 45 46 46 47 48 49 49 50 49 46 42 39 37 37 37 36 34 33 32 32 32 32 33 32 29 26 25 26 29 32 34 36 36 37
42 44 44 44 43 44 44 45 46 47 49 50 51 52 51 51 51 48 44 40 38 38 37 35 33 32 30 29 30 31 31 32 31 28 27 27 28 28 30 31 32 34
42 44 44 43 43 44 44 46 47 49 50 52 54 54 53 52 52 49 44 40 38 38 36 34 32 31 30 29 30 29 29 30 30 28 26 26 26 27 29 31 32 33
41 42 43 44 45 45 46 47 49 51 53 55 56 56 54 53 52 49 44 40 37 37 35 32 31 31 31 31 31 29 27 25 23 22 22 24 28 31 33 34 35 35
41 43 45 47 48 48 49 50 51 54 56 58 59 57 53 52 52 49 43 39 36 34 32 31 31 31 31 31 30 27 25 22 20 21 25 30 32 34 35 35 35 34
43 45 48 49 50 50 51 52 54 57 58 60 59 54 49 49 50 47 41 38 35 32 31 30 31 31 31 30 27 24 23 23 24 28 33 36 36 36 36 35 33 32

ECMWFNIL_500_spd_009.txt.gz
Wind_Speed
20 20 19 19 19 19 18 18 18 18 18 17 17 17 18 20 21 22 22 23 23 24 24 24 24 24 25 27 27 28 27 26 27 28 27 27 27 27 27 28 29 30
20 20 20 19 19 18 18 17 18 18 18 17 17 18 18 20 22 23 24 25 26 26 27 28 28 26 26 27 28 29 28 27 27 28 28 29 29 29 29 30 31 32
20 20 20 19 18 18 17 17 17 18 18 18 18 18 18 20 23 25 26 27 27 28 29 31 32 32 31 30 31 30 29 27 27 27 29 30 31 31 31 31 31 33
21 21 20 18 18 17 16 15 15 16 16 17 19 19 20 22 25 25 26 26 27 28 30 33 35 35 35 34 34 34 33 30 28 28 29 31 32 32 32 32 32 32
22 21 19 18 17 16 15 14 15 15 16 17 19 20 21 23 25 25 25 26 27 29 32 35 37 38 38 37 36 37 37 35 33 32 31 32 34 35 35 35 34 33
21 20 19 18 16 15 14 15 16 16 16 17 19 21 22 23 24 24 24 27 29 31 33 35 37 38 37 37 37 38 39 38 37 36 35 35 36 37 38 37 37 35
20 18 18 17 15 15 16 17 17 18 18 19 20 22 21 21 23 24 25 29 31 33 34 36 36 36 34 32 32 34 36 38 38 36 35 35 36 38 39 39 39 38
19 17 16 16 15 16 18 19 19 19 20 22 23 23 22 24 25 26 28 30 31 33 34 34 33 30 27 25 24 24 26 29 31 32 33 35 38 39 39 39 40 41
17 16 17 16 16 18 21 21 21 21 23 26 26 25 26 27 27 27 29 30 31 32 31 30 29 26 23 22 22 25 28 29 28 30 32 35 38 39 38 38 39 40
17 17 17 16 17 18 20 21 21 22 24 26 26 26 28 28 29 32 34 33 32 33 30 28 28 27 26 26 29 33 36 36 35 34 35 36 36 36 37 37 38 39
17 17 17 17 17 18 19 20 22 24 24 26 28 30 31 31 32 33 32 30 30 31 29 29 29 28 28 30 32 35 37 38 39 39 39 38 36 34 33 35 38 40
18 18 18 18 17 18 20 21 22 23 24 26 28 29 29 28 28 27 27 27 29 31 32 31 30 30 30 31 33 35 38 39 40 40 40 40 39 35 32 33 37 41
20 21 20 18 17 19 21 21 21 22 24 26 25 24 25 26 27 27 28 29 31 33 35 35 33 32 32 33 34 36 37 39 39 38 38 40 41 39 34 33 36 42
23 23 20 19 19 20 22 22 23 26 28 28 27 24 25 26 28 29 30 31 32 35 37 37 36 35 34 34 36 36 36 36 36 36 38 41 43 41 37 34 35 39
25 23 19 19 20 22 25 26 27 28 29 29 29 28 27 28 30 32 33 34 34 36 38 38 38 37 37 37 37 37 37 36 35 35 37 40 42 42 38 34 34 35
23 21 20 21 22 24 27 29 29 29 29 30 30 29 28 29 31 33 35 36 37 39 39 39 38 37 37 37 36 36 37 37 36 36 36 37 40 41 38 33 32 32
23 22 22 23 24 26 29 31 32 31 31 31 30 29 29 30 32 34 36 38 39 40 41 40 38 37 36 36 35 35 35 36 35 35 34 35 38 39 37 33 31 30
21 21 21 22 24 26 29 32 34 34 34 33 33 32 31 32 34 36 39 40 42 43 44 42 39 37 36 36 35 34 35 36 35 33 32 33 36 37 36 34 32 30
16 18 19 22 25 28 31 33 34 35 36 36 36 36 35 36 37 39 41 43 45 47 48 46 42 37 36 37 35 34 35 35 34 32 31 32 35 37 36 35 33 30
19 21 22 25 27 30 32 34 36 36 37 38 39 40 41 41 42 43 44 45 47 49 50 50 46 39 36 36 36 35 35 34 32 30 30 32 35 36 36 35 34 31
25 26 27 28 29 31 33 36 37 38 39 41 42 43 44 45 46 47 47 48 50 51 52 52 47 39 35 35 35 34 35 34 31 29 29 31 34 35 35 35 33 31
28 29 30 30 31 32 34 37 40 41 42 43 45 46 47 47 48 49 50 50 51 52 52 50 43 36 34 35 34 33 34 33 31 30 29 30 33 35 34 32 29 28
32 32 31 31 32 33 36 39 42 43 44 45 47 49 50 49 50 50 50 51 51 50 48 44 39 35 34 34 33 33 34 32 30 30 29 30 33 34 31 28 28 30
36 35 34 33 34 36 38 41 43 45 46 47 50 52 52 51 51 51 51 50 48 46 43 40 38 35 33 33 32 32 33 32 29 29 29 30 32 31 29 29 33 38
40 39 37 36 36 38 40 43 45 46 47 49 53 55 54 52 51 50 48 46 44 43 41 39 38 35 32 33 33 33 33 31 29 29 30 30 31 30 31 35 40 43
42 41 40 39 39 39 42 43 45 46 49 52 55 56 54 51 48 46 45 44 43 42 40 37 35 33 33 33 34 34 33 31 30 30 31 33 33 34 36 40 43 44

ECMWFNIL_500_spd_012.txt.gz
Wind_Speed
21 21 21 22 22 21 20 19 18 17 16 15 15 15 16 16 17 16 16 18 18 18 20 22 25 27 28 29 29 29 28 26 25 25 25 25 24 24 24 25 26 27
22 22 22 22 22 21 19 19 18 17 16 15 15 15 16 17 18 17 18 19 19 20 22 25 28 30 32 33 33 32 31 29 26 26 26 26 26 26 26 27 28 29
23 22 22 23 22 20 20 19 18 17 16 15 14 14 16 17 18 18 18 18 19 22 24 26 29 31 32 33 32 30 30 28 26 25 25 26 27 28 29 30 31 31
23 23 23 23 22 21 20 19 18 17 15 13 13 14 16 16 17 17 17 19 21 23 25 27 28 30 31 31 29 27 26 24 24 26 27 27 27 28 28 29 30 30
22 23 23 22 22 21 19 17 16 15 13 12 13 13 15 16 17 17 19 22 23 23 27 29 28 29 29 28 27 25 24 24 26 29 30 29 29 28 27 27 27 28
22 22 22 22 21 19 17 15 14 12 11 12 13 13 15 17 17 17 20 23 23 25 28 28 26 26 26 27 27 26 27 28 31 33 33 32 32 32 31 30 28 28
21 21 21 21 19 16 14 13 12 11 11 11 13 14 15 16 17 19 21 22 22 24 25 23 22 24 25 26 27 28 29 31 33 34 34 35 35 34 34 33 32 31
20 19 19 18 15 12 12 13 12 11 11 12 14 15 16 17 19 19 20 20 19 19 20 21 22 24 25 27 28 29 30 32 33 34 35 35 35 35 35 34 32 32
18 18 16 14 11 12 12 11 11 12 12 13 14 16 17 17 17 17 17 18 18 18 20 21 23 24 26 27 28 29 31 32 34 35 35 36 36 37 36 35 34 33
17 16 13 11 11 12 11 10 11 12 12 13 15 16 18 18 17 17 18 19 19 20 22 23 24 25 27 29 30 30 31 32 34 34 35 36 36 37 37 37 36 35
16 13 10 10 11 11 10 10 10 11 12 14 15 17 17 17 17 18 19 20 21 23 24 25 27 28 30 31 32 32 32 32 33 33 33 35 36 37 39 39 39 37
14 11 10 10 11 10 10 11 11 12 12 13 14 16 17 17 17 19 20 21 23 24 26 27 28 29 31 32 33 34 34 34 33 32 32 33 35 38 40 42 42 41
12 10 10 11 11 11 11 11 11 11 12 13 15 17 18 20 20 21 22 22 24 26 28 29 30 31 32 34 36 37 37 37 36 34 33 33 34 37 40 42 43 43
11 10 11 12 12 12 12 11 10 11 13 15 17 18 20 21 22 23 24 24 26 28 31 32 34 34 36 37 39 40 40 40 39 37 35 34 35 37 39 42 43 43
10 11 12 13 13 13 13 12 11 13 15 16 17 19 20 21 22 23 24 26 28 30 33 35 37 38 39 40 41 42 42 42 41 39 37 35 35 37 40 41 42 42
9 11 13 14 14 14 14 12 12 14 16 17 18 19 19 20 22 24 26 28 30 32 35 37 39 41 42 43 44 45 45 45 44 42 39 36 35 37 40 41 40 40
9 12 13 14 14 13 12 12 13 16 19 20 21 21 21 23 25 28 30 32 34 35 37 40 41 43 44 44 45 47 48 48 47 44 40 37 36 37 40 40 39 39
10 11 12 13 13 12 13 14 17 20 21 23 24 24 25 27 29 31 33 35 37 38 40 43 44 45 46 45 46 48 49 48 47 43 38 36 36 37 39 38 38 39
8 10 12 14 16 17 18 19 21 23 24 26 28 28 29 30 32 34 36 38 40 42 44 46 47 48 48 47 47 48 48 47 44 40 36 35 35 36 38 38 38 39
8 12 15 17 19 20 21 23 25 26 28 30 31 32 33 33 35 37 39 42 44 45 47 49 50 50 49 49 48 48 46 44 40 37 36 35 34 35 37 38 39 38
12 17 19 20 22 22 23 25 27 29 31 33 34 35 36 36 37 39 42 45 46 48 50 51 51 51 50 49 48 45 43 41 39 37 34 33 33 34 37 38 38 37
17 21 22 23 24 25 26 28 29 31 33 35 37 38 38 38 39 41 43 45 47 49 51 51 50 49 47 46 45 42 40 39 37 34 31 31 32 35 36 37 36 36
22 24 25 26 26 28 30 31 33 33 34 36 38 39 40 39 40 41 43 45 47 49 50 49 48 45 42 39 37 35 34 33 31 29 29 31 33 35 35 36 36 36
26 28 28 28 30 31 33 34 35 35 36 38 40 41 42 41 40 41 42 44 46 47 46 45 42 39 35 32 30 29 28 28 27 28 30 32 34 34 35 36 37 37
30 31 30 31 33 34 35 35 35 35 37 39 42 43 43 42 41 41 43 44 46 44 41 39 37 34 32 31 30 29 28 28 28 30 32 33 34 35 36 37 38 38
32 33 33 34 34 35 36 36 35 37 40 42 46 48 43 39 39 42 43 45 46 43 39 37 36 35 34 33 32 31 30 30 30 32 33 34 35 36 37 37 37 37

ECMWFNIL_500_spd_015.txt.gz
Wind_Speed
20 20 20 19 18 18 17 16 15 14 13 11 10 10 11 11 11 10 10 10 9 10 12 14 17 21 21 21 21 21 21 20 19 22 25 26 25 24 23 23 23 22
21 21 20 20 19 18 17 16 15 13 12 9 9 10 10 10 10 11 11 10 9 12 15 16 19 22 20 19 19 20 20 21 21 23 25 25 25 25 25 25 25 24
22 21 21 21 20 18 17 16 14 12 10 8 9 10 10 10 11 11 13 12 12 15 16 16 18 18 17 17 18 19 20 21 22 23 24 25 26 26 27 28 27 27
23 22 22 21 20 17 16 14 12 9 7 8 9 10 11 11 12 12 13 13 14 15 15 15 15 15 16 17 18 20 21 21 23 24 24 25 26 27 28 30 31 30
22 22 21 20 18 16 14 12 9 6 5 7 10 11 12 11 11 12 11 11 11 12 12 13 14 15 16 18 19 21 22 23 24 25 26 26 27 27 28 29 31 32
19 19 18 16 14 13 11 10 7 5 5 8 10 12 12 11 10 10 9 8 9 10 11 13 14 16 18 19 21 23 24 26 27 27 28 27 27 27 28 29 30 32
14 14 13 11 10 9 8 7 5 5 7 9 10 12 12 10 8 8 7 8 9 10 11 14 16 18 20 21 23 25 26 28 29 30 30 29 28 28 28 29 31 33
10 9 9 8 7 6 6 5 5 6 9 10 10 10 10 8 6 6 8 9 10 11 12 14 16 19 21 23 24 26 27 29 30 31 32 31 31 29 28 29 31 34
7 6 6 5 3 4 4 5 6 8 10 9 9 8 8 7 7 8 10 12 13 13 13 15 17 19 21 24 25 27 29 30 32 32 33 33 33 31 30 29 30 34
4 5 5 3 3 3 4 5 8 10 9 8 8 9 9 9 10 11 12 13 14 14 15 16 18 20 23 25 27 29 31 32 34 36 36 37 37 36 34 32 31 33
5 5 5 4 5 5 5 7 9 9 8 8 10 10 10 11 12 12 13 13 14 14 15 16 18 21 24 27 30 33 34 36 38 40 41 41 41 41 39 37 35 34
6 7 7 7 7 7 8 9 9 9 9 10 10 10 11 13 13 14 14 13 13 14 14 16 18 21 24 28 32 35 37 39 40 42 43 44 44 43 41 39 37 36
8 9 10 10 9 9 9 9 9 10 11 11 11 11 13 14 14 13 13 12 12 14 15 17 19 22 25 29 33 37 40 41 42 42 43 44 45 43 40 37 37 37
10 11 11 11 11 10 9 8 9 10 11 12 12 13 14 13 13 12 12 13 14 16 18 21 22 24 27 30 35 38 41 42 43 43 43 44 44 43 39 36 36 36
12 12 12 12 11 10 9 10 10 11 12 13 14 14 14 12 12 13 15 18 20 22 24 26 27 28 30 32 36 39 42 43 43 43 43 43 43 41 38 35 34 34
13 12 12 12 11 11 11 12 12 13 14 14 15 15 15 14 15 17 20 23 25 27 29 30 31 31 32 34 37 40 42 43 43 43 43 43 42 40 36 33 33 34
13 13 13 13 12 11 11 12 13 14 14 14 15 16 17 19 21 23 24 26 27 29 31 32 33 33 33 35 38 40 42 43 42 42 42 42 41 39 36 33 33 35
14 14 14 12 10 9 9 10 11 13 14 15 16 18 19 21 24 25 26 27 28 30 31 33 34 34 34 36 39 40 41 41 41 40 40 39 38 36 34 33 33 34
15 14 13 11 9 8 9 9 11 12 14 15 16 17 19 21 24 26 27 28 29 31 33 34 35 35 35 37 39 40 40 39 38 37 36 35 34 32 31 30 31 31
15 14 12 11 10 10 10 10 11 13 14 15 17 18 20 22 24 26 28 30 32 33 34 35 36 36 36 37 38 39 38 37 36 35 33 32 30 29 28 28 28 29
16 15 13 12 12 12 12 12 14 15 16 17 19 20 21 23 26 28 29 32 35 36 36 37 37 37 37 37 38 37 36 36 35 34 33 31 30 29 28 28 28 29
18 16 14 13 14 14 14 15 16 18 18 20 22 22 23 26 28 29 31 34 36 38 38 38 38 38 37 37 37 36 34 35 35 34 34 33 32 32 31 30 30 31
19 18 16 15 15 15 16 17 19 20 20 22 24 24 26 28 30 31 33 35 35 37 37 35 36 37 37 37 38 36 34 34 35 35 35 35 35 35 34 32 32 33
19 19 17 16 16 17 18 19 20 21 22 24 25 27 29 30 31 32 34 34 33 34 34 33 34 37 37 38 39 38 35 34 35 36 36 36 37 37 36 34 34 34
20 19 17 17 18 19 20 21 22 23 24 26 27 29 31 32 32 33 33 32 31 32 33 33 35 37 38 40 41 40 38 36 36 36 37 37 37 37 36 36 35 35
22 20 18 19 20 22 23 24 24 25 26 28 29 32 33 32 33 34 34 32 31 32 33 35 37 38 40 42 43 42 40 38 37 37 37 37 37 37 37 37 37 37

ECMWFNIL_500_spd_021.txt.gz
Wind_Speed
17 16 16 17 16 16 16 16 15 15 15 15 15 16 16 15 14 12 10 9 8 7 6 7 8 10 11 11 9 7 7 9 12 13 14 15 16 18 19 21 22 23
18 18 18 18 18 17 17 17 17 17 17 16 16 17 17 16 15 13 11 10 9 7 7 8 9 11 11 10 8 8 10 12 13 14 15 16 18 20 22 22 23 25
19 19 19 19 19 19 19 19 19 19 19 18 18 18 18 17 16 13 12 11 9 7 7 9 10 11 11 10 9 11 13 14 14 14 16 18 20 22 23 24 24 24
20 20 20 21 22 22 21 20 21 21 21 20 20 19 19 18 16 14 13 11 8 7 8 10 11 12 12 11 12 14 15 16 16 17 18 19 20 22 23 23 23 23
21 22 22 23 24 24 22 21 22 22 23 23 22 21 20 18 16 15 14 10 8 8 9 11 12 12 12 12 14 15 16 17 17 18 19 19 19 21 22 22 22 22
19 21 23 24 25 25 24 23 24 24 24 25 24 22 20 18 17 16 14 10 8 9 11 12 13 14 14 14 15 16 17 17 17 17 18 19 20 21 22 22 23 23
17 19 22 24 26 26 25 25 26 26 26 26 25 23 20 18 18 18 14 11 10 11 13 14 15 15 15 15 15 16 16 16 16 17 19 20 21 23 24 24 24 25
16 18 21 23 25 26 26 27 27 26 26 27 25 23 20 20 20 18 14 12 12 13 15 16 17 17 17 16 15 14 15 16 18 19 21 21 23 24 25 25 26 26
16 17 19 22 24 25 26 26 26 25 26 26 26 23 21 21 21 18 15 13 13 15 17 17 18 18 16 15 13 13 16 18 20 21 22 23 24 25 26 27 28 28
15 16 17 19 21 22 23 25 24 25 26 27 26 23 21 23 21 18 15 14 15 17 18 18 18 17 15 13 13 14 17 19 20 22 23 24 24 25 26 27 28 28
14 14 15 16 18 20 22 24 24 25 26 27 26 22 22 23 20 16 15 16 18 19 18 18 16 14 12 13 14 16 18 19 21 22 24 25 25 24 25 27 27 28
14 14 14 14 16 20 23 25 25 26 26 27 26 23 23 23 20 17 17 18 19 18 17 16 14 12 12 14 16 17 19 20 21 22 24 26 26 25 25 26 27 27
15 15 15 15 17 20 24 26 27 27 28 28 27 24 24 23 20 19 20 20 20 18 16 13 11 11 14 15 16 18 20 22 23 24 26 27 26 25 24 26 27 28
17 17 17 19 20 22 25 27 29 29 29 30 28 26 25 23 22 23 23 21 19 16 14 11 10 12 14 14 16 19 21 23 24 26 28 29 27 25 24 25 27 28
18 19 19 21 24 25 26 27 29 30 31 32 30 27 26 25 25 26 24 21 18 15 13 11 11 12 13 15 17 20 22 24 25 27 30 30 27 24 24 25 27 28
20 20 21 22 25 27 27 27 29 32 34 33 31 28 27 27 27 26 23 20 18 16 14 12 12 13 14 16 18 21 23 25 27 29 30 28 25 23 24 26 28 29
21 22 22 23 24 27 30 30 30 33 36 35 33 30 29 29 28 25 22 20 19 17 16 13 13 14 15 17 19 22 25 27 28 28 27 25 23 23 24 27 28 30
24 24 24 24 25 27 30 32 33 34 37 38 35 32 31 30 28 25 23 22 20 18 16 15 14 15 17 18 21 23 25 27 28 27 26 24 23 24 26 28 30 32
27 28 26 25 26 27 29 33 35 35 37 39 37 33 33 31 28 25 24 23 21 19 17 16 16 16 18 19 22 24 26 27 27 26 26 25 25 26 27 29 31 33
29 29 28 27 27 29 30 33 36 36 37 39 38 36 34 32 29 26 25 23 22 20 19 18 17 18 19 20 22 25 27 27 27 27 26 25 26 27 29 32 33 34
27 28 28 27 28 30 31 32 35 37 38 39 39 37 34 32 30 28 26 25 24 23 21 19 18 19 19 20 23 26 27 28 28 28 27 27 27 29 31 33 34 35
26 27 27 27 29 31 32 33 35 37 39 40 39 37 35 34 32 29 27 27 26 25 23 20 20 19 19 21 24 27 28 29 28 29 29 29 30 31 32 33 35 35
29 28 27 28 29 31 32 33 35 37 39 40 39 36 35 35 32 30 29 29 28 26 23 21 21 20 21 23 26 28 30 30 30 30 31 31 32 33 34 35 36 35
33 31 30 29 30 31 32 33 35 37 39 39 37 36 35 33 32 31 31 32 30 26 24 23 23 22 23 25 27 30 31 32 32 32 32 33 34 35 35 36 35 35
34 32 32 31 31 31 32 33 35 37 39 39 37 35 33 32 33 34 34 33 30 27 26 26 25 25 27 27 29 32 33 33 34 33 34 36 37 38 39 38 35 33
33 32 33 34 33 33 34 34 35 37 39 39 37 34 34 35 36 36 34 32 30 29 29 28 27 28 30 30 32 34 35 35 35 35 36 39 41 43 44 39 33 31

ECMWFNIL_500_spd_024.txt.gz
Wind_Speed
15 14 14 15 17 17 16 16 17 16 17 16 15 15 14 14 15 14 13 12 11 12 11 10 9 9 9 9 9 9 9 10 12 14 14 15 17 18 19 20 20 20
16 16 16 16 17 18 18 18 18 17 17 18 17 16 14 15 16 16 15 13 13 13 12 11 10 10 9 9 9 9 10 11 14 15 14 16 17 17 19 20 21 20
17 17 17 17 18 20 20 19 19 19 19 19 18 17 15 16 17 18 16 15 15 14 13 11 11 11 10 9 9 10 11 13 15 15 15 15 15 16 18 20 21 20
17 18 18 19 20 21 21 20 20 20 20 20 20 19 18 17 18 18 18 17 16 16 14 13 12 12 11 10 10 10 11 14 15 16 15 14 14 15 17 19 20 19
17 19 20 20 21 23 23 21 21 21 22 22 22 21 19 18 18 18 19 19 18 18 16 14 13 13 11 10 10 11 12 14 16 15 14 13 14 15 16 17 18 18
16 18 19 21 22 23 23 22 22 23 23 23 24 23 21 20 19 19 20 20 20 19 17 16 15 13 12 11 11 11 13 15 15 14 13 14 15 14 15 16 17 17
14 16 18 20 21 22 23 23 24 24 24 25 25 24 22 21 20 20 21 21 21 20 19 17 16 14 12 11 11 12 14 15 14 14 14 15 15 14 15 17 17 16
13 14 15 17 19 21 23 24 25 25 26 26 26 25 24 22 21 21 21 21 21 21 20 19 17 15 12 12 12 13 14 14 14 14 15 16 16 16 16 17 17 17
13 13 14 15 17 18 20 23 25 27 28 28 27 26 25 23 22 22 21 21 21 21 21 20 18 16 13 13 13 14 13 14 14 15 15 16 17 18 18 18 18 18
12 12 13 14 15 16 17 20 23 26 29 29 29 28 26 24 24 23 22 21 21 22 21 20 19 17 15 14 14 13 13 14 14 14 16 17 19 19 20 21 20 20
12 12 11 12 13 14 14 16 19 23 27 29 30 29 27 25 24 23 22 21 22 22 22 22 21 19 16 16 15 14 13 14 14 15 17 19 20 21 23 23 21 19
11 10 10 11 13 14 15 15 17 20 23 26 27 27 27 26 25 24 22 22 23 23 23 23 21 19 18 17 16 14 14 15 15 16 18 20 21 23 24 23 20 18
10 10 11 13 15 16 17 17 17 18 21 23 24 25 26 26 25 24 23 23 25 25 24 23 21 19 19 18 17 16 16 16 16 17 18 19 21 23 24 23 20 18
11 11 13 15 17 18 19 19 19 19 20 22 24 25 27 27 26 25 25 25 26 26 24 23 21 20 20 19 19 18 18 17 18 18 18 19 21 23 24 23 20 20
14 14 14 16 18 19 19 19 20 21 22 23 24 25 28 28 27 27 27 27 27 26 24 22 20 20 21 21 21 20 20 19 19 19 19 19 20 22 23 23 22 21
17 16 16 17 19 20 21 21 20 21 23 24 24 25 27 29 30 28 27 27 27 26 24 22 21 21 22 23 23 22 21 21 21 21 20 19 20 22 22 23 23 23
17 18 19 19 20 21 23 24 23 23 23 25 25 25 26 28 30 30 28 28 28 27 25 23 22 23 24 24 24 23 23 22 22 22 21 20 21 22 22 23 24 24
16 18 19 20 22 23 24 26 27 26 24 25 25 26 27 29 30 30 30 30 30 28 26 25 24 24 25 25 25 24 24 23 24 24 23 22 22 22 23 24 26 28
17 18 19 20 22 24 26 28 29 28 27 26 26 26 27 28 29 30 31 32 31 29 28 27 26 26 26 26 26 25 25 25 25 25 24 23 23 23 23 25 27 30
20 19 19 20 23 26 28 29 29 29 29 28 28 28 26 26 28 30 31 32 32 31 30 29 28 28 27 27 27 26 26 26 26 26 26 25 25 24 25 25 28 31
22 21 20 21 24 27 30 31 30 29 30 29 29 29 27 26 28 29 30 32 33 32 31 31 30 29 29 28 28 27 27 28 27 27 26 26 26 26 26 27 29 32
24 23 22 22 24 25 28 31 30 29 29 29 29 29 28 27 27 27 28 31 34 34 34 33 32 31 30 29 29 29 30 29 28 27 26 27 28 28 27 28 31 33
27 26 26 26 27 27 27 28 29 28 29 30 30 30 29 28 27 27 29 31 34 35 34 33 32 32 32 31 31 32 33 31 29 27 26 27 30 29 28 30 32 35
29 30 31 30 31 32 30 29 29 29 29 31 31 31 31 30 29 29 30 31 33 35 35 34 33 34 34 34 34 35 35 33 30 28 26 28 31 31 30 31 34 36
33 35 34 33 34 36 34 31 30 29 31 32 33 33 33 32 31 30 31 32 33 35 37 36 35 35 36 36 37 38 37 34 32 29 27 30 32 32 31 32 35 38
38 39 38 37 37 38 38 35 32 31 33 34 35 36 35 35 33 31 31 33 34 37 39 39 37 37 38 39 40 40 39 36 33 30 29 32 35 34 33 34 37 38

ECMWFNIL_500_spd_027.txt.gz
Wind_Speed
15 14 14 14 14 15 15 15 15 16 17 18 19 18 16 14 13 13 12 11 12 13 13 13 13 12 11 9 7 6 5 5 5 7 10 12 13 13 11 12 13 15
17 16 16 15 15 15 16 17 16 16 17 19 20 19 17 16 15 15 14 12 12 13 13 13 13 13 12 10 9 7 6 6 6 8 10 12 13 12 12 13 13 14
18 18 18 17 17 18 19 19 18 17 18 19 20 20 19 18 17 16 16 14 13 13 13 14 14 14 13 12 11 9 7 7 7 8 10 11 12 12 13 13 13 13
19 19 19 20 20 21 21 20 19 19 19 19 20 21 20 19 18 18 17 16 14 14 14 14 14 14 14 13 13 11 9 8 8 8 10 11 11 12 14 14 13 13
19 20 20 21 22 22 22 21 21 20 20 20 21 21 21 20 20 19 19 18 16 16 15 14 15 15 15 14 14 13 11 10 9 9 10 11 11 12 14 14 13 12
18 19 20 21 22 23 22 22 23 22 22 22 22 22 22 21 20 20 20 19 18 17 16 15 15 16 16 15 15 14 13 11 10 9 10 11 11 12 13 14 13 12
18 19 20 20 21 22 21 22 23 24 23 23 23 23 22 22 21 22 22 21 20 19 18 17 16 17 17 16 16 15 14 13 11 11 11 12 12 13 14 14 13 13
19 19 19 18 18 19 20 21 23 24 24 24 24 24 24 23 23 23 23 22 21 20 20 18 17 18 18 17 17 16 15 14 13 12 12 13 13 14 15 15 16 16
19 18 17 16 15 16 17 19 21 23 24 24 24 25 25 25 24 24 24 24 23 22 22 20 18 19 19 18 17 17 16 15 14 14 14 14 15 15 16 17 18 19
18 17 15 14 14 14 15 16 17 19 21 22 24 25 26 26 26 25 25 25 24 23 23 21 20 20 20 19 18 17 16 16 15 15 15 16 16 16 18 19 20 20
18 16 14 13 13 13 13 13 13 14 15 17 20 22 25 26 27 27 27 26 25 25 24 23 22 22 21 20 19 18 16 16 16 16 17 17 17 17 19 21 21 21
18 16 14 13 13 12 11 11 10 10 11 13 14 16 18 21 24 26 28 27 26 26 25 24 23 23 22 21 20 18 17 16 17 18 18 18 18 19 20 22 22 22
18 16 14 14 13 12 10 10 9 9 10 12 13 13 14 15 17 19 22 24 25 26 26 25 24 24 23 22 21 19 18 18 18 19 19 18 19 19 21 22 22 21
19 17 15 14 13 12 11 10 10 10 11 12 13 13 14 15 15 15 16 18 20 23 25 25 25 24 23 22 21 20 19 20 20 20 19 19 19 20 22 22 22 21
20 19 17 15 14 12 11 11 12 12 12 12 12 12 13 15 16 16 16 16 18 21 23 24 25 24 23 22 21 21 22 22 22 21 20 20 20 22 22 23 22 21
22 21 18 16 14 13 12 13 15 15 14 13 13 13 13 14 15 16 17 17 18 20 22 23 24 24 24 24 23 23 24 24 23 23 22 22 22 22 23 23 23 21
23 22 20 18 16 15 14 14 16 17 17 17 16 15 15 15 15 15 16 17 18 20 21 22 23 25 26 25 25 25 26 26 25 24 24 23 23 23 24 24 23 21
21 21 20 19 18 17 17 16 17 18 19 20 19 18 18 17 16 16 16 17 17 18 20 21 23 25 27 27 27 28 28 28 27 27 26 25 24 25 25 25 24 21
19 20 19 18 18 19 19 20 19 18 19 21 22 22 21 20 18 17 17 17 16 17 18 20 23 26 27 28 29 30 30 29 29 28 28 27 26 27 26 26 25 22
19 19 19 19 19 20 22 22 21 19 19 21 23 24 24 22 21 19 18 17 17 17 18 20 22 26 28 28 30 31 31 31 31 31 30 30 29 28 27 26 25 23
20 20 20 21 21 22 23 23 22 22 22 22 24 25 26 25 24 22 20 19 18 18 19 19 21 25 28 29 30 32 33 33 33 32 32 31 31 30 28 26 25 24
23 23 24 24 23 24 24 24 25 25 24 24 24 25 27 27 26 24 22 21 20 20 20 20 21 24 27 29 30 33 34 34 34 34 33 32 32 31 29 27 26 25
28 28 28 27 26 26 26 26 26 27 27 25 24 25 26 28 27 26 26 25 24 22 22 22 23 25 27 29 31 34 35 34 35 35 35 33 33 32 30 27 27 26
33 32 31 30 28 28 28 28 28 29 29 30 29 28 28 29 30 30 29 28 27 25 24 24 25 26 28 30 32 34 35 35 36 37 37 35 34 33 30 29 28 29
34 33 32 33 33 33 32 31 31 32 33 35 35 34 32 32 35 35 33 31 30 29 27 27 27 28 30 31 32 34 36 36 37 39 39 37 35 34 32 31 31 31
33 33 33 32 33 35 36 35 35 35 35 36 36 36 35 34 37 39 37 34 33 33 31 30 30 31 31 32 33 35 37 38 38 40 41 39 36 35 34 33 34 34

ECMWFNIL_500_spd_030.txt.gz
Wind_Speed
19 18 18 18 17 17 17 17 17 18 18 19 19 18 16 14 13 12 11 9 8 6 6 7 8 7 7 8 9 10 11 10 9 7 7 8 9 9 9 10 11 11
19 18 18 18 17 17 18 18 17 17 17 18 18 18 17 16 15 14 13 12 10 9 7 8 9 9 8 9 9 10 12 12 10 9 8 8 9 10 10 11 11 10
19 19 18 18 18 19 19 18 18 18 18 17 17 18 18 17 16 15 15 14 13 11 10 10 10 10 10 9 10 11 12 12 11 10 9 9 10 10 10 11 12 11
21 20 20 20 20 20 19 19 19 19 19 18 18 18 18 17 17 16 16 16 15 14 12 11 12 12 11 11 11 12 12 12 12 12 11 11 11 11 11 12 12 12
21 21 20 20 20 21 20 20 20 21 21 20 20 20 19 18 18 17 17 17 17 16 15 14 13 13 13 12 12 12 13 13 12 12 13 12 12 11 12 13 13 13
21 20 19 19 20 20 20 21 22 23 23 22 22 21 20 20 19 18 18 18 18 18 17 16 15 15 15 15 14 14 13 13 13 13 13 13 13 12 13 14 14 14
20 20 20 20 20 20 20 21 22 23 24 24 23 22 22 21 20 20 19 19 20 19 18 18 17 16 17 16 16 15 15 14 14 13 14 14 14 13 13 14 15 15
21 21 21 20 20 20 20 21 22 23 24 24 23 23 23 23 22 22 21 20 21 21 20 19 18 18 17 18 17 17 16 15 15 15 15 15 15 14 14 15 15 15
22 21 21 20 19 19 20 20 21 22 23 23 23 24 24 23 23 23 23 22 22 22 21 20 19 19 19 19 19 19 18 17 17 16 16 16 16 15 15 15 15 15
22 21 21 20 19 19 19 19 19 19 20 20 21 22 22 23 23 24 24 23 23 23 23 22 21 21 21 20 20 20 20 18 18 18 18 18 17 16 16 16 16 15
22 22 20 19 19 19 18 18 18 17 17 17 17 18 19 20 21 21 22 22 23 24 25 24 23 23 23 22 22 22 21 20 19 19 20 20 19 18 17 17 17 16
22 21 20 20 20 19 19 18 17 15 14 14 14 14 14 14 14 15 15 17 20 22 24 25 25 25 25 23 23 22 22 21 20 20 22 22 21 19 18 17 18 17
22 21 20 21 20 20 19 18 16 13 12 12 11 10 10 9 9 9 10 11 13 15 18 21 22 22 22 22 22 22 22 22 21 22 23 23 22 21 20 19 19 18
21 21 22 22 22 21 20 18 15 13 12 11 9 7 6 6 6 7 8 9 10 10 12 14 15 15 16 18 19 20 21 22 22 23 25 25 24 23 22 20 20 20
22 23 23 23 23 22 21 18 16 14 13 11 8 6 5 4 5 6 7 9 10 11 11 12 11 11 12 15 18 19 20 23 23 24 26 27 26 25 24 22 21 21
23 24 24 24 24 23 22 19 18 16 14 11 9 8 6 6 6 7 8 9 10 11 13 13 13 12 12 15 18 18 20 22 24 25 27 28 27 26 25 24 23 23
23 25 25 25 25 24 23 21 19 17 15 13 11 10 9 9 9 10 10 10 11 11 13 14 14 14 13 15 18 19 19 21 23 25 27 28 27 26 26 26 26 25
24 26 27 26 26 25 24 22 21 19 17 15 14 13 13 13 13 13 14 13 13 13 14 14 14 14 15 16 18 20 20 20 22 25 26 27 27 27 27 27 27 27
25 27 27 26 26 26 25 25 23 21 19 18 17 17 18 18 18 18 18 17 16 16 16 15 15 15 16 18 20 21 21 21 22 23 25 27 27 27 28 27 28 28
26 26 26 26 26 27 27 27 25 23 22 21 20 20 20 21 21 21 21 20 20 19 18 18 16 15 16 19 21 23 24 23 24 24 25 27 27 28 28 28 28 29
25 25 25 25 26 27 27 27 26 25 24 24 23 22 22 22 23 24 24 23 23 23 22 20 18 17 18 19 21 23 25 25 26 26 26 27 28 28 28 28 29 29
24 24 24 24 24 25 25 25 26 26 25 25 25 25 25 24 25 25 26 26 26 26 24 22 21 21 21 20 22 24 27 28 28 28 28 28 29 29 30 30 30 30
24 24 23 23 24 25 25 26 26 27 27 27 26 26 26 27 27 28 28 29 29 28 27 25 24 24 23 23 24 26 28 29 30 29 29 29 30 31 32 32 31 30
25 25 24 24 26 26 26 26 27 28 28 28 28 28 28 29 30 30 30 31 31 30 29 29 28 28 27 27 27 29 30 31 31 31 31 31 32 32 33 33 32 31
25 27 28 29 29 28 27 28 29 30 31 31 31 30 30 31 33 33 32 32 32 32 33 32 32 32 32 31 31 31 33 33 32 33 33 32 32 32 33 34 34 32
26 28 30 29 28 27 28 30 31 32 33 35 36 36 35 35 35 34 34 33 34 34 35 34 34 34 35 36 36 35 35 35 36 35 34 33 33 33 34 35 35 35

ECMWFNIL_500_spd_033.txt.gz
Wind_Speed
20 19 20 20 20 19 18 18 18 18 17 16 15 14 14 13 13 12 11 11 10 9 8 8 8 9 8 7 8 8 8 8 8 8 8 9 10 10 9 9 10 11
20 20 20 21 20 20 19 19 19 19 18 17 16 15 15 14 14 14 13 12 12 11 10 10 10 10 9 9 9 9 9 8 8 9 9 9 9 10 9 8 8 10
21 21 21 21 21 20 20 19 19 19 19 18 17 16 16 15 14 14 14 14 13 13 12 12 11 11 10 10 10 10 11 10 9 9 10 10 9 9 9 8 7 8
20 20 21 21 21 21 20 19 18 18 18 18 17 17 17 16 16 15 15 15 15 14 14 13 13 13 12 11 11 11 12 12 11 10 11 11 11 10 9 9 7 8
20 20 20 20 20 20 19 18 18 19 18 18 18 17 17 17 17 17 17 16 16 16 15 15 15 15 14 13 13 12 13 14 13 12 11 12 12 11 10 9 8 8
20 19 19 19 19 19 19 19 20 20 20 20 19 19 18 18 18 18 18 18 18 17 17 16 16 16 17 16 15 14 14 14 15 14 13 13 14 13 12 10 9 8
19 19 19 20 19 19 19 20 20 19 20 20 20 20 20 20 20 19 19 19 19 19 18 18 18 18 18 18 17 16 15 15 15 16 16 15 15 15 14 12 10 9
21 21 20 20 20 19 19 19 19 19 19 19 19 20 20 21 21 21 20 20 20 20 20 20 19 19 19 19 19 19 18 17 16 17 18 17 16 17 16 14 12 10
22 21 21 21 20 19 19 19 19 19 19 19 19 19 19 20 20 21 21 21 21 21 20 20 20 20 20 20 20 21 21 20 18 18 19 19 17 18 18 16 14 12
22 22 22 21 21 20 19 19 20 19 19 19 19 19 18 18 19 20 21 22 21 21 21 21 21 21 21 21 22 22 23 22 20 19 20 21 19 19 19 18 17 15
21 22 21 21 21 20 20 21 20 20 19 18 19 18 18 18 18 18 19 20 21 21 21 21 22 22 22 22 22 23 24 24 22 21 21 22 21 20 20 20 19 18
21 21 20 21 21 21 21 21 21 19 18 18 18 18 17 17 16 16 16 17 19 19 19 20 21 21 21 22 22 23 23 24 24 22 21 22 22 22 22 21 21 20
21 20 20 21 22 22 22 22 21 19 18 18 17 16 15 15 15 14 14 14 14 14 14 15 16 17 18 20 21 21 22 23 23 22 21 22 23 23 23 23 23 22
23 22 22 22 23 23 22 22 21 19 18 17 16 14 14 14 14 13 12 11 11 11 10 10 11 11 12 14 16 17 18 20 21 21 21 22 23 24 25 25 25 24
26 25 24 24 24 24 23 22 21 19 18 17 16 15 15 15 14 12 11 10 9 9 9 9 9 10 10 11 12 14 16 17 18 20 20 22 23 24 25 26 26 26
28 27 26 26 25 24 23 23 22 21 19 18 16 16 16 15 14 13 11 10 9 8 8 8 8 9 10 11 13 15 16 17 18 19 21 22 23 25 26 26 26 26
29 28 27 27 26 25 24 24 24 23 21 19 18 18 18 17 15 14 12 11 10 9 9 8 8 9 11 12 14 16 18 19 19 20 21 23 23 25 26 27 27 26
28 29 28 28 27 27 25 25 26 24 22 21 20 19 19 18 17 15 14 13 12 11 11 10 10 10 11 13 15 17 19 20 21 22 22 23 24 25 26 27 27 27
26 28 29 28 28 28 27 27 27 26 24 22 21 21 20 19 18 17 16 16 15 14 14 14 13 13 13 14 16 18 19 21 23 23 24 25 25 26 26 27 28 28
25 28 29 29 29 30 29 28 27 27 25 24 24 23 22 20 19 19 19 18 18 18 18 17 17 17 16 16 18 19 20 22 23 24 24 25 26 27 28 29 29 30
25 27 29 30 30 31 30 29 28 27 26 26 25 25 23 22 21 22 22 22 22 22 22 21 20 20 19 19 20 22 23 24 25 25 24 24 25 27 29 30 30 31
24 27 30 31 31 31 29 28 27 26 26 27 27 27 26 25 24 24 24 24 24 25 25 25 24 24 23 22 22 24 26 27 28 28 27 25 25 27 29 30 31 32
22 25 28 30 30 28 26 25 25 25 27 28 28 28 28 27 27 28 28 27 27 27 27 28 28 28 26 23 23 24 27 28 30 31 31 29 29 29 29 31 32 33
19 22 24 27 27 25 24 24 25 26 27 27 28 28 29 29 29 29 30 30 30 30 29 30 31 30 27 24 24 26 28 30 32 33 34 33 32 32 32 32 33 34
20 20 21 23 23 24 24 25 25 26 27 28 28 28 28 29 29 29 29 30 31 31 31 30 31 31 30 27 27 28 30 32 35 36 36 36 36 36 35 36 36 37
21 20 19 20 21 23 24 25 26 27 27 28 28 28 29 29 30 30 30 31 31 32 32 32 32 32 32 31 31 31 32 34 37 37 37 37 39 39 39 38 38 38

ECMWFNIL_500_spd_036.txt.gz
Wind_Speed
16 16 15 15 14 13 12 11 12 12 11 11 10 10 9 9 9 8 8 8 7 7 7 7 7 6 5 6 7 7 8 8 8 8 8 8 8 7 7 6 5 5
17 16 16 15 14 13 12 11 12 12 11 11 11 11 11 10 11 11 10 10 9 9 9 9 9 8 7 6 6 7 8 8 9 9 10 9 9 8 8 7 7 6
17 16 16 15 14 13 12 11 11 11 11 11 11 11 12 12 12 13 12 12 12 12 12 11 11 10 9 8 7 7 8 9 9 10 11 11 10 9 9 9 8 8
16 15 16 15 14 13 11 11 11 11 12 12 12 12 12 12 13 13 14 14 14 14 14 14 13 12 12 11 9 8 8 9 9 10 11 12 11 10 10 9 9 9
15 15 15 15 14 13 12 12 12 12 12 12 13 13 13 13 13 14 14 15 15 16 16 16 15 14 14 13 12 11 10 10 10 11 11 13 13 12 11 10 10 10
15 14 13 14 13 13 13 13 13 13 13 13 14 14 14 15 15 16 16 16 17 17 17 17 17 17 16 16 15 14 13 12 12 12 12 13 14 14 13 12 11 11
15 14 13 13 13 13 14 14 14 14 14 14 14 15 16 16 17 17 18 18 19 18 18 18 18 18 18 18 17 17 16 15 14 14 14 14 15 15 15 14 13 12
16 15 15 15 15 15 15 15 15 15 14 14 14 15 16 16 16 17 18 19 20 20 19 19 19 19 19 19 19 19 19 18 17 16 16 16 16 16 17 17 15 14
17 16 16 16 15 15 15 15 15 14 14 13 14 15 15 15 16 16 17 18 19 20 20 20 20 20 20 19 19 20 20 20 19 18 17 17 17 16 17 18 17 16
16 16 16 15 15 15 16 16 15 14 14 14 14 14 14 15 15 15 16 16 17 18 19 20 20 21 21 20 20 21 21 22 21 20 18 18 18 17 17 18 18 18
16 16 15 15 15 16 16 17 16 15 14 14 14 14 14 14 14 14 14 14 15 16 17 18 19 20 21 21 20 21 21 22 22 21 20 18 18 18 18 18 19 19
17 15 14 14 15 16 17 17 16 16 15 15 15 14 13 13 13 13 13 13 13 13 14 15 16 17 18 19 19 20 21 22 22 22 21 20 19 18 18 18 19 20
17 15 15 16 16 16 17 18 17 17 16 16 16 14 13 13 13 13 12 12 11 11 11 12 13 13 14 15 16 17 19 20 21 22 22 21 19 19 19 19 19 21
18 18 18 18 18 19 19 19 19 18 17 17 16 15 14 14 13 12 11 11 11 11 10 10 10 10 11 12 14 15 16 17 19 20 20 20 19 19 19 19 20 22
21 22 22 21 21 21 21 20 20 19 18 18 17 16 16 15 13 12 11 11 11 11 9 8 8 8 9 11 12 14 14 15 16 17 18 18 18 18 19 20 21 22
23 24 24 24 23 23 22 22 22 21 20 19 18 18 17 16 14 12 11 11 11 10 8 7 6 7 8 10 12 13 14 14 15 16 18 18 18 18 20 21 22 23
23 24 25 25 24 24 24 24 23 22 21 20 19 19 18 16 14 13 12 13 12 10 9 7 6 6 7 9 11 13 15 15 15 16 17 19 19 19 20 21 23 24
21 23 24 24 24 24 25 25 25 23 21 21 20 20 19 18 16 14 14 15 14 12 10 8 8 8 9 10 12 14 16 17 17 16 17 18 19 20 20 21 22 24
20 21 22 22 22 23 24 25 25 23 22 21 21 21 21 19 17 16 16 16 15 14 12 11 10 10 11 12 13 16 18 19 19 18 17 18 19 20 21 21 22 24
20 20 20 20 21 22 23 24 24 23 22 22 23 23 22 19 18 18 18 18 17 16 15 14 13 13 13 14 15 17 20 22 22 21 18 18 19 20 22 23 24 25
20 20 20 20 20 21 22 23 23 24 25 25 25 24 23 21 20 20 19 19 19 18 17 16 15 16 16 17 18 19 21 23 24 22 20 18 19 20 21 23 25 26
18 18 20 21 20 21 21 22 23 25 27 27 26 25 24 23 22 21 20 21 21 21 20 18 17 18 18 19 20 22 23 24 24 24 22 21 22 22 23 24 25 27
17 16 18 20 20 20 20 22 24 26 28 28 27 25 24 23 22 22 22 22 22 21 21 20 20 20 20 21 23 25 26 25 25 25 25 24 25 25 26 27 28 29
17 16 16 18 19 19 19 21 24 25 27 27 26 25 24 23 23 23 23 22 22 21 21 21 22 23 24 24 26 28 28 27 26 27 28 27 28 29 30 31 31 30
20 18 17 16 16 17 18 20 22 24 25 25 25 25 24 24 23 22 21 21 21 21 21 22 23 24 26 26 27 29 30 30 29 29 29 29 31 33 34 34 34 33
21 20 19 18 17 17 18 19 21 23 24 24 24 24 24 23 22 21 20 20 20 21 22 23 23 24 25 25 25 27 29 31 33 33 31 31 33 36 37 36 36 36

ECMWFNIL_500_spd_039.txt.gz
Wind_Speed
13 13 13 12 11 9 9 9 9 8 8 7 6 5 4 5 5 4 3 3 3 3 3 4 4 3 3 5 6 6 6 5 5 6 5 5 4 3 3 3 4 4
12 13 12 11 10 9 9 9 8 9 9 8 7 5 5 6 6 5 4 4 5 5 6 6 6 5 5 5 6 7 7 7 7 6 7 7 7 6 5 5 5 5
11 12 11 11 10 9 8 8 8 9 9 8 8 8 8 8 8 8 8 7 8 8 8 8 8 8 7 6 6 7 8 9 9 8 8 8 9 8 8 7 7 6
11 11 10 10 9 8 7 7 7 8 8 8 9 9 9 9 9 10 10 10 10 10 11 11 10 10 10 9 8 8 8 9 10 10 10 9 10 10 10 10 9 9
12 11 10 9 9 8 6 6 7 7 7 8 8 8 8 9 10 10 11 11 11 11 12 12 12 12 12 12 11 10 9 10 10 11 11 10 10 10 11 11 11 11
11 10 9 9 9 9 7 7 7 7 8 8 8 8 8 9 10 11 11 12 12 13 13 13 13 13 13 13 13 12 12 11 12 12 13 12 11 10 11 11 12 12
10 10 9 10 10 9 9 8 8 8 8 8 8 8 9 9 10 10 11 12 13 13 14 14 14 14 14 14 14 14 14 13 13 13 14 14 13 12 12 12 12 12
11 10 10 11 10 10 10 9 9 9 9 9 8 9 9 9 9 9 10 11 12 13 14 14 15 15 15 14 14 14 14 15 15 14 14 15 15 15 14 13 13 13
12 11 12 11 11 11 10 10 10 10 9 9 9 8 8 8 8 8 9 10 11 12 13 14 15 15 15 15 14 14 15 15 16 16 15 15 15 16 15 14 14 14
11 11 12 12 11 11 11 10 10 10 10 9 9 8 8 8 8 8 9 10 10 10 11 12 13 13 13 13 13 14 14 15 16 16 17 16 15 15 15 15 15 15
12 12 12 12 12 11 10 10 9 9 10 10 9 9 9 9 9 8 9 10 10 9 8 8 9 10 11 12 12 13 13 14 15 15 16 17 17 16 15 15 15 16
14 14 13 12 11 10 9 9 9 9 9 10 10 10 10 9 9 9 9 8 8 7 7 6 5 6 8 9 10 11 11 12 13 14 14 16 17 17 16 16 16 16
14 14 13 12 11 10 10 9 9 9 9 10 11 11 10 10 10 9 8 8 7 6 5 4 4 4 6 6 7 7 8 9 10 11 11 11 13 14 15 15 15 16
14 14 13 12 12 11 11 10 10 10 10 11 11 11 10 11 11 9 8 8 7 6 5 4 4 4 4 4 4 5 6 8 9 10 10 10 10 11 12 13 14 15
14 14 14 14 14 13 12 13 13 13 12 12 12 12 11 12 11 10 8 8 7 6 5 4 4 3 3 3 3 3 5 6 8 10 10 11 11 11 11 12 13 15
13 13 14 15 15 15 15 15 16 16 15 14 13 13 12 12 11 10 9 8 7 6 5 5 4 4 3 3 3 3 4 5 7 9 11 12 13 13 13 13 13 15
10 12 13 14 15 16 17 17 18 18 17 16 15 14 13 13 12 11 9 9 8 6 6 6 6 5 4 4 4 5 6 6 7 9 11 12 14 14 15 14 14 15
11 12 13 14 15 16 17 18 19 20 20 18 15 15 15 14 12 11 11 10 8 7 7 8 7 6 5 5 6 7 8 8 8 8 9 11 12 13 14 14 14 14
12 12 13 14 15 16 17 18 19 19 20 19 17 17 17 15 13 12 11 11 9 9 9 9 8 7 6 7 7 9 10 11 10 9 8 8 9 10 11 13 14 15
13 13 13 14 15 16 16 17 17 18 19 20 19 19 17 16 15 14 12 12 11 11 10 9 9 9 9 9 9 10 12 12 12 10 9 8 9 9 11 13 14 16
14 14 15 15 16 17 16 15 16 17 19 21 20 19 18 17 17 16 14 13 12 12 12 11 11 11 11 11 12 12 13 14 13 13 12 11 11 12 13 15 16 18
16 17 17 17 17 17 17 16 16 17 19 21 21 19 19 18 17 16 15 15 15 14 13 12 13 14 14 13 13 14 14 15 16 17 17 16 16 16 16 18 19 20
19 18 18 17 16 17 17 17 17 17 19 21 21 19 18 17 17 17 16 17 17 16 13 12 13 14 14 13 13 14 15 16 18 20 22 21 21 20 20 20 21 21
22 20 18 17 17 16 16 17 18 19 20 21 21 20 19 18 18 17 17 17 17 17 15 14 14 14 13 12 13 15 17 18 20 22 23 24 25 25 26 25 25 25
24 22 19 18 19 17 16 17 19 20 21 22 21 21 20 19 19 18 17 17 16 16 16 15 14 14 14 14 15 18 19 21 22 23 23 24 25 27 28 28 28 29
26 24 20 19 20 20 18 18 19 20 22 22 21 21 21 20 19 17 16 16 16 16 16 15 14 14 15 17 19 20 22 23 23 23 22 23 25 26 27 28 29 31

ECMWFNIL_500_spd_042.txt.gz
Wind_Speed
14 14 15 15 15 14 14 14 13 12 11 10 9 8 8 7 6 6 4 3 2 1 1 1 1 3 4 5 5 5 6 6 6 6 5 5 5 4 4 4 4 4
16 16 16 16 15 15 14 14 14 13 12 11 9 8 8 7 6 6 5 3 3 3 3 3 3 3 4 5 5 5 5 5 6 6 6 6 6 5 5 5 5 5
18 18 17 17 17 16 16 15 14 13 12 11 9 9 8 7 6 5 5 5 5 6 6 7 7 7 7 7 7 7 6 5 5 5 6 6 6 6 6 6 6 6
19 19 19 18 18 17 16 15 14 14 12 11 10 10 9 8 7 6 6 6 7 8 8 9 10 10 10 9 9 9 8 8 7 7 7 7 7 7 8 7 7 7
20 20 20 19 19 17 16 15 15 14 13 12 11 10 10 9 8 7 7 7 8 8 9 9 10 10 11 11 11 11 10 10 9 9 9 9 9 9 9 9 9 9
21 20 20 20 19 18 17 17 16 15 14 13 11 10 9 8 7 7 7 8 8 9 10 10 10 10 11 11 12 12 11 11 11 10 10 10 10 10 10 10 10 11
21 21 20 20 19 19 19 18 17 15 14 13 11 10 8 8 8 8 9 9 10 11 11 12 12 11 12 12 12 12 11 11 11 11 10 10 11 11 11 11 11 11
22 22 21 20 19 19 19 18 17 16 14 13 12 11 9 9 9 9 9 10 10 11 11 12 13 12 12 12 12 11 11 11 11 11 11 10 11 11 11 11 11 11
22 22 21 20 19 19 18 17 17 16 15 14 13 11 10 10 9 9 9 9 10 10 11 12 12 13 12 12 12 11 11 10 10 10 10 10 11 11 11 11 11 12
22 21 21 20 20 19 18 17 17 16 14 14 12 11 11 10 9 9 8 9 9 10 10 10 11 11 11 11 10 10 10 10 10 10 10 10 11 11 11 11 11 12
21 20 21 21 21 20 19 18 16 15 14 13 12 12 11 10 9 8 9 9 9 9 9 8 8 9 9 9 9 9 9 10 10 11 11 10 10 10 10 10 11 11
20 20 21 21 21 20 19 17 15 14 13 12 12 12 11 10 9 9 9 8 7 7 7 7 8 8 8 7 7 7 8 8 9 9 8 7 6 5 5 6 7 8
21 21 22 22 22 21 19 17 15 14 13 12 12 12 11 10 10 9 8 7 7 6 7 7 8 8 8 7 6 5 4 4 3 2 2 2 2 3 3 3 4 6
22 22 23 23 22 20 18 17 16 14 13 12 12 11 11 11 10 9 8 7 7 7 7 7 7 8 7 6 5 4 3 3 3 4 3 3 4 5 6 6 6 6
23 23 23 22 21 19 18 17 16 15 14 13 12 12 12 12 11 9 8 8 8 7 7 7 7 7 7 6 5 4 3 4 4 5 6 6 6 7 7 7 7 7
23 23 22 21 20 19 18 17 16 15 14 13 13 13 13 12 11 10 9 9 9 8 8 7 7 7 7 6 6 5 4 4 4 4 5 6 6 6 6 6 6 6
22 22 21 21 20 19 19 18 17 17 16 15 15 14 14 13 13 11 10 10 9 8 8 8 7 7 7 7 7 6 5 4 3 3 3 4 4 4 3 3 3 4
20 20 20 20 20 20 19 19 19 18 17 17 16 16 15 15 14 13 11 11 9 9 9 9 8 8 8 8 8 7 6 5 4 3 2 1 1 1 2 3 3 4
14 15 16 16 16 17 17 18 17 17 17 18 18 18 18 17 16 15 13 11 10 10 10 10 10 9 10 10 9 8 7 6 5 4 2 1 1 2 3 5 5 7
12 11 12 13 14 15 15 15 15 16 18 19 20 21 20 19 17 16 15 13 11 12 12 12 11 11 11 12 11 10 8 7 6 6 5 4 4 5 6 7 8 10
12 11 12 12 13 14 14 14 15 16 17 19 20 22 22 21 20 19 18 15 14 15 15 14 13 14 14 14 14 13 12 10 9 8 8 8 7 7 8 9 11 12
13 13 12 12 12 13 13 14 16 17 17 18 20 22 23 24 23 21 19 17 16 16 15 15 16 17 17 17 17 16 15 13 12 11 11 10 9 10 11 11 13 14
16 15 14 13 13 12 12 13 15 17 18 18 19 21 23 24 23 21 20 19 18 17 16 16 19 20 20 20 19 18 17 15 14 13 12 11 11 12 13 13 15 16
18 17 16 15 15 14 13 14 15 16 18 19 19 20 22 24 24 23 22 21 19 18 18 19 22 23 22 21 20 20 19 18 17 15 13 13 14 15 16 17 17 18
20 19 19 18 17 16 16 16 17 17 17 19 20 20 21 23 24 24 23 21 19 19 20 21 23 25 24 22 22 22 21 20 18 16 15 15 17 19 20 21 21 21
21 21 21 21 20 19 19 20 20 18 17 17 19 20 22 23 24 23 21 20 20 20 22 22 23 24 24 23 24 24 22 21 19 18 17 18 20 21 22 22 23 23

ECMWFNIL_500_spd_045.txt.gz
Wind_Speed
17 17 16 17 18 18 17 16 16 15 14 14 13 11 10 9 9 9 8 7 6 5 3 2 2 2 2 3 4 5 6 7 7 7 7 7 7 7 6 5 5 5
18 18 17 17 18 18 18 18 18 16 15 15 14 12 11 11 10 9 8 7 6 5 4 3 2 2 2 2 2 2 3 4 5 6 6 7 8 9 9 8 8 7
20 19 18 18 19 19 20 20 19 17 16 14 14 13 13 12 11 10 9 7 7 6 5 5 5 5 5 5 5 5 4 4 4 4 4 5 6 7 8 9 9 9
22 21 20 20 20 21 22 21 20 18 17 16 16 15 14 13 12 11 10 9 8 8 7 7 7 7 7 7 7 7 6 6 7 6 6 5 5 5 6 7 8 9
23 23 22 22 22 22 22 21 20 19 18 18 18 17 16 14 13 12 11 10 10 9 9 8 8 8 8 8 7 7 7 7 7 8 8 7 7 6 6 6 7 7
24 24 23 23 23 23 22 21 21 21 20 20 19 18 16 15 13 12 12 11 11 10 9 8 8 8 8 8 7 7 7 7 7 7 7 8 7 7 7 6 6 7
25 24 24 23 23 22 22 22 21 21 20 20 19 18 16 14 13 12 12 11 11 10 10 9 9 9 9 9 8 7 7 7 7 6 6 7 7 7 7 6 7 7
26 25 25 24 23 23 23 22 21 20 20 19 18 17 16 14 14 13 12 12 11 11 10 10 10 10 10 10 9 8 8 7 7 6 6 6 6 6 6 6 7 7
26 26 26 25 24 24 23 22 21 21 20 19 18 17 16 15 15 14 13 12 12 11 11 10 11 11 11 11 10 9 9 8 7 7 6 6 6 6 7 7 7 7
27 27 27 26 26 25 24 23 22 21 20 19 19 18 17 16 15 14 13 12 12 12 11 11 11 11 11 10 10 10 9 9 8 8 8 7 7 7 7 7 7 7
27 27 27 27 27 26 26 25 24 22 21 21 20 18 18 17 15 14 14 13 13 12 12 11 10 10 10 9 10 10 10 10 10 9 9 8 8 7 6 6 6 5
26 26 25 26 26 26 26 26 25 24 23 22 21 19 19 18 16 15 15 14 13 12 11 10 10 10 10 10 10 11 11 12 11 10 9 8 6 5 5 5 4 4
27 26 25 25 26 26 26 26 25 24 24 22 21 20 20 18 17 17 16 15 13 12 11 11 10 10 10 10 11 11 12 12 11 10 8 6 6 6 6 5 5 4
28 28 27 27 27 27 27 26 25 24 23 22 21 21 20 19 19 18 16 14 13 12 11 11 11 10 10 10 10 11 11 11 11 9 8 8 8 7 6 5 5 4
29 28 28 28 29 28 27 26 25 24 23 22 22 21 21 21 20 18 16 14 13 13 12 11 11 10 10 10 10 11 11 12 11 10 10 10 10 9 8 6 5 4
29 29 29 29 29 27 27 26 25 24 24 23 22 22 21 21 20 17 15 14 14 13 12 11 11 10 10 10 11 11 12 13 13 13 12 12 11 9 8 6 5 3
29 28 28 28 28 28 27 26 26 25 24 23 22 22 21 21 19 17 16 15 15 14 13 12 11 11 11 12 13 13 14 14 14 14 13 12 11 10 8 6 4 3
28 28 28 28 28 28 28 27 27 26 25 24 23 22 22 20 19 17 17 16 15 14 14 13 12 12 13 14 15 15 15 14 14 13 13 12 11 10 8 6 5 4
28 28 28 29 29 29 29 28 27 26 25 24 24 23 22 20 19 19 19 18 16 15 15 15 14 14 14 15 16 16 15 15 14 14 13 12 11 10 9 7 6 6
27 26 27 27 28 28 28 27 27 26 25 25 25 24 22 20 20 20 20 19 17 17 18 17 17 16 16 16 17 17 16 16 15 15 15 14 14 12 10 9 8 8
25 25 25 25 26 26 26 25 25 25 25 25 25 24 22 22 23 22 22 21 20 20 20 19 18 18 18 18 19 19 18 16 16 15 15 15 14 14 12 11 11 10
22 22 22 22 22 22 21 21 21 22 23 23 23 23 23 24 24 24 24 24 23 22 21 20 20 20 19 20 20 20 19 17 16 16 16 15 15 15 14 13 13 13
21 20 20 19 18 18 17 18 19 20 21 22 22 22 23 24 25 26 27 27 26 24 23 22 22 22 21 22 22 22 21 19 18 19 17 16 16 17 17 16 15 15
21 21 20 19 18 17 16 17 17 18 20 20 21 21 22 23 25 28 29 29 28 26 25 24 24 24 24 24 24 24 23 21 21 21 20 18 18 19 20 19 17 16
23 22 21 20 18 17 16 16 17 17 18 19 20 21 21 23 25 27 29 30 30 28 27 26 27 27 27 26 26 26 25 24 24 24 22 20 20 21 22 21 18 17
24 24 23 22 21 20 19 18 18 17 17 18 19 20 22 23 25 25 27 29 31 30 29 28 28 29 28 27 28 29 28 27 26 25 23 22 22 23 23 21 19 18

ECMWFNIL_500_spd_048.txt.gz
Wind_Speed
18 18 18 19 19 18 17 15 14 15 15 15 14 13 13 13 13 13 13 12 12 11 10 9 8 8 7 7 8 8 9 10 11 11 11 11 11 10 9 8 7 5
20 19 19 18 18 17 17 16 16 15 15 15 14 13 13 14 14 13 13 12 11 10 8 7 5 4 3 3 3 3 3 4 5 6 7 8 8 8 8 8 8 7
22 21 20 19 18 18 18 18 18 17 16 15 14 13 14 15 14 14 13 12 10 9 8 6 5 3 2 2 1 1 1 1 1 1 2 3 4 4 5 5 5 6
24 23 22 21 20 20 20 20 20 19 16 15 15 15 15 15 15 14 13 11 10 9 8 6 5 4 4 4 4 3 3 3 3 3 2 2 1 2 2 3 3 3
27 26 25 23 22 21 21 21 21 20 18 17 17 17 16 16 15 14 13 11 10 9 8 7 6 5 5 5 5 5 5 4 4 4 4 4 3 3 3 3 3 2
29 28 27 25 24 23 22 23 23 22 19 19 18 18 17 16 15 14 13 12 11 10 9 8 7 7 6 6 6 6 5 5 5 5 5 5 4 4 4 4 4 3
30 29 28 26 25 24 24 25 25 23 21 20 20 19 18 16 15 15 14 13 12 11 10 9 9 8 8 7 7 7 7 6 6 6 6 5 5 5 5 4 4 4
32 31 29 27 26 25 25 25 25 24 23 22 21 20 19 18 16 16 15 14 13 12 12 11 10 10 9 9 9 9 8 8 7 7 7 7 7 6 6 5 5 4
33 32 30 28 26 26 26 26 26 25 24 22 22 22 20 19 18 17 16 15 14 13 13 12 12 11 11 11 10 10 10 10 10 9 9 8 8 7 6 6 5 4
33 32 30 28 27 27 27 27 27 26 25 24 24 23 21 20 19 18 16 15 15 15 14 14 14 13 13 13 12 12 12 12 11 11 11 10 10 9 8 7 6 5
32 31 30 29 28 28 28 29 28 27 25 25 25 24 22 21 20 19 17 16 16 16 16 15 15 14 14 14 14 14 14 13 13 13 13 12 11 10 9 8 6 6
30 30 29 29 29 30 31 31 30 28 27 26 26 25 24 23 21 20 18 18 18 18 17 16 15 15 14 14 15 15 15 15 15 15 14 14 13 11 9 9 8 7
28 29 29 30 31 32 32 32 31 29 28 28 27 26 25 24 23 22 20 20 20 18 17 16 15 15 15 15 15 15 16 16 16 16 15 15 13 12 11 10 9 9
28 29 30 31 32 33 34 33 31 30 29 29 28 27 27 25 24 23 22 22 21 18 17 16 15 15 15 15 15 16 16 16 16 16 16 15 14 13 12 11 11 11
30 31 31 31 33 34 33 32 31 31 30 30 29 28 28 27 26 24 23 22 20 18 17 16 16 16 16 15 15 16 16 16 16 16 15 15 14 14 13 13 13 12
32 32 32 32 33 33 32 32 32 32 31 31 30 30 29 28 26 24 24 22 20 18 17 17 16 17 16 15 15 16 16 16 16 16 16 15 15 15 14 14 14 13
34 34 33 33 33 33 32 32 32 32 32 32 31 30 29 27 26 24 24 22 20 18 18 17 17 17 16 15 16 16 16 16 17 17 16 16 15 15 15 14 14 13
34 34 34 34 34 33 33 33 33 32 32 32 31 30 29 27 25 24 24 22 20 19 18 18 18 18 16 16 16 16 16 17 18 17 17 16 16 15 14 14 13 12
34 34 35 34 34 34 33 32 32 31 30 30 30 29 28 26 25 24 23 22 20 19 19 19 19 19 17 17 17 17 17 18 18 18 18 17 16 15 15 14 13 12
33 34 34 34 33 33 32 31 29 29 29 29 29 28 26 25 24 24 23 22 21 20 20 20 20 19 19 18 18 18 19 19 19 19 18 17 16 16 16 16 15 13
32 32 32 32 32 31 30 29 28 28 28 28 27 26 25 25 24 23 22 22 21 22 21 21 21 21 20 19 19 19 20 20 20 19 18 17 17 17 17 17 16 14
30 31 31 31 30 30 29 28 27 27 27 27 27 26 25 25 24 23 22 22 22 22 21 21 22 22 21 20 20 21 21 20 20 19 18 19 19 18 18 18 17 16
28 28 28 28 28 27 27 27 27 27 27 27 26 26 26 25 25 24 24 24 24 23 22 23 25 24 23 22 23 23 23 21 21 20 20 20 20 20 20 20 19 18
27 27 27 26 26 25 25 25 25 26 26 26 26 26 26 26 26 26 26 26 25 24 24 25 27 27 26 25 26 26 24 23 22 22 21 21 21 21 22 21 21 21
28 27 26 25 25 24 24 24 24 24 25 25 25 26 26 27 27 27 26 26 26 27 27 27 28 29 29 27 27 28 26 24 24 23 23 22 22 22 23 22 21 22
26 26 25 25 24 24 23 23 23 24 24 24 24 24 25 26 25 25 26 26 27 28 28 29 30 31 31 30 30 29 28 27 25 24 24 23 24 25 24 23 22 24

ECMWFNIL_500_spd_051.txt.gz
Wind_Speed
21 20 21 21 19 18 16 14 14 14 14 14 13 12 12 13 12 12 13 14 15 15 15 15 15 14 14 14 14 14 14 14 13 13 12 11 10 8 7 6 5 4
22 22 22 21 20 18 17 15 15 14 14 14 12 11 11 13 13 14 14 15 15 15 14 13 12 11 11 11 11 11 12 12 11 11 10 9 9 8 7 6 5 5
24 24 24 23 21 20 19 17 16 15 14 14 12 11 12 14 15 15 15 15 14 13 12 11 9 8 7 7 7 7 7 8 7 7 7 6 6 5 5 4 4 4
27 26 26 24 23 22 21 19 18 17 15 14 13 13 14 15 16 16 16 15 13 12 10 9 7 6 5 5 5 4 5 5 5 5 5 5 4 4 3 3 2 2
29 29 28 26 25 23 21 20 19 19 17 17 16 16 16 17 17 18 17 16 14 12 10 8 7 5 5 5 4 4 4 4 5 5 5 5 5 5 5 4 3 2
32 31 30 28 26 24 23 22 22 21 20 18 17 18 18 18 19 19 18 16 14 12 11 9 7 6 6 6 5 5 5 5 5 6 6 6 6 6 6 5 4 4
33 32 31 29 28 26 25 25 24 23 22 20 19 20 20 19 19 19 18 16 14 12 11 9 8 7 7 7 7 7 6 7 7 8 7 7 7 7 7 6 5 5
35 34 33 31 29 28 27 26 26 25 24 22 21 21 21 21 20 19 18 16 14 13 12 10 9 9 9 9 9 8 8 8 9 9 9 8 9 8 7 6 6 6
36 35 34 33 31 29 28 28 28 27 26 23 23 23 23 22 21 20 18 17 15 14 13 12 11 11 10 11 11 10 10 11 11 11 10 10 10 9 8 8 8 8
37 37 36 34 32 30 29 30 30 29 27 26 25 25 24 24 23 21 20 18 17 16 15 15 14 13 12 12 12 11 12 12 13 14 13 12 11 10 9 9 9 9
37 37 36 34 32 31 31 31 31 30 29 28 27 27 26 26 24 23 21 20 19 18 17 17 15 14 13 13 13 12 12 13 14 15 15 14 13 12 11 11 10 10
36 36 35 34 33 32 32 33 32 32 31 30 29 29 28 27 26 25 23 23 21 20 19 18 16 15 14 14 13 13 13 14 15 17 17 16 15 13 12 12 11 11
35 35 35 35 35 34 34 34 33 33 32 31 31 31 30 29 27 26 26 25 23 21 20 19 17 15 15 14 14 14 15 16 16 18 18 18 17 15 14 13 12 12
33 35 36 37 36 36 35 35 34 34 34 33 32 32 31 30 29 28 27 26 23 21 20 19 17 15 15 15 15 16 16 17 17 18 18 18 17 16 15 14 14 13
33 35 36 37 37 36 36 35 35 34 34 34 33 32 32 32 31 30 28 26 23 22 21 19 17 15 15 16 16 17 17 17 17 17 17 17 17 16 16 16 15 14
34 35 36 36 36 36 35 35 35 35 35 34 33 33 33 33 32 30 28 26 24 23 22 19 17 16 17 17 16 16 17 16 16 17 17 17 17 17 17 16 15 14
35 35 35 35 36 36 35 35 35 36 36 35 34 33 33 33 31 30 28 27 25 24 22 20 18 18 18 18 17 16 16 16 16 17 17 16 17 17 17 16 15 14
36 35 34 35 35 35 35 35 36 37 36 35 34 33 33 32 31 30 29 28 26 25 23 20 19 20 19 18 17 16 15 16 16 17 17 17 17 17 17 16 15 15
36 36 35 35 35 35 35 36 36 36 36 35 34 34 33 32 31 31 30 29 27 26 23 21 21 21 20 19 17 16 16 16 16 17 17 17 17 17 17 16 16 16
37 36 36 36 36 36 36 36 35 35 35 35 35 34 33 32 32 31 30 29 27 26 24 22 22 22 21 20 18 18 17 17 17 18 17 17 17 17 17 17 17 16
37 36 36 37 37 37 36 36 35 35 36 35 35 34 33 32 32 32 30 29 27 26 24 23 23 23 22 21 20 19 19 18 18 18 17 17 18 17 17 18 18 17
36 36 36 36 37 36 36 35 35 35 35 34 33 32 32 32 32 31 29 28 26 25 24 23 24 24 23 22 21 20 20 20 19 19 18 18 18 18 18 19 19 17
34 34 35 35 35 35 34 35 35 34 34 32 31 31 31 31 30 30 29 27 26 25 24 24 25 25 24 23 23 22 21 20 20 19 18 18 19 19 19 20 19 18
32 32 33 33 33 33 34 34 34 33 32 31 30 30 30 30 30 30 29 28 26 26 25 25 26 26 25 25 24 23 23 22 20 20 19 19 19 20 20 20 20 20
31 31 31 32 32 32 33 33 33 33 32 31 30 30 30 31 31 30 28 27 26 26 26 26 27 27 27 27 26 26 25 23 21 20 19 19 20 21 21 22 22 22
31 31 31 31 31 32 33 33 33 33 32 30 30 30 30 30 29 28 27 27 27 27 27 27 28 29 29 29 29 28 27 26 23 20 19 20 22 23 23 23 23 23

ECMWFNIL_500_spd_054.txt.gz
Wind_Speed
25 23 22 22 22 20 18 17 17 17 17 17 17 16 15 15 15 14 14 13 13 14 13 13 13 12 12 11 11 11 10 10 9 8 8 7 6 5 5 4 4 4
26 24 24 23 23 21 20 19 18 18 18 17 16 15 15 16 16 16 15 15 15 15 15 14 14 13 13 13 12 12 11 10 9 8 7 7 6 5 4 4 3 3
27 26 25 25 24 23 22 20 19 19 19 17 16 15 15 16 17 17 17 17 18 17 17 16 15 15 14 13 12 11 10 9 8 7 6 5 5 4 4 3 3 2
28 26 27 27 26 25 23 22 21 20 19 18 16 16 16 17 18 18 18 19 20 19 18 16 15 13 12 10 9 8 7 6 5 5 4 4 3 3 2 2 1 0
29 28 29 29 28 26 24 22 22 21 19 19 18 17 18 19 19 20 21 21 21 19 18 15 13 11 9 8 7 6 6 6 6 6 6 6 6 5 4 3 3 2
31 30 30 30 28 27 25 24 24 22 21 20 19 19 19 20 21 22 23 22 21 19 17 14 12 9 8 7 6 6 6 7 7 7 7 8 8 7 6 6 5 4
33 32 32 31 29 27 26 26 25 23 22 21 20 20 21 21 22 23 23 23 21 19 16 14 11 9 7 7 7 7 7 7 8 8 9 9 9 9 8 7 7 7
35 34 34 33 31 29 28 27 25 24 24 22 21 22 22 22 23 24 23 22 21 19 16 14 12 9 8 8 8 8 8 9 9 10 10 10 10 10 9 8 8 9
36 34 34 34 32 30 29 28 27 27 25 24 23 23 24 23 24 24 24 23 21 19 17 15 13 11 10 9 9 9 9 9 10 10 10 11 11 11 9 9 10 10
37 35 35 34 33 31 30 30 29 29 27 26 25 25 25 25 25 25 25 23 22 20 18 17 15 13 11 11 10 9 9 10 10 11 11 12 13 12 11 10 11 10
37 36 36 35 34 33 32 31 31 30 29 28 27 26 27 27 26 26 26 25 23 22 20 19 16 14 12 12 11 10 10 10 11 12 13 13 13 13 12 12 12 11
37 36 36 36 36 35 34 33 32 32 31 30 29 28 28 28 28 27 27 26 26 24 22 20 17 15 13 13 11 10 10 11 12 14 15 15 14 14 14 13 13 11
36 37 37 37 37 36 35 34 33 33 33 32 31 30 30 29 29 28 28 28 27 26 23 21 18 16 14 13 12 11 11 12 13 14 15 16 15 15 15 14 13 13
35 37 37 38 38 38 37 35 34 34 34 34 33 32 31 31 31 30 30 30 28 26 24 21 18 16 15 15 13 13 13 13 14 14 15 15 15 15 15 14 14 13
34 36 37 38 39 39 38 37 35 35 35 35 34 33 33 33 32 32 31 30 29 27 25 22 19 18 17 16 15 14 14 14 13 14 14 14 14 15 15 15 14 14
34 34 36 38 39 39 39 38 37 36 35 35 34 34 34 34 34 33 32 31 30 28 25 22 21 20 19 18 16 15 15 14 13 13 14 14 13 14 14 14 14 14
35 34 35 37 38 39 39 39 38 37 36 35 35 35 35 35 35 34 33 33 31 29 26 23 22 22 21 19 17 16 15 14 14 14 13 13 13 13 14 14 14 14
36 35 36 36 37 38 39 39 39 38 37 35 35 35 35 35 35 35 35 34 32 30 27 25 23 23 22 20 18 17 16 15 14 14 14 13 13 13 13 14 14 14
37 36 36 36 36 37 38 39 39 38 36 35 35 35 35 35 35 35 35 35 33 31 28 27 25 24 22 21 20 18 16 15 15 15 14 14 13 13 13 13 14 14
37 37 36 37 37 37 38 38 38 37 36 35 35 35 34 35 35 35 35 35 34 32 30 29 27 25 23 22 21 19 17 16 16 16 15 14 14 13 13 13 14 14
36 36 36 37 37 38 38 37 37 37 36 36 35 35 34 34 35 35 35 34 33 33 31 30 28 26 24 23 22 21 18 17 16 16 16 15 14 14 14 14 14 14
35 36 36 37 37 38 37 37 37 37 37 36 36 35 35 35 35 35 34 34 33 33 32 30 28 27 25 24 23 22 20 18 17 17 16 16 15 15 15 15 15 15
34 35 35 36 37 37 37 36 36 37 37 37 36 35 34 34 34 34 34 33 33 33 31 30 29 28 26 25 25 24 21 19 18 17 17 16 16 16 16 15 15 16
33 34 35 36 36 36 36 36 36 36 37 36 35 34 34 34 34 34 34 33 33 32 32 31 30 29 27 26 26 24 22 20 19 18 17 16 17 17 16 16 16 17
33 33 35 35 35 35 36 36 36 36 36 35 34 34 34 34 34 33 33 33 33 32 31 31 31 30 28 27 26 25 23 22 21 20 18 17 17 17 17 16 17 18
33 33 34 34 34 35 35 36 36 36 36 34 33 34 34 33 33 32 32 32 32 32 31 31 31 31 29 27 26 25 24 23 22 21 20 19 19 18 18 18 18 20

ECMWFNIL_500_spd_057.txt.gz
Wind_Speed
24 22 21 21 21 21 19 18 18 18 18 17 17 16 15 14 13 13 13 12 12 12 12 11 10 10 9 9 8 8 8 7 6 5 4 3 2 2 1 1 1 1
25 23 22 22 21 21 20 19 19 19 19 19 18 17 16 15 15 14 14 13 13 13 13 12 11 10 9 9 8 7 7 6 5 4 3 2 2 2 1 1 1 0
26 24 23 22 22 22 21 20 20 20 20 20 19 17 17 16 16 15 15 15 14 14 13 12 11 10 9 9 8 7 7 6 5 5 4 4 3 3 3 3 3 2
27 25 24 24 24 23 22 21 20 20 20 20 19 18 18 17 17 17 16 16 15 15 14 13 12 11 11 10 9 8 7 6 5 4 4 3 2 1 1 2 3 3
28 27 26 25 25 24 23 21 21 21 20 20 19 18 18 18 18 18 17 17 16 16 15 14 14 13 12 10 9 7 6 5 4 4 3 3 3 2 2 3 4 5
29 28 27 27 26 25 24 22 22 21 21 20 20 18 18 18 19 19 18 18 18 17 17 16 15 13 11 10 8 7 6 6 5 5 5 5 5 5 4 4 5 6
31 29 29 29 28 27 25 24 23 22 22 21 20 19 18 19 19 19 19 19 19 19 18 17 15 13 11 10 9 8 7 7 7 7 6 6 6 6 6 5 6 7
34 32 31 30 29 28 27 26 24 23 22 21 20 19 19 19 19 20 20 20 21 21 20 18 16 14 12 10 10 9 9 8 8 8 7 7 8 7 7 6 7 8
36 34 32 31 30 29 28 27 26 25 24 22 21 21 21 21 20 21 21 22 22 22 21 19 17 15 13 12 11 10 10 9 9 9 8 8 8 8 8 7 7 8
37 35 33 32 30 30 29 28 28 26 25 24 24 24 24 23 22 22 22 23 23 24 23 21 18 16 14 13 12 11 10 10 10 10 10 9 9 9 8 8 8 8
37 37 35 33 31 31 31 30 29 28 27 26 26 26 25 25 23 23 23 24 25 25 25 23 21 18 15 13 12 11 11 11 11 11 11 10 9 9 9 9 8 8
36 37 35 34 33 32 32 32 31 29 29 28 28 27 26 26 25 24 25 26 27 27 27 25 23 20 17 14 13 12 12 12 11 12 12 11 10 10 10 9 9 8
35 35 35 35 34 34 34 33 32 31 30 30 30 28 27 27 27 26 26 27 28 29 28 27 24 21 18 16 14 13 13 13 12 13 13 12 11 11 10 10 9 9
34 35 35 35 35 35 35 35 33 32 31 31 31 29 29 28 28 28 28 28 29 30 29 28 25 22 19 17 15 15 14 14 13 13 14 13 12 11 11 10 9 9
33 34 35 35 36 36 36 35 35 34 32 32 31 30 30 30 30 30 29 29 29 30 29 28 25 22 20 18 17 16 15 14 13 13 14 14 13 11 10 10 9 10
33 34 34 34 35 36 36 36 36 36 34 33 31 31 32 31 31 31 30 30 30 30 29 27 25 23 21 20 19 17 16 15 14 14 14 13 13 12 11 11 10 9
33 33 33 33 34 35 36 36 37 36 36 34 33 33 32 32 32 32 31 31 31 30 29 27 25 24 23 22 20 18 16 15 15 15 14 13 13 13 12 12 11 10
32 32 32 33 33 33 34 36 37 37 36 36 35 34 33 32 32 32 32 32 32 31 30 27 26 25 24 23 21 19 16 16 15 15 14 13 13 13 13 13 12 11
31 32 32 32 32 32 33 34 35 36 36 36 36 35 35 33 32 32 33 33 33 32 31 29 28 26 25 24 23 20 18 16 16 15 14 13 13 13 13 13 13 12
29 31 31 32 32 32 32 33 33 34 35 36 36 36 35 34 33 32 32 33 33 33 33 31 30 27 26 25 24 22 19 17 16 15 14 14 14 14 14 13 13 13
27 29 30 31 32 32 32 32 32 32 34 35 36 36 35 34 34 33 32 32 33 33 34 33 31 29 28 27 25 23 21 19 17 15 15 15 15 15 14 14 14 14
25 27 29 29 30 31 31 31 31 31 32 34 35 35 35 35 34 33 32 32 32 32 33 33 33 31 29 29 28 25 22 20 17 16 16 16 16 16 16 15 15 14
26 26 27 28 28 29 30 31 31 31 32 33 34 34 35 35 35 34 33 32 32 32 32 32 32 31 31 31 30 26 23 21 19 17 17 17 18 18 17 16 15 15
28 27 27 27 27 28 29 31 32 32 32 32 33 34 34 34 35 35 34 33 33 32 31 32 32 31 31 31 30 27 24 22 20 19 19 19 20 19 19 17 17 16
30 28 27 26 26 27 29 30 32 32 32 32 33 34 34 35 35 35 34 33 33 32 31 31 32 31 30 30 30 27 24 23 22 21 21 21 21 21 21 19 18 18
31 30 27 25 25 27 29 30 31 33 33 33 33 34 34 34 34 34 33 33 33 32 31 31 31 30 29 29 28 26 25 24 24 23 22 23 23 23 22 21 21 20

ECMWFNIL_500_spd_060.txt.gz
Wind_Speed
19 18 18 19 19 19 19 18 17 17 16 15 14 13 12 11 10 9 9 8 8 7 7 6 6 6 6 6 5 5 4 3 2 1 2 3 3 3 4 3 3 2
20 19 18 19 20 20 19 19 19 18 18 17 16 15 14 12 12 11 10 9 9 9 8 7 6 6 6 5 5 4 3 1 1 2 4 5 6 6 6 6 6 5
21 20 19 19 20 20 20 20 20 20 19 18 17 16 15 14 13 12 12 11 10 10 9 8 7 6 6 5 5 3 2 3 4 6 6 7 7 7 6 6 6 6
22 21 20 20 20 21 21 21 20 20 20 20 19 18 17 16 15 14 13 13 12 12 10 8 7 7 6 5 5 5 6 6 6 6 5 5 5 5 5 5 6 6
24 22 22 21 21 21 21 20 20 20 21 20 20 19 18 17 17 16 16 15 14 13 10 8 8 7 6 7 7 7 7 6 5 4 2 2 3 3 4 4 4 5
26 24 23 23 22 22 21 21 20 20 20 21 20 20 19 18 18 18 18 17 15 13 11 9 9 8 9 9 8 7 6 5 3 2 1 0 1 2 3 3 4 4
28 26 24 24 24 23 22 21 21 20 20 20 20 20 19 19 19 19 19 18 16 14 12 11 11 11 11 10 8 7 6 5 4 3 2 1 1 2 3 3 4 4
29 28 26 25 25 24 23 22 21 21 20 20 19 19 19 19 19 19 19 18 16 14 13 13 13 13 12 11 9 8 7 6 5 3 3 3 3 2 3 4 4 4
31 30 28 27 26 25 24 23 23 22 21 20 19 19 19 19 19 18 18 17 16 15 15 15 15 14 13 12 11 9 8 7 6 4 4 4 4 4 4 4 5 4
30 31 30 28 26 26 25 24 24 23 21 20 20 20 20 20 19 18 17 17 16 16 17 17 17 16 15 13 12 10 9 8 8 6 5 5 5 5 5 5 5 5
28 30 31 30 28 26 26 26 25 24 22 21 20 20 20 20 20 19 18 17 17 17 18 19 19 18 16 15 13 11 10 10 9 9 7 5 5 6 6 6 6 6
27 28 29 30 29 28 27 27 26 25 24 23 22 21 21 21 20 19 19 18 18 19 20 21 21 20 18 16 15 13 11 11 11 10 8 6 5 5 6 6 6 6
26 27 28 29 29 30 30 29 28 27 25 24 23 22 21 21 21 20 20 20 20 21 22 22 22 21 20 18 16 14 13 12 12 11 10 8 6 5 6 6 6 6
26 26 27 28 29 31 31 31 30 28 27 26 25 23 22 22 22 22 21 21 21 21 22 23 23 22 22 20 18 16 15 14 13 12 11 9 7 6 6 7 7 7
24 26 27 27 28 30 30 31 31 30 28 27 26 25 24 23 23 23 23 23 22 22 22 23 23 23 22 22 20 18 17 15 13 12 11 10 9 8 7 7 8 8
22 24 26 26 27 27 28 30 31 31 30 28 27 27 26 25 24 24 24 24 24 23 22 22 23 23 23 23 22 20 18 16 14 12 11 11 10 10 8 8 8 9
19 21 24 25 25 26 26 27 29 31 31 30 29 28 28 26 25 25 25 25 26 25 24 22 23 24 24 24 24 22 19 17 15 14 12 11 11 11 10 9 9 9
17 19 21 23 24 25 25 25 27 29 31 30 29 29 29 28 27 26 25 26 26 26 26 24 24 24 24 25 25 24 22 18 16 15 14 12 11 11 11 10 9 9
17 17 19 21 22 23 24 24 24 25 27 29 29 30 30 30 29 28 27 27 27 26 27 26 25 25 24 25 25 25 23 20 17 16 15 14 12 11 12 11 11 10
17 16 17 19 20 22 22 22 22 22 24 26 27 28 30 30 30 30 29 29 28 27 27 27 27 26 25 26 26 26 24 22 19 17 16 15 14 13 13 13 12 12
18 16 16 17 19 20 20 20 21 21 22 23 24 25 27 29 30 31 31 30 30 29 28 27 27 27 27 27 27 26 25 23 21 19 17 17 16 15 15 15 14 13
18 17 16 17 18 18 19 19 20 20 21 22 23 23 24 26 28 29 30 31 31 31 29 28 28 27 27 28 28 28 27 25 23 21 20 19 19 18 17 16 15 14
19 18 17 17 17 18 18 18 20 20 20 21 22 23 23 24 26 27 28 29 31 31 30 29 29 28 27 28 29 30 28 26 24 23 22 21 21 20 19 18 17 16
21 20 18 18 18 18 17 18 19 20 21 21 22 23 24 24 26 27 27 28 29 30 31 30 30 29 27 28 29 30 28 26 26 25 23 23 23 22 21 20 18 17
23 22 20 19 19 19 19 19 19 20 22 22 23 23 24 25 26 27 27 27 28 29 30 30 30 29 28 28 28 29 28 27 26 26 25 24 24 23 22 20 19 18
24 23 22 21 21 21 21 21 21 21 22 23 24 24 25 25 26 26 27 27 27 28 29 29 29 28 27 27 28 28 28 27 26 26 26 26 26 24 23 21 20 19

ECMWFNIL_500_spd_063.txt.gz
Wind_Speed
16 16 16 16 17 17 16 16 15 15 14 13 12 11 10 9 8 7 6 5 4 3 2 1 1 1 1 2 2 3 4 5 5 6 6 6 6 6 6 7 6 6
17 16 16 16 17 17 17 17 16 16 15 15 13 12 11 10 9 8 8 6 5 4 3 2 2 1 1 1 2 4 5 7 8 8 9 9 9 8 8 8 8 7
18 17 17 16 17 17 18 18 17 17 17 16 14 14 13 12 11 10 9 8 7 6 4 3 2 2 1 1 3 6 8 10 11 11 10 10 9 8 8 8 8 8
19 18 17 17 17 18 18 18 18 18 17 16 16 16 15 14 13 11 10 10 9 7 5 3 3 2 0 2 5 9 11 12 12 11 9 8 7 7 6 6 6 7
21 19 18 18 18 18 17 17 17 17 17 17 17 17 16 15 14 13 12 11 10 9 6 4 3 3 2 4 8 11 12 11 10 9 8 7 6 6 5 5 5 5
23 21 19 19 19 18 18 17 17 18 17 17 17 17 17 16 16 15 14 13 12 10 7 5 5 4 5 7 10 10 10 10 9 7 6 5 5 5 4 4 4 4
24 23 21 20 19 19 18 18 18 18 17 17 17 17 17 17 17 16 15 15 13 11 8 7 6 6 7 9 10 9 8 8 7 6 5 4 4 3 3 3 3 3
25 25 23 21 20 20 19 19 18 18 18 17 17 17 17 17 18 17 16 16 15 12 10 9 8 8 9 10 10 8 7 6 6 5 4 3 2 2 2 2 2 2
27 26 25 23 21 20 19 19 18 18 18 17 17 17 17 18 18 17 17 16 15 13 11 10 10 10 10 11 10 8 6 5 5 4 3 2 1 1 2 2 1 1
27 26 26 24 22 21 20 20 19 19 18 17 17 17 17 17 18 17 16 16 15 14 13 12 12 11 11 11 10 8 6 5 4 3 2 1 1 1 2 2 2 2
27 26 25 24 23 22 21 21 20 19 19 18 17 17 17 17 17 17 17 16 15 14 14 14 13 13 13 12 11 9 7 6 4 3 2 1 1 1 2 3 3 3
26 25 23 23 23 23 23 23 22 21 20 19 18 17 17 16 16 17 17 16 16 15 15 15 14 14 14 13 12 11 9 8 6 4 3 2 2 2 3 4 4 4
26 25 23 23 23 24 24 24 23 22 22 20 19 19 18 17 16 17 17 17 16 15 14 15 15 15 15 14 13 12 10 9 8 6 5 4 3 3 4 5 6 6
26 25 24 23 23 24 25 25 25 24 23 22 21 20 18 18 18 18 18 17 16 15 14 14 14 15 15 15 14 13 12 11 10 8 6 5 4 4 4 5 7 7
24 25 25 24 23 23 23 24 25 24 24 24 23 21 20 20 20 19 19 18 17 16 14 13 13 14 15 16 16 16 15 13 11 9 8 6 6 5 5 6 7 8
21 23 24 23 23 22 22 22 24 24 25 25 24 23 22 21 21 20 20 19 19 17 15 14 13 14 15 17 17 18 17 15 13 11 9 8 7 7 7 7 7 8
19 20 21 22 22 22 21 21 22 23 24 25 25 25 24 23 22 21 21 21 21 19 17 15 14 14 15 17 18 18 19 18 16 13 11 10 9 9 9 9 8 8
18 18 19 21 22 22 21 21 21 21 22 23 24 25 25 24 23 22 22 22 22 21 20 18 16 16 16 17 17 18 19 19 19 16 14 12 11 11 11 10 10 9
18 17 17 18 20 21 21 20 19 19 19 21 22 24 26 26 25 24 23 23 23 22 22 21 20 19 18 18 18 18 18 19 20 19 17 15 13 13 13 12 12 11
17 16 15 16 18 20 20 19 18 18 18 19 20 22 24 25 25 25 24 24 24 24 23 23 22 21 21 21 20 19 19 19 20 20 19 17 15 15 14 14 14 13
16 15 15 15 16 17 18 19 18 18 18 18 19 19 20 22 24 25 25 25 25 26 25 24 24 23 23 23 22 21 20 20 20 20 20 19 18 17 16 16 16 14
16 15 14 14 14 16 17 18 18 18 19 19 19 19 19 21 22 23 24 25 26 27 26 25 25 25 25 24 24 24 23 21 21 20 20 20 20 20 19 18 18 17
16 16 15 14 15 15 15 17 18 19 20 20 20 20 20 20 21 22 23 24 25 26 27 27 27 27 26 26 26 26 25 23 22 22 22 22 22 22 21 20 20 19
18 18 17 16 15 15 15 16 18 19 20 20 20 20 21 21 22 22 22 23 24 24 25 27 28 28 28 28 28 27 27 25 23 23 23 23 23 24 23 23 22 22
21 21 20 19 17 16 16 17 17 18 19 20 20 21 21 22 22 23 23 22 22 23 24 25 26 27 28 28 28 28 27 26 24 23 23 24 25 25 25 25 24 24
23 23 23 21 20 19 19 19 19 19 19 20 20 21 22 23 23 23 23 23 23 23 23 23 24 25 26 27 28 28 28 26 24 22 22 24 26 26 27 27 26 25

ECMWFNIL_500_spd_066.txt.gz
Wind_Speed
19 19 19 18 18 18 18 18 18 17 16 16 14 14 13 12 11 10 10 9 8 7 7 6 5 5 5 6 6 6 6 7 7 7 7 8 8 8 7 7 8 8
19 20 20 19 18 17 18 18 18 18 17 16 15 14 14 13 12 10 9 8 8 7 7 6 6 5 5 6 7 7 8 8 9 9 9 10 9 9 8 7 8 8
20 20 20 19 18 18 18 18 18 18 17 16 15 14 14 13 12 10 9 8 7 6 5 6 5 5 5 6 8 9 10 11 11 11 11 10 9 8 7 7 7 7
21 20 20 20 20 19 19 18 18 17 16 15 15 15 14 13 12 11 9 8 6 5 4 4 4 5 6 8 10 11 12 12 12 11 10 9 8 7 7 6 6 6
22 22 21 21 21 20 18 17 17 16 16 15 15 15 14 13 12 11 10 9 7 5 3 3 3 5 8 10 12 12 12 12 12 11 9 8 7 6 6 6 5 5
22 22 22 22 21 20 19 17 17 16 15 15 15 15 14 13 12 11 11 9 7 5 3 2 2 4 9 13 13 13 12 11 11 10 8 7 6 5 4 4 4 4
23 22 22 22 21 21 20 19 17 16 16 15 15 15 14 13 13 12 11 10 8 5 3 3 3 4 9 14 14 13 12 11 9 9 8 7 6 5 4 3 3 3
25 24 23 23 22 21 21 20 18 17 17 16 15 15 15 14 13 12 11 10 8 6 4 3 4 4 8 13 14 13 12 11 9 8 8 7 6 5 4 3 2 2
26 26 25 24 22 21 21 20 20 19 18 17 17 17 16 15 14 13 12 11 9 8 6 5 6 6 8 11 13 13 12 11 10 9 8 6 6 5 4 3 2 2
27 27 26 25 23 22 21 21 21 20 19 18 18 18 17 16 15 14 13 12 11 10 9 7 8 8 9 11 13 13 13 12 10 9 7 6 5 4 3 3 2 2
27 28 27 26 25 24 23 23 22 21 20 19 18 18 17 17 16 15 15 14 13 12 11 9 10 10 11 11 12 13 13 12 11 9 7 6 4 3 3 2 2 2
27 27 27 27 27 26 26 25 24 23 21 20 19 18 17 17 16 16 15 15 15 13 12 10 10 11 12 12 13 13 13 13 12 10 8 6 5 4 3 3 3 3
26 26 26 28 29 29 29 27 26 25 23 22 21 20 18 17 16 16 15 16 15 13 12 11 11 12 13 13 13 13 14 13 12 11 9 7 6 5 4 4 3 4
26 27 27 29 30 31 31 30 28 27 25 24 23 21 20 18 17 17 16 16 15 14 13 12 11 12 13 13 14 14 14 13 12 11 9 8 7 6 5 5 5 5
27 29 29 30 31 32 31 31 30 29 28 27 25 23 21 20 19 19 18 17 16 14 13 12 11 12 12 14 15 15 15 15 13 12 10 9 8 7 6 6 6 7
29 30 31 31 31 31 30 30 30 30 29 28 26 25 24 22 21 20 19 18 17 15 14 13 12 12 13 14 15 16 16 16 15 13 12 11 9 8 8 7 7 8
28 31 32 32 31 30 30 30 31 31 31 30 29 27 26 24 23 21 20 19 19 17 16 14 13 14 14 14 15 16 16 16 16 16 14 13 11 10 9 9 9 9
23 26 29 32 32 31 31 31 31 31 31 31 30 29 28 27 25 23 22 22 21 20 18 16 16 16 16 15 16 16 16 16 17 17 16 15 14 12 11 11 10 11
19 21 24 27 30 31 31 31 31 30 30 30 31 31 30 29 27 26 24 23 22 21 20 19 18 18 18 17 17 17 17 17 18 18 18 18 17 16 14 13 12 13
24 21 22 25 28 30 31 31 29 28 29 30 31 32 31 30 29 27 26 25 24 23 22 21 21 20 20 20 19 18 18 18 19 19 19 20 20 19 17 16 15 15
32 27 24 25 27 28 29 30 29 29 29 29 30 31 30 30 30 29 28 27 26 25 24 23 22 22 22 21 21 21 20 20 20 20 20 21 21 21 20 19 18 17
34 30 27 26 26 26 26 28 29 29 29 29 29 29 30 30 30 29 29 28 28 27 26 25 24 24 24 23 23 23 23 22 21 21 21 21 22 23 23 23 22 20
33 28 26 27 26 25 25 27 29 30 30 30 29 29 29 29 29 28 28 28 28 28 27 26 26 26 26 26 26 26 26 24 22 22 23 23 23 24 25 25 25 23
32 27 26 27 27 26 26 27 28 30 31 31 30 29 29 29 29 29 29 29 28 28 28 28 28 28 28 29 29 29 29 27 25 24 24 24 25 25 26 26 26 26
33 29 27 27 27 27 27 27 29 30 31 31 31 30 30 30 30 29 29 28 28 27 28 29 29 30 30 30 31 32 31 30 29 26 25 25 26 27 27 27 27 27
35 30 28 27 27 28 28 28 29 30 31 31 31 31 31 30 29 29 28 29 28 28 27 28 28 29 30 30 32 33 32 32 31 29 26 26 26 28 28 29 29 29

ECMWFNIL_500_spd_069.txt.gz
Wind_Speed
18 18 18 17 18 18 18 18 17 16 15 14 14 13 12 11 11 10 9 8 8 7 7 6 6 6 6 7 7 8 8 9 9 8 7 7 7 7 7 7 8 8
19 19 18 17 17 17 18 19 18 17 16 16 15 14 13 12 11 10 9 8 8 8 7 7 6 6 6 7 8 8 8 9 10 9 9 8 7 7 6 6 7 8
19 19 18 17 17 17 18 19 19 18 17 16 15 14 14 13 12 11 10 10 9 9 8 7 7 7 7 8 9 9 9 10 11 11 10 9 8 7 6 6 6 7
19 19 18 18 18 18 18 18 18 18 17 16 16 15 15 13 13 12 11 11 11 10 9 8 7 7 8 9 10 10 10 11 12 11 10 9 7 6 5 5 5 4
21 20 20 19 19 18 18 17 17 17 17 17 17 16 15 14 14 13 12 12 11 11 9 8 7 8 9 11 11 12 12 12 12 11 10 8 7 6 5 4 5 4
23 22 22 21 20 19 18 17 17 17 16 17 17 16 16 15 14 13 13 12 11 11 10 8 7 8 10 12 13 13 13 12 11 10 9 8 7 6 5 4 4 4
26 24 23 22 21 20 19 19 18 17 17 16 16 16 15 15 14 14 13 12 11 11 10 9 8 9 11 13 14 14 13 12 11 10 9 8 7 6 5 4 3 3
28 27 25 24 23 22 21 21 19 18 18 17 15 15 15 14 14 14 12 11 11 10 10 9 9 10 13 14 15 14 14 13 11 10 9 8 7 6 6 5 4 3
29 29 27 26 24 23 23 23 22 22 20 18 18 17 16 15 14 13 12 11 10 10 9 9 10 12 14 16 16 16 15 13 12 11 9 8 7 6 6 5 5 4
30 30 29 27 25 25 25 25 24 24 22 21 21 20 18 17 16 14 12 11 10 10 10 10 11 13 16 18 18 17 16 15 13 12 10 9 7 6 5 5 4 4
31 31 30 28 27 26 26 26 26 25 24 23 23 21 20 19 18 16 14 13 12 12 11 12 13 14 16 19 19 19 17 16 14 13 11 9 8 7 5 5 4 4
31 31 30 30 29 28 28 28 27 26 25 24 24 23 22 21 19 18 17 16 16 15 13 13 14 15 17 19 20 20 19 17 16 14 12 11 9 7 6 5 4 4
30 29 29 30 30 30 30 29 28 27 26 25 24 24 23 22 21 20 19 19 18 17 15 14 14 15 16 18 20 21 20 19 17 15 14 12 10 8 7 6 5 4
30 29 30 30 31 32 32 31 29 27 27 26 26 25 24 23 22 22 22 22 20 19 17 15 15 15 16 17 19 21 22 20 19 17 15 14 12 10 9 7 6 5
31 31 31 31 32 33 33 32 31 29 28 28 27 26 25 25 24 24 23 23 21 20 18 17 15 15 16 17 19 21 23 22 21 19 18 16 14 12 10 9 8 7
29 30 31 32 31 31 32 32 32 31 30 29 28 27 27 26 26 25 24 23 22 20 19 17 16 16 17 18 19 21 23 23 23 21 20 18 16 14 13 11 10 9
26 26 28 30 31 31 31 32 32 32 31 30 29 29 28 28 27 26 25 24 23 22 20 18 17 17 18 18 20 21 23 24 24 23 21 20 18 16 14 13 12 11
27 26 27 30 32 32 32 32 32 33 32 32 31 30 30 29 28 27 26 25 25 23 21 19 19 19 19 19 20 21 22 24 25 25 23 22 20 18 16 15 14 13
29 29 30 31 33 34 34 34 34 34 33 33 33 33 33 31 30 28 28 27 26 25 23 21 21 21 21 21 20 21 22 23 24 25 25 24 23 21 19 17 16 15
29 29 30 32 33 35 36 35 34 34 34 35 35 35 35 33 32 31 30 29 27 26 25 24 24 24 23 23 22 22 23 23 24 25 25 25 25 24 22 20 19 17
29 28 30 33 34 35 36 36 35 34 34 35 36 37 36 35 35 33 32 31 30 29 28 27 26 26 26 25 24 24 24 24 24 24 25 25 26 25 24 23 22 20
31 30 32 34 34 35 35 35 35 34 34 35 36 37 37 37 36 35 34 33 32 31 30 28 28 28 28 27 26 26 26 25 24 24 24 24 25 25 26 25 25 24
35 34 34 35 35 34 34 34 34 35 35 36 36 37 37 37 37 36 36 36 35 34 32 30 30 31 30 30 29 29 28 26 25 24 24 24 24 25 26 27 27 26
37 35 34 34 34 32 32 32 33 35 36 37 37 37 37 37 37 38 38 37 37 36 34 33 33 33 33 33 32 31 30 28 26 26 25 25 25 26 27 28 28 29
37 33 31 31 31 31 30 31 32 34 36 38 38 38 38 38 38 39 38 38 38 37 36 35 35 35 35 35 34 34 31 29 28 27 26 26 26 27 28 29 29 30
38 33 31 30 31 31 30 30 31 33 36 38 38 39 39 39 39 39 39 38 38 38 38 37 36 37 37 36 36 36 33 32 31 28 27 27 28 28 29 29 30 31

ECMWFNIL_500_spd_072.txt.gz
Wind_Speed
17 17 17 18 19 18 16 15 14 14 13 13 13 13 13 14 14 13 13 13 12 12 12 11 11 11 11 11 10 10 10 10 10 9 9 9 9 8 8 8 8 7
18 18 16 16 16 17 17 17 15 14 13 12 12 12 12 13 13 13 13 13 12 12 12 11 11 11 11 11 11 10 10 10 10 9 9 9 8 8 7 8 8 9
19 19 17 16 16 16 17 18 17 16 14 12 12 12 12 12 13 13 13 13 12 12 11 11 11 11 11 11 11 11 10 10 9 9 9 9 8 7 7 7 8 9
20 21 20 18 17 17 17 17 17 17 15 14 14 13 12 12 12 12 13 13 13 12 12 11 11 11 11 11 11 11 11 10 10 9 9 8 8 7 7 6 7 7
22 22 22 21 19 17 16 16 16 17 17 16 15 15 14 13 13 12 13 13 13 13 12 11 11 11 12 12 12 12 12 12 12 11 9 8 7 7 6 6 6 6
23 23 23 22 20 18 17 16 16 16 17 17 17 16 15 14 14 13 14 14 14 13 12 12 11 11 12 13 13 14 14 14 14 12 10 9 7 6 6 5 5 5
25 24 24 23 22 20 18 18 17 16 17 17 17 17 16 15 15 14 14 14 14 14 13 11 11 12 13 14 14 15 15 16 15 13 11 10 8 7 5 5 5 4
27 26 26 25 23 22 21 20 18 17 17 16 16 16 16 15 15 15 15 15 15 14 13 12 11 12 14 15 16 16 16 16 15 14 12 11 9 8 6 5 5 4
30 28 27 26 24 23 22 22 21 20 18 16 16 16 15 15 15 15 15 15 15 15 14 13 13 13 15 16 17 17 17 17 15 14 13 11 10 9 7 6 5 4
33 31 29 28 26 25 24 24 23 22 20 19 18 17 16 16 15 15 14 15 15 15 15 15 14 15 17 18 19 19 18 17 16 15 14 12 11 10 8 7 6 6
34 33 32 30 28 27 27 26 26 25 23 22 21 20 19 18 17 16 15 15 16 16 17 16 16 17 18 20 20 20 20 19 17 16 15 13 12 11 10 9 8 7
35 34 33 32 32 31 30 30 29 28 26 26 25 23 22 21 20 18 17 17 18 19 18 18 18 18 19 21 22 22 21 20 19 18 16 15 14 13 12 11 10 9
36 36 35 35 35 34 34 33 32 31 29 29 28 27 26 24 23 22 21 21 21 21 20 20 19 19 20 21 23 23 23 22 21 19 18 17 15 14 13 12 11 10
38 38 38 38 38 37 36 35 34 33 32 31 30 29 28 27 26 25 24 24 24 23 22 21 20 19 20 22 23 25 25 24 23 21 20 19 18 16 15 13 12 11
40 40 40 40 39 39 38 37 36 34 33 32 31 30 29 29 28 27 26 26 25 25 24 22 21 20 21 22 24 25 26 26 25 23 22 21 20 18 16 15 13 12
40 41 41 41 40 39 38 38 36 35 34 33 31 30 30 30 29 28 27 27 26 26 25 23 21 21 22 23 24 26 27 28 27 26 24 23 22 20 18 17 15 14
41 41 41 41 40 40 39 38 37 36 35 34 32 31 31 30 30 29 28 28 27 27 26 24 22 22 23 24 24 26 27 29 29 28 27 25 23 22 20 19 18 16
39 41 41 41 40 40 39 38 38 37 36 35 33 33 32 32 31 30 29 29 29 28 27 25 23 23 24 24 25 25 27 29 30 30 29 27 26 24 23 21 20 18
34 37 39 40 40 40 39 39 39 38 37 36 35 35 35 34 33 32 31 31 30 29 28 26 24 25 25 25 25 26 26 28 30 31 31 29 28 26 25 24 22 21
33 34 35 38 40 41 41 41 40 39 38 38 38 38 37 36 35 34 33 32 31 31 30 28 27 26 26 26 26 26 26 27 28 30 31 31 30 29 27 26 24 23
35 34 34 37 40 42 42 42 42 41 41 40 40 40 39 38 37 36 35 34 33 32 31 30 28 28 28 27 27 27 26 26 27 28 30 31 31 31 29 28 27 25
39 37 37 38 39 40 40 42 42 42 42 42 42 42 42 41 39 38 36 35 35 34 32 31 30 30 30 29 28 28 28 26 26 26 27 29 31 32 32 31 30 28
42 41 39 38 38 38 37 39 41 42 43 43 44 43 43 42 41 40 39 38 37 35 34 32 32 33 32 31 30 30 29 27 26 25 26 26 28 31 32 33 33 31
45 42 40 39 37 37 37 37 39 41 43 44 44 43 43 42 42 42 41 40 39 37 35 35 34 35 34 33 32 31 30 28 27 26 25 25 26 28 29 32 33 34
47 43 40 39 36 36 37 37 38 40 42 44 44 43 43 42 42 42 42 41 40 39 38 37 36 36 36 34 33 32 30 29 28 27 26 26 26 27 28 29 31 33
45 44 41 40 38 37 38 38 38 39 41 43 44 43 42 42 41 41 41 41 41 41 40 39 38 38 38 36 35 34 32 31 30 28 27 27 28 29 29 30 31 32

ECMWFNIL_500_spd_075.txt.gz
Wind_Speed
18 19 19 19 18 17 16 15 15 14 14 13 13 13 14 14 13 13 13 13 13 13 12 12 11 11 11 11 11 11 10 10 10 10 10 9 9 8 8 7 7 6
19 19 19 19 19 18 17 16 15 14 13 12 12 13 13 14 13 13 13 13 13 13 13 12 12 11 11 12 11 11 11 11 11 10 10 9 8 8 8 7 7 8
20 20 19 20 20 20 19 18 16 15 14 13 13 13 13 14 13 13 13 13 13 13 13 13 13 12 12 12 12 12 12 11 11 11 10 9 8 8 8 8 8 8
21 21 21 21 21 21 20 19 17 16 15 15 15 14 14 14 14 14 14 14 14 14 14 13 13 13 13 13 12 12 12 12 11 11 11 10 9 9 8 7 7 7
23 23 22 22 22 21 21 20 19 18 17 16 16 15 14 14 14 14 14 15 14 14 14 14 14 14 13 13 13 12 12 12 11 11 11 11 10 9 8 7 7 7
24 24 24 23 22 22 21 21 21 20 19 18 17 16 15 15 14 15 15 15 16 15 15 15 14 14 14 14 14 13 13 12 12 12 12 11 10 9 8 7 7 7
26 26 26 25 24 23 23 22 22 21 20 20 19 18 17 16 15 15 16 16 17 17 16 15 15 14 15 15 14 14 13 13 13 12 11 10 9 8 7 6 6 6
28 28 28 27 25 24 24 23 22 22 22 21 20 19 19 18 17 16 16 17 17 18 17 16 15 15 15 16 15 15 14 13 13 13 12 10 9 8 7 6 5 5
29 29 29 28 26 26 25 25 24 24 23 22 22 21 20 19 18 17 17 17 18 18 18 17 16 15 15 16 16 16 15 14 14 14 12 11 10 9 8 7 6 5
31 30 30 29 28 27 27 27 27 26 25 24 23 23 22 21 20 18 18 18 18 19 19 18 17 16 16 16 17 17 16 15 15 14 13 12 11 10 9 8 8 7
33 32 31 30 30 29 29 30 29 28 27 26 25 24 23 22 21 20 19 19 20 20 20 20 19 17 16 16 17 18 17 16 16 15 14 13 13 12 11 10 9 9
37 35 33 32 32 32 32 32 31 30 29 27 26 25 24 23 22 21 20 20 21 22 22 21 20 19 17 17 18 18 18 17 17 16 16 15 15 14 13 12 11 11
39 38 36 35 35 34 34 33 33 32 30 29 28 27 27 25 23 22 22 22 23 23 23 23 22 20 19 18 18 19 19 19 18 18 17 17 16 16 15 14 13 12
41 41 40 39 38 37 35 34 33 32 32 32 31 30 28 27 26 25 25 25 25 25 25 24 23 21 20 19 19 20 21 21 20 20 19 18 18 17 16 16 15 14
42 42 42 42 41 39 37 35 34 34 33 33 33 31 31 30 29 28 27 27 26 26 26 26 25 23 22 21 20 21 22 22 22 22 21 20 20 19 18 17 17 16
41 42 43 43 42 41 40 38 36 36 35 34 34 33 33 32 31 30 29 28 27 28 27 27 26 24 24 23 22 22 23 24 24 24 24 23 22 21 20 19 19 18
37 41 43 43 43 42 41 40 39 38 37 36 35 35 34 34 33 31 30 30 29 29 28 27 26 26 25 25 24 23 24 25 26 26 26 25 24 23 22 22 21 20
34 38 41 42 42 43 42 42 41 40 39 38 37 36 36 35 34 33 32 31 31 30 29 28 27 27 27 26 25 25 25 25 27 28 28 28 27 26 25 24 23 22
32 34 37 40 41 42 43 43 43 42 41 40 39 38 37 36 35 35 34 33 32 31 30 30 29 29 29 28 27 27 26 26 27 28 29 30 30 29 27 26 25 24
33 32 33 36 39 41 42 43 43 43 42 42 41 40 39 37 37 36 35 35 34 33 32 31 31 31 30 30 29 28 28 28 28 29 30 31 31 31 30 29 28 26
35 32 32 33 36 38 40 41 42 42 42 42 42 41 40 39 38 38 37 36 35 34 33 32 31 31 31 30 30 30 30 29 28 28 29 30 32 33 33 32 31 29
37 35 33 33 34 35 36 38 40 41 42 43 43 43 42 41 41 40 39 38 37 35 34 32 32 32 32 31 30 31 31 30 29 28 28 29 31 32 33 34 33 32
39 38 36 35 35 34 35 37 39 40 42 43 43 44 43 43 43 42 41 40 39 37 35 33 32 33 33 32 31 32 32 31 29 28 28 28 29 31 32 34 34 33
41 40 39 39 38 37 37 37 39 40 41 42 43 44 44 44 45 44 43 42 41 38 36 34 33 33 33 32 32 32 32 31 29 28 28 27 28 29 30 32 33 34
44 43 43 43 42 41 41 40 39 39 40 41 43 44 44 45 45 45 44 43 42 40 38 36 35 34 34 33 33 33 33 31 30 29 28 27 27 28 29 30 31 33
46 46 46 47 47 46 45 44 42 41 40 40 42 43 44 45 45 45 44 43 42 41 40 39 37 36 36 36 35 35 34 33 32 30 28 28 28 29 29 29 29 31

ECMWFNIL_500_spd_078.txt.gz
Wind_Speed
20 20 19 19 19 19 19 17 16 15 14 13 13 13 12 12 11 11 12 12 12 11 11 11 11 11 10 10 10 10 9 9 9 9 9 9 8 7 7 6 6 6
20 20 20 20 20 20 19 19 17 16 15 14 13 13 12 11 11 11 11 12 11 11 10 10 10 10 10 10 9 9 8 8 8 8 8 8 7 7 7 6 6 6
21 21 21 21 21 21 20 20 18 17 16 15 15 14 13 13 12 11 12 12 11 11 11 10 10 10 10 9 9 8 8 8 8 7 7 7 7 7 7 6 6 6
22 22 22 23 23 22 21 20 19 18 17 17 16 15 15 14 13 13 13 13 12 12 11 10 10 10 10 9 9 8 8 8 8 7 7 8 8 7 7 7 6 6
24 24 23 24 24 23 22 21 20 19 19 18 17 16 16 15 14 14 14 13 13 13 12 11 11 11 11 10 10 9 9 9 8 8 8 8 8 8 8 7 7 7
26 25 24 24 24 24 24 23 21 21 20 19 18 17 16 16 15 15 15 14 14 14 13 13 12 12 12 11 11 10 10 9 9 9 9 9 9 8 8 8 8 8
27 27 26 25 25 25 25 24 23 22 21 20 19 19 17 17 16 15 15 15 14 14 14 14 13 12 12 12 12 11 11 10 10 10 10 10 10 9 8 8 8 8
29 29 28 27 26 26 26 25 25 24 23 22 21 20 19 18 17 16 16 15 15 15 14 14 14 13 13 12 12 12 12 11 10 10 11 11 11 10 9 8 7 7
31 30 29 28 27 27 27 27 27 26 25 24 23 22 21 20 18 17 17 16 16 16 15 15 15 14 13 13 12 13 13 12 11 11 12 12 11 11 10 9 8 7
31 31 30 30 29 28 28 28 28 28 27 26 25 24 23 22 20 19 18 17 17 17 17 16 16 16 15 13 13 13 14 13 13 12 12 13 12 11 10 10 9 8
32 32 31 31 30 30 30 31 30 29 29 28 27 26 25 24 23 21 20 19 18 18 18 18 17 17 16 15 14 14 15 15 14 14 14 14 13 12 11 10 9 9
33 33 32 32 32 32 32 32 32 31 30 30 29 28 28 27 25 23 22 21 21 21 20 19 19 18 17 16 15 15 15 16 16 15 15 15 15 14 12 11 10 10
35 34 34 34 33 34 34 34 33 33 32 32 31 30 30 29 27 26 24 24 23 23 22 21 20 19 18 17 16 15 16 17 17 17 16 16 16 15 14 13 11 11
35 37 36 35 35 35 35 34 34 34 34 33 32 31 31 31 29 28 27 26 25 24 24 23 22 21 20 19 17 16 17 18 18 18 18 17 17 16 15 14 13 12
33 36 37 37 37 36 36 35 35 34 34 34 33 32 32 32 31 30 29 28 27 26 25 25 24 23 21 21 20 19 19 19 19 20 20 19 18 17 16 16 15 14
31 33 36 38 39 38 38 37 36 35 34 34 33 33 33 33 32 31 31 30 29 28 27 26 26 25 24 23 23 22 21 21 21 21 22 21 21 20 18 18 17 16
32 32 33 36 39 40 40 39 38 36 35 34 34 34 34 34 33 32 32 31 30 29 29 28 27 27 26 27 27 25 24 23 23 23 23 23 23 22 21 21 20 19
34 33 32 32 36 39 41 41 40 39 37 35 35 35 35 34 34 33 33 32 31 31 30 30 29 28 29 29 29 28 27 26 26 25 25 25 25 24 24 23 23 22
36 34 32 31 32 35 38 41 41 41 40 39 38 37 36 35 34 34 33 33 32 32 31 30 30 30 30 31 31 30 30 29 28 27 27 26 26 26 26 26 25 24
36 34 32 31 31 32 34 37 39 40 41 41 41 40 38 37 36 35 34 33 33 32 32 31 31 31 31 32 32 32 32 31 30 29 28 27 26 26 27 27 27 27
36 36 35 33 31 31 32 34 36 39 40 41 41 42 41 40 39 38 36 34 33 33 32 32 32 31 32 32 33 33 33 33 32 31 29 28 27 27 27 28 28 28
38 38 37 35 34 33 33 33 34 36 39 40 41 41 41 40 40 40 38 36 35 34 33 33 33 32 32 33 33 34 34 33 33 31 30 29 28 28 28 28 29 29
39 39 37 36 36 35 35 34 34 35 37 39 40 40 40 39 39 40 40 38 37 36 34 33 33 33 33 33 34 35 34 33 32 31 30 29 29 29 29 28 28 29
39 38 38 38 38 38 38 37 37 37 37 38 38 38 38 38 39 39 40 39 39 38 37 35 34 34 34 34 35 35 35 33 32 32 30 29 29 29 29 28 28 29
41 39 39 40 40 40 41 41 40 39 38 37 36 36 37 37 38 39 40 39 39 40 40 38 36 36 35 35 35 36 35 35 34 32 31 29 28 29 29 28 28 28
43 42 41 41 41 42 43 44 43 41 39 37 37 36 36 36 38 39 39 39 40 40 41 40 38 37 37 36 37 37 37 36 35 33 31 30 29 29 28 28 28 28

ECMWFNIL_500_spd_081.txt.gz
Wind_Speed
19 19 18 18 17 16 15 14 13 12 12 11 11 11 11 10 10 10 10 10 10 10 9 9 9 8 8 7 7 6 6 6 6 7 7 7 6 6 6 5 6 6
20 19 19 19 18 17 16 15 14 13 13 12 12 12 11 11 10 10 9 9 9 9 8 8 8 7 7 7 6 6 5 5 6 6 6 6 6 6 5 5 6 6
22 21 20 20 20 19 18 16 15 14 14 13 13 12 12 11 10 10 9 8 8 8 8 7 7 6 6 6 5 5 5 5 5 5 6 6 5 5 5 5 5 6
23 23 22 21 21 20 19 18 17 16 15 15 14 13 12 11 10 10 9 8 8 7 7 7 7 6 6 5 5 5 5 4 4 5 5 5 5 5 5 5 5 6
25 24 23 22 22 21 21 20 19 17 16 16 15 13 13 12 11 10 9 8 8 8 7 7 7 6 6 6 5 5 5 5 4 4 5 5 5 5 5 6 6 6
25 25 24 24 23 23 22 22 21 19 18 17 16 15 14 13 12 11 10 10 9 9 8 8 7 7 7 6 6 6 6 5 5 5 5 5 5 5 5 5 5 5
25 25 25 25 25 24 24 23 22 21 20 19 18 17 16 15 14 13 12 11 11 10 9 9 9 9 8 7 7 7 7 6 6 6 5 6 6 6 6 5 5 5
26 25 24 24 25 25 25 24 24 23 22 21 20 19 18 16 16 15 14 13 12 12 11 11 11 10 10 9 8 8 8 7 7 6 6 7 7 7 6 6 5 5
26 25 25 24 24 25 25 25 25 25 24 23 22 21 20 19 18 16 15 15 14 14 13 12 12 11 11 10 9 9 8 8 8 7 7 8 8 8 7 6 6 5
27 27 26 25 24 24 25 26 27 26 25 25 24 23 22 21 20 18 17 17 16 16 15 14 13 13 12 11 10 10 9 9 9 9 8 8 9 9 8 7 6 6
28 28 27 26 25 25 25 26 27 28 27 27 26 25 24 23 22 20 20 19 18 17 17 16 15 14 13 12 11 10 10 10 10 10 9 9 10 10 9 8 7 7
28 29 29 28 27 26 26 26 27 28 29 29 28 27 26 25 24 23 22 21 20 19 18 17 16 16 15 14 13 12 11 11 11 11 11 11 11 11 10 10 9 8
29 29 30 30 29 28 27 27 27 27 29 29 30 29 28 27 26 25 24 23 22 21 20 19 18 17 17 16 15 14 13 12 12 13 13 12 12 12 12 11 10 10
28 30 30 31 30 30 29 28 27 27 28 29 30 29 29 29 28 27 26 26 25 23 22 21 20 19 18 18 17 16 16 15 14 14 14 14 14 13 13 13 12 12
28 30 31 31 31 31 30 29 28 27 27 28 29 30 30 29 29 29 28 28 27 25 24 23 22 21 20 20 20 19 19 17 16 15 15 15 15 15 15 15 14 14
30 30 31 31 31 32 32 32 31 29 28 28 29 30 30 30 29 29 29 29 28 27 26 25 24 23 22 22 22 22 21 20 19 17 16 16 16 16 16 16 16 15
33 32 31 30 30 31 33 34 34 33 31 29 29 29 30 30 29 29 29 29 29 28 27 27 26 25 24 24 25 25 24 23 22 20 19 18 17 17 17 17 17 16
35 35 34 31 28 28 30 32 34 34 34 32 31 30 30 30 30 30 29 29 29 29 28 27 27 26 26 26 27 27 27 26 25 23 22 20 19 18 18 18 18 18
35 35 35 32 29 28 28 29 30 32 34 35 34 34 33 32 31 30 29 29 29 29 28 27 27 27 27 27 28 29 29 28 27 26 25 23 22 20 19 19 19 19
32 33 33 32 33 33 31 30 30 30 32 35 37 37 37 35 33 32 31 30 29 29 28 27 27 28 27 27 29 30 31 31 30 28 27 26 24 23 22 21 21 20
28 30 32 34 36 36 35 33 32 30 31 34 36 37 39 39 37 36 34 32 31 30 29 28 28 28 27 27 29 31 32 32 31 30 28 27 26 26 24 23 23 22
27 28 32 36 37 36 35 36 35 33 31 33 35 36 36 36 36 37 36 34 34 33 31 29 29 28 28 28 29 32 33 33 32 31 29 27 27 27 26 26 25 24
32 31 32 36 37 36 34 36 37 36 33 33 34 34 32 31 32 34 35 35 36 36 34 32 31 30 30 30 31 33 34 34 33 32 30 29 27 27 27 27 27 26
39 38 36 35 36 36 35 35 37 38 37 34 32 32 32 32 32 33 33 33 35 36 36 35 34 33 33 33 33 34 34 34 34 34 32 30 28 28 28 28 28 28
42 43 42 39 38 37 37 36 35 35 35 34 33 33 33 33 32 32 32 32 32 34 35 36 36 36 35 34 35 35 36 35 35 35 34 32 30 30 29 29 29 29
45 44 44 43 42 41 41 39 35 31 31 33 35 34 32 31 31 31 31 30 30 32 33 35 36 37 36 36 36 37 37 37 37 36 34 33 32 32 31 30 30 30

ECMWFNIL_500_spd_084.txt.gz
Wind_Speed
16 16 15 15 14 13 13 12 11 10 9 9 8 8 7 6 6 6 7 7 7 6 6 5 5 4 3 3 3 3 3 3 3 4 4 3 2 2 2 3 3 4
17 16 15 16 16 15 14 13 12 12 11 10 9 8 8 7 7 7 7 7 7 6 6 6 5 5 4 3 4 4 3 3 3 3 4 4 3 2 2 2 2 2
17 17 16 16 17 16 15 14 14 13 12 11 10 9 9 8 7 7 7 7 7 7 7 6 6 5 5 4 4 4 4 4 3 3 4 4 3 3 2 2 2 2
17 17 17 17 16 16 15 15 14 14 13 12 11 10 9 8 8 8 8 8 8 8 8 7 6 6 6 6 5 5 5 5 4 4 4 4 3 3 3 3 3 3
17 16 16 16 16 16 16 16 15 15 14 13 12 10 9 9 8 8 8 8 8 8 8 8 7 6 6 6 5 5 5 5 5 5 5 4 4 3 3 3 3 4
17 16 16 16 16 16 16 16 16 15 15 14 12 11 10 10 9 9 9 9 9 8 8 8 7 7 6 5 5 5 5 5 5 5 5 5 4 4 4 4 4 4
19 18 17 16 16 17 17 16 16 16 15 15 14 13 12 11 11 10 10 9 9 8 8 8 7 7 6 6 6 5 5 5 5 5 5 5 5 5 4 4 4 4
22 19 17 16 16 17 17 17 17 17 17 16 15 14 14 13 12 11 11 10 10 9 9 8 7 6 6 6 6 6 6 5 5 5 5 5 6 6 5 5 5 4
24 21 19 17 16 16 17 18 18 18 18 18 17 16 15 14 13 12 12 12 11 11 10 9 8 7 6 5 6 6 6 6 6 6 6 6 6 7 6 6 5 5
25 23 21 19 17 16 17 18 19 19 19 20 19 18 17 16 15 14 13 13 13 12 11 10 9 8 7 6 6 6 6 7 7 7 7 6 7 7 7 7 6 5
26 25 24 22 19 18 18 18 19 20 20 21 20 19 19 18 17 16 15 15 14 13 12 11 10 9 8 7 7 7 7 7 7 7 7 7 7 8 8 8 7 6
25 25 25 24 23 21 20 19 19 20 21 21 21 21 21 20 19 18 17 17 16 15 14 13 12 11 10 9 9 8 8 7 7 8 8 8 8 8 9 9 8 7
27 26 26 27 27 26 24 22 21 21 21 21 21 22 22 22 21 20 20 19 18 17 16 15 14 13 12 11 11 10 10 9 8 8 8 8 8 8 9 9 9 8
27 26 26 25 24 25 27 26 24 22 22 22 22 22 22 23 23 23 22 21 20 19 18 17 16 15 14 14 13 13 12 11 10 9 9 9 9 9 9 10 10 9
23 23 22 22 22 23 25 26 26 25 24 23 22 22 22 22 23 23 23 23 22 21 20 19 18 17 17 16 16 15 15 14 13 11 10 9 10 10 10 10 10 10
23 22 22 23 24 24 26 26 26 26 26 24 23 22 23 23 23 23 22 22 23 22 21 20 19 19 19 19 19 18 17 16 16 14 13 11 11 11 11 11 11 11
23 22 22 23 24 25 27 26 24 26 27 27 26 25 24 25 24 23 22 22 22 22 21 20 20 19 20 20 21 21 20 19 18 17 16 14 13 13 12 12 12 12
26 24 23 23 23 26 28 26 25 24 25 27 28 27 26 26 24 23 22 22 22 22 21 21 20 19 19 20 21 22 22 22 21 19 18 17 16 15 14 14 14 14
27 28 27 26 26 26 27 27 27 26 25 26 28 28 27 27 26 24 23 22 22 22 22 22 21 20 20 19 20 22 23 23 22 21 20 19 18 17 17 16 15 15
27 28 29 30 30 28 28 29 30 29 27 25 26 27 28 28 28 27 26 24 24 24 24 23 23 23 22 21 21 22 24 25 24 22 21 20 20 19 19 18 18 17
27 26 27 29 31 31 31 32 33 33 30 25 23 25 28 29 29 29 29 28 27 26 25 25 25 25 24 23 22 23 26 27 26 24 21 20 20 21 21 21 20 19
28 27 26 27 27 29 31 33 34 34 32 28 25 26 28 28 28 29 31 30 29 27 26 25 26 27 27 26 25 26 27 29 28 26 24 22 21 21 22 22 22 22
29 29 29 29 28 27 28 30 32 33 32 31 29 29 29 29 27 28 32 33 31 30 28 28 28 30 31 30 28 28 29 30 30 29 27 25 23 23 23 24 24 24
32 31 30 31 30 28 26 26 28 30 31 31 31 31 31 30 29 29 32 34 34 33 31 31 32 33 34 34 32 32 31 31 32 32 30 28 26 25 25 25 26 26
36 34 32 32 32 31 29 26 26 28 28 29 31 32 32 32 32 32 32 33 35 35 34 32 32 34 36 37 36 36 36 35 35 34 33 31 29 29 28 28 28 29
39 37 36 35 35 34 33 31 30 29 28 29 31 31 31 32 33 34 34 33 35 36 36 34 32 34 37 38 37 38 39 38 38 37 35 34 32 31 31 30 30 30

ECMWFNIL_500_spd_087.txt.gz
Wind_Speed
10 10 10 9 10 10 10 9 9 8 9 10 10 8 7 6 6 7 6 6 7 7 7 8 8 7 7 7 7 6 6 7 7 6 6 6 6 6 5 5 5 5
11 11 10 10 10 10 10 9 9 8 8 8 9 8 7 6 6 6 6 6 5 5 6 6 7 6 6 6 6 6 6 6 6 6 6 5 5 5 5 5 5 5
12 12 12 12 12 11 10 10 10 9 8 8 8 8 7 6 6 5 5 5 5 5 5 5 5 5 5 6 6 6 6 6 6 6 5 5 4 4 5 5 5 5
13 13 13 13 12 12 12 11 11 11 10 9 9 9 9 8 7 6 5 5 5 5 5 5 5 5 5 6 6 6 6 6 6 6 6 6 5 4 4 4 5 5
14 13 14 14 13 13 13 13 13 12 11 10 10 10 10 10 9 8 6 5 5 5 5 5 5 6 6 6 6 6 6 6 6 6 6 6 6 5 5 5 5 5
15 14 14 14 14 14 15 14 14 14 13 12 11 11 11 11 10 9 8 7 6 6 5 5 5 5 6 6 7 7 7 7 7 7 7 6 6 6 5 5 5 5
17 15 14 15 15 16 16 15 15 15 14 13 13 13 12 12 11 11 10 9 8 7 6 6 5 5 5 6 6 7 7 8 8 7 7 7 7 6 6 6 5 5
18 16 15 15 15 17 17 16 16 16 15 15 15 15 14 13 12 12 11 11 10 9 7 7 6 5 5 5 6 7 7 7 7 8 8 8 8 7 7 6 6 5
21 20 18 16 16 17 18 18 18 17 17 17 16 15 14 14 13 13 12 12 11 10 9 8 7 6 6 6 6 7 8 8 8 8 9 9 9 8 8 7 7 6
23 23 21 18 17 17 18 19 19 19 19 18 18 17 16 15 14 14 13 12 12 11 10 10 9 8 7 7 7 7 8 9 9 9 9 9 10 10 10 9 8 7
22 22 22 21 19 18 18 19 19 20 20 20 19 19 18 17 16 15 15 14 13 13 12 11 10 9 9 8 7 7 8 8 9 9 9 9 10 11 11 11 10 9
20 21 23 24 23 21 20 19 19 19 20 20 20 19 19 18 17 16 16 15 15 14 13 12 12 11 10 9 9 8 8 8 8 9 10 10 10 10 11 12 11 11
21 21 24 26 26 24 22 20 20 20 20 20 19 19 19 18 18 17 17 16 16 15 14 14 13 12 11 11 10 10 10 9 9 9 10 11 11 10 11 12 12 12
23 24 24 26 27 26 24 22 21 21 20 20 19 18 18 18 18 18 17 17 16 16 15 14 13 13 12 12 12 11 11 11 10 10 10 10 11 11 12 12 13 13
24 25 24 25 27 27 26 24 22 22 21 20 19 18 18 18 18 18 18 18 17 17 16 15 14 13 13 13 13 12 12 12 11 11 11 10 11 12 12 13 13 13
23 25 26 27 27 27 26 25 23 23 23 22 20 19 18 18 18 18 18 18 18 18 17 16 16 15 15 15 15 14 13 13 12 12 12 12 11 12 13 13 13 14
22 23 25 28 27 25 25 24 24 23 23 23 23 21 20 19 18 18 18 18 18 18 17 17 17 17 17 17 17 16 16 15 14 14 13 13 13 13 13 14 14 14
24 23 25 27 27 24 23 23 24 24 24 24 24 24 23 21 19 18 18 18 18 19 18 17 17 18 18 18 18 18 18 17 17 16 15 14 15 15 15 15 15 15
25 25 26 27 26 25 24 25 27 27 26 26 25 26 25 24 22 21 20 20 19 19 19 19 19 19 19 19 20 20 20 19 18 18 17 16 16 16 16 16 16 16
21 23 25 26 26 26 26 27 28 28 27 27 27 26 25 24 23 22 23 23 22 21 21 21 20 21 22 22 21 22 22 21 20 20 19 18 17 17 17 17 18 17
19 21 22 24 27 29 30 29 29 27 27 28 28 26 25 24 23 23 24 24 24 25 24 23 23 24 25 25 25 25 25 25 23 22 21 21 20 20 19 19 20 20
21 21 22 23 24 27 30 31 31 29 28 28 28 28 27 25 23 23 25 26 27 27 26 25 26 28 29 29 28 28 28 27 26 25 24 23 22 22 22 22 22 22
24 22 22 22 21 22 24 27 29 29 29 29 29 28 28 27 25 24 25 27 28 28 27 28 30 31 31 30 29 28 27 28 27 26 26 25 24 24 25 25 25 24
27 26 25 24 22 20 20 22 24 25 27 29 30 29 29 30 29 28 28 27 28 29 29 30 31 31 30 29 28 28 28 28 28 29 29 27 26 26 26 27 27 27
30 29 28 28 26 23 22 23 23 23 24 26 27 29 31 32 33 33 32 30 29 30 31 32 31 30 29 30 30 30 31 32 32 32 32 30 29 29 29 29 29 29
33 31 30 30 30 27 25 25 24 24 24 24 25 26 29 32 34 35 35 33 32 33 34 34 31 28 28 30 32 33 35 36 35 34 35 34 33 32 31 31 30 30

ECMWFNIL_500_spd_090.txt.gz
Wind_Speed
14 14 14 15 15 14 13 13 13 13 14 13 13 11 10 9 10 10 10 10 10 10 10 10 9 9 9 9 9 9 9 9 10 9 9 8 8 7 6 6 6 6
14 15 15 15 16 15 14 13 13 13 14 14 14 13 11 10 10 10 10 10 10 10 9 9 9 8 8 9 9 9 9 9 9 9 9 8 8 7 7 7 7 6
14 15 16 15 16 16 15 14 13 12 13 14 15 14 13 12 11 11 10 10 9 10 9 9 9 8 8 9 9 9 10 9 9 9 9 8 8 7 7 7 7 7
14 15 16 16 16 16 15 14 13 13 13 14 14 14 14 13 12 12 11 11 10 10 10 10 10 9 9 9 9 9 10 10 10 9 9 8 8 7 7 7 7 7
15 15 16 16 16 17 17 16 15 14 13 13 14 15 15 14 14 14 13 13 12 12 12 12 11 11 10 10 9 9 9 9 9 9 9 8 8 8 7 7 7 7
17 15 15 16 17 18 18 18 17 16 15 15 15 15 16 16 16 16 15 15 14 13 13 12 12 12 11 10 10 9 9 9 10 9 9 9 8 8 7 7 7 7
19 17 16 16 17 18 19 19 18 18 17 16 16 17 17 17 17 17 17 16 15 14 13 13 12 12 12 11 10 10 10 10 10 9 9 9 8 8 8 8 8 8
21 19 17 17 17 18 18 19 19 18 18 17 17 17 18 18 18 18 18 17 16 15 14 13 13 12 12 11 11 11 11 10 10 10 10 10 9 8 8 8 8 8
21 22 20 18 18 18 18 18 18 18 18 18 17 17 17 17 17 17 17 17 16 16 15 14 13 12 11 11 11 11 10 10 10 11 11 11 10 10 10 9 9 9
21 22 22 21 19 18 17 17 17 17 18 18 17 17 17 16 16 16 16 16 15 15 14 14 13 12 11 11 10 10 10 10 10 11 11 12 12 12 12 11 11 11
20 21 22 22 21 19 18 17 17 17 17 17 17 17 17 16 16 16 15 15 15 14 14 13 12 12 11 11 11 10 11 11 11 11 11 12 12 13 13 13 13 12
19 20 22 24 23 21 20 20 19 18 17 17 17 17 17 17 17 17 16 16 15 14 13 13 12 12 12 11 11 11 11 12 12 12 12 12 13 14 14 14 14 13
21 21 23 24 25 24 22 20 20 20 19 18 17 16 16 17 17 17 17 17 15 14 14 13 13 13 12 12 12 12 12 13 13 13 13 14 14 15 15 16 16 15
24 24 23 22 23 24 23 22 21 20 20 20 19 18 17 17 18 18 18 17 17 16 15 14 14 14 14 14 14 14 14 15 15 15 15 16 16 16 16 16 17 17
25 25 25 24 23 23 25 25 23 22 21 21 20 20 19 19 19 19 19 19 18 18 17 16 16 16 16 16 16 16 16 16 16 17 17 17 18 18 18 18 19 19
28 27 27 26 25 24 26 27 27 26 24 23 22 21 20 20 20 20 21 21 21 20 19 18 18 18 18 18 17 17 17 17 17 17 18 18 19 19 20 21 21 21
29 28 28 28 28 27 27 28 29 29 27 25 23 22 21 21 21 22 23 23 23 23 23 22 21 22 21 21 20 19 19 18 18 18 18 19 19 20 21 22 22 22
29 29 28 28 29 29 28 27 28 30 29 27 25 24 23 22 22 22 23 24 25 25 25 25 25 25 25 24 23 22 21 20 20 20 19 19 20 20 21 21 22 23
27 27 26 27 28 29 29 29 29 30 30 29 28 26 25 24 24 23 23 24 25 26 26 26 26 26 25 25 24 23 22 21 21 21 21 20 20 20 21 21 21 22
25 25 24 25 26 28 30 30 30 30 30 31 31 29 28 27 27 26 26 26 26 27 27 26 26 26 25 24 24 23 23 22 22 22 22 22 22 21 21 21 22 22
24 27 27 27 27 28 29 30 31 31 31 32 32 31 29 28 28 28 29 29 29 29 29 28 27 27 26 26 25 26 26 25 25 25 24 24 24 23 23 23 23 23
21 24 26 26 26 28 29 30 31 32 32 32 33 32 30 29 29 29 30 30 31 32 32 30 29 28 28 28 28 28 28 28 28 27 26 26 26 25 25 25 25 25
20 21 22 22 22 23 26 28 30 31 32 32 32 32 31 31 30 31 31 32 33 33 33 32 31 31 31 31 31 31 31 31 30 29 28 27 27 27 27 26 27 27
23 21 22 23 22 20 21 24 26 29 30 32 32 32 31 32 32 33 34 34 33 33 33 32 33 34 34 34 34 34 34 33 33 32 30 29 28 28 28 27 27 27
28 24 22 24 23 22 21 22 23 24 27 29 31 32 33 33 33 33 34 34 33 32 32 32 33 35 36 37 37 37 36 35 34 33 32 31 30 29 29 28 27 27
32 30 27 26 26 24 24 24 23 23 23 25 27 30 33 33 33 33 35 35 35 33 33 34 34 35 36 37 38 38 37 36 35 33 32 32 31 30 29 28 28 28

ECMWFNIL_500_spd_093.txt.gz
Wind_Speed
15 15 14 14 14 13 13 13 12 12 14 13 12 12 13 12 12 12 12 12 11 10 10 9 9 9 8 8 8 8 9 9 9 9 8 8 8 7 7 6 6 6
14 15 15 15 16 15 14 13 12 13 13 13 13 13 13 13 13 13 13 13 12 11 10 9 9 8 8 8 8 9 9 9 9 9 9 8 8 7 7 7 6 6
14 15 16 16 17 16 15 14 13 13 13 14 14 14 13 14 14 15 14 14 13 12 11 10 9 9 9 9 9 9 10 10 10 9 9 9 8 8 7 7 7 7
16 16 17 17 17 17 16 15 15 14 14 14 14 14 14 15 15 16 15 14 14 13 12 12 11 10 10 10 10 10 10 11 10 10 9 8 8 8 8 8 8 7
18 17 17 17 18 18 17 17 16 15 14 14 15 15 15 16 16 16 16 15 15 14 14 13 12 12 11 11 11 10 10 11 11 10 9 9 8 8 9 9 9 9
20 19 18 18 18 18 19 18 17 16 15 15 16 16 16 16 17 17 17 16 16 15 15 14 13 12 12 11 11 10 10 10 10 10 10 9 9 9 9 9 9 10
23 21 19 19 19 19 20 19 18 18 17 16 16 17 17 17 17 17 17 17 17 17 16 15 14 13 12 11 10 10 10 10 10 10 10 10 10 10 10 10 10 10
24 22 20 19 19 20 20 20 20 19 18 18 18 18 18 18 17 18 18 18 18 18 17 16 15 13 12 11 11 11 11 11 11 11 11 11 11 11 11 11 10 10
22 22 21 20 20 20 20 21 21 20 20 20 19 18 18 18 18 18 18 18 19 19 18 17 16 14 13 12 12 12 12 12 12 12 12 12 12 12 12 12 11 11
22 23 22 21 20 20 21 21 21 21 21 21 20 19 19 19 19 19 19 19 19 19 18 17 16 15 15 14 14 14 14 14 13 13 14 14 14 13 12 12 12 12
23 24 24 23 22 21 21 21 21 21 21 21 20 20 19 19 19 19 19 19 19 19 18 18 17 17 17 16 16 16 16 16 16 16 15 15 15 14 14 14 13 13
23 24 25 25 25 23 23 22 22 21 22 22 21 21 20 19 19 19 19 19 19 19 18 18 18 18 18 18 18 18 18 18 18 18 17 17 16 16 16 16 15 14
24 25 26 27 27 26 24 23 22 22 22 23 22 22 21 20 20 20 20 19 19 19 19 19 18 18 18 18 18 19 18 19 19 19 19 18 17 17 17 17 17 16
26 26 27 28 28 27 25 24 23 22 23 23 23 23 23 23 23 22 21 20 20 20 20 20 19 19 19 19 19 18 18 18 19 19 19 19 18 18 17 17 18 18
28 27 27 28 28 28 28 27 25 24 23 23 24 24 25 25 25 25 24 22 21 21 20 20 20 20 19 19 19 18 18 17 18 18 19 19 18 18 18 18 18 18
30 28 27 28 29 29 29 29 28 27 26 25 25 25 25 26 26 26 26 25 24 23 21 21 21 21 20 20 19 18 17 17 17 17 17 18 18 18 18 19 19 19
32 31 29 29 29 30 30 30 30 30 29 27 27 27 27 27 27 27 27 28 27 26 24 23 22 22 22 21 20 19 18 17 17 16 16 16 17 17 18 18 19 19
32 32 31 30 30 31 30 30 30 31 31 30 29 29 28 27 27 28 29 29 29 28 27 25 25 24 24 23 22 22 21 20 19 18 18 18 18 19 19 19 19 20
31 31 31 32 32 32 32 32 31 31 31 31 31 31 30 29 29 29 30 30 30 30 29 28 27 27 26 26 26 25 24 24 23 23 22 22 22 21 21 22 21 21
28 29 31 32 34 33 33 33 33 32 32 32 33 33 32 32 31 31 31 32 32 31 31 30 30 30 29 29 29 28 27 26 26 25 25 24 24 23 23 24 24 24
26 28 30 32 34 35 35 34 33 33 34 34 34 34 34 34 33 32 32 32 32 32 31 31 31 31 31 31 31 30 30 29 28 28 27 26 26 26 26 26 26 26
20 24 28 30 31 32 32 33 33 34 36 36 35 34 35 35 34 33 32 32 32 33 32 31 31 31 31 31 31 31 31 30 30 30 30 29 29 29 28 28 28 28
17 19 22 25 28 28 28 29 30 31 33 35 35 35 35 35 34 34 34 34 35 35 34 33 31 30 30 30 30 31 31 31 31 31 31 31 31 31 31 30 29 29
21 20 18 18 20 24 26 27 28 30 31 33 34 34 34 34 34 34 35 35 35 36 35 34 32 30 30 31 31 32 32 32 31 31 31 31 32 32 32 31 31 31
27 25 23 20 18 19 23 25 27 29 31 31 32 33 34 35 35 35 35 36 36 36 35 34 32 32 32 33 33 33 33 33 33 32 32 32 32 32 32 31 32 32
29 28 27 25 23 23 24 24 24 25 26 26 27 29 32 34 35 35 34 35 36 37 35 34 34 34 35 35 34 33 34 34 34 34 34 34 33 33 32 32 32 33

ECMWFNIL_500_spd_096.txt.gz
Wind_Speed
16 16 16 15 14 14 13 13 13 13 13 14 14 14 14 14 14 13 13 13 13 13 12 11 10 10 9 8 7 7 8 8 8 8 8 8 7 7 7 7 7 8
17 17 16 16 16 15 14 14 13 13 14 15 14 14 14 14 14 14 13 13 13 13 12 12 11 11 10 9 8 7 7 7 8 8 8 8 7 7 7 6 7 7
17 17 17 17 17 16 15 14 14 13 14 15 15 14 14 14 14 14 14 14 13 13 13 12 12 11 11 10 9 8 8 8 8 8 8 7 7 7 7 6 6 6
18 19 19 18 17 16 16 15 15 14 14 14 14 14 15 15 15 15 14 14 14 13 13 13 12 11 11 11 10 9 9 8 8 8 8 7 7 7 7 7 7 6
19 19 19 19 18 17 17 16 15 15 14 14 14 15 15 15 15 16 15 15 15 14 13 13 12 11 11 11 11 10 10 9 9 9 8 8 8 8 8 8 7 7
20 20 19 19 19 18 18 17 16 15 14 14 14 15 15 14 15 15 16 16 16 15 15 14 13 12 12 11 11 11 11 11 10 10 9 9 8 8 8 8 8 8
21 20 20 20 19 19 19 19 18 17 15 15 15 16 15 14 14 15 15 16 16 16 16 15 14 13 13 12 12 11 11 11 11 11 10 10 10 9 8 8 8 8
22 21 20 20 20 20 20 20 19 18 17 16 16 16 15 14 14 14 15 15 16 17 16 16 15 14 14 13 12 12 12 12 11 12 11 11 11 10 9 9 9 9
23 22 21 20 20 21 21 21 20 19 18 17 16 15 15 14 14 14 15 15 16 16 16 16 15 15 14 14 13 13 12 12 12 12 12 12 11 11 10 10 9 9
23 23 23 22 22 22 22 22 21 20 19 18 16 15 15 14 14 14 14 15 15 16 16 16 16 15 15 15 14 14 13 13 12 12 12 12 11 11 10 10 10 9
23 24 25 24 24 24 23 23 22 21 20 19 17 17 16 15 15 15 15 15 16 16 16 17 17 17 16 16 16 15 15 14 13 12 12 12 11 11 10 10 11 11
23 25 26 27 27 26 25 24 23 23 22 21 20 19 18 17 17 17 17 17 16 16 16 17 18 18 18 18 18 17 17 16 15 14 13 12 12 12 12 12 12 12
25 26 27 28 29 29 28 26 25 24 24 23 23 22 20 20 19 19 19 19 18 18 18 18 18 19 19 19 19 19 18 17 16 15 14 14 14 14 14 13 13 14
27 28 28 29 30 30 29 28 26 25 25 25 24 23 23 22 22 22 21 20 20 20 19 19 19 19 19 20 20 19 19 18 16 16 15 15 15 15 15 15 15 16
30 29 29 29 30 31 31 30 28 26 25 25 24 24 24 24 24 24 23 22 22 22 21 20 20 20 20 20 20 20 19 19 18 17 16 16 16 16 17 17 17 17
31 31 30 29 30 31 31 31 30 29 27 26 26 25 25 25 25 25 25 24 24 24 23 23 22 22 22 21 20 20 20 20 19 18 17 17 17 17 18 18 18 18
35 35 33 32 31 31 31 32 32 31 30 29 28 28 27 27 27 27 27 27 26 26 25 25 25 25 24 23 22 21 21 21 20 20 19 19 19 20 20 20 20 20
39 38 36 35 33 32 32 32 32 32 32 32 31 30 30 30 29 29 28 28 28 28 27 27 27 27 27 26 25 24 23 22 22 21 21 22 22 22 22 22 21 21
35 37 38 37 35 34 33 32 32 33 33 34 34 33 32 31 31 30 29 29 28 29 28 28 29 29 28 28 27 26 25 24 23 22 22 23 24 24 23 23 22 22
28 30 35 38 38 36 34 33 33 33 33 33 33 32 32 32 31 30 30 29 29 29 29 30 30 31 30 30 29 29 28 26 25 24 24 24 25 25 25 24 24 24
23 23 26 32 36 36 35 34 34 34 32 30 30 31 31 32 32 32 31 30 29 29 30 30 31 32 32 32 32 31 30 28 27 27 26 26 27 27 27 27 27 26
21 21 22 25 29 32 33 34 36 36 33 31 32 33 33 32 33 34 34 32 31 31 31 31 32 32 33 33 33 32 31 31 30 30 30 29 29 29 29 29 29 29
17 19 21 22 24 26 29 32 35 36 35 35 35 35 34 33 34 34 35 35 34 33 33 32 32 32 33 33 33 33 33 33 32 32 32 32 32 31 31 31 30 30
19 17 17 18 19 20 23 26 30 33 34 35 35 35 35 35 35 35 35 35 35 35 34 33 33 33 33 34 34 34 34 33 33 33 33 33 32 32 31 31 31 31
24 22 20 19 18 16 16 18 22 28 32 33 33 34 34 35 35 35 35 35 35 35 35 34 34 34 35 35 35 35 34 33 33 33 33 32 32 32 31 31 30 30
25 25 25 25 23 21 18 16 17 21 26 27 29 30 31 32 33 34 34 34 34 34 35 36 36 37 37 37 36 35 34 34 34 34 34 33 32 32 31 31 31 30

ECMWFNIL_500_spd_099.txt.gz
Wind_Speed
15 14 14 13 13 12 12 11 11 11 11 12 12 12 12 12 12 12 12 12 12 12 11 10 9 9 9 9 10 10 10 10 10 10 9 9 8 8 8 8 7 7
15 15 15 14 14 13 13 12 11 11 11 12 12 12 12 12 12 12 12 13 13 13 12 11 10 10 10 9 9 10 10 10 10 10 9 9 8 8 8 8 8 8
16 16 16 16 15 15 14 13 12 12 12 12 12 12 12 13 13 13 13 13 13 13 12 12 11 11 10 9 9 9 10 10 10 10 10 9 9 8 8 7 7 7
18 17 17 17 16 16 15 14 14 13 13 12 12 12 13 13 13 13 13 14 14 13 13 12 12 11 10 9 9 9 9 9 9 10 10 9 9 9 8 7 7 7
19 18 18 17 17 17 16 15 15 14 13 12 12 13 13 13 13 14 14 14 14 14 13 12 12 11 10 10 9 9 8 8 9 9 9 9 9 9 8 7 7 7
20 19 19 19 18 18 18 16 16 15 14 13 13 13 14 13 13 14 14 14 15 14 13 13 12 11 10 10 9 9 9 9 9 8 8 9 9 9 8 7 7 7
23 22 21 20 19 19 19 18 17 16 15 14 14 14 14 13 13 13 14 15 15 15 14 14 13 12 11 10 10 9 9 9 9 9 9 9 9 8 8 7 7 7
25 24 23 22 21 21 20 19 19 18 17 16 15 14 14 14 13 14 14 14 15 15 15 14 14 13 12 12 11 10 10 10 9 9 9 9 9 9 8 8 7 7
26 25 24 24 23 23 22 21 21 20 19 18 17 16 15 15 15 15 15 15 15 15 15 15 15 14 14 13 12 11 11 10 10 9 9 10 10 9 9 8 8 8
24 25 25 25 25 25 24 24 23 22 21 20 19 18 17 16 16 16 16 16 15 16 16 16 15 15 15 14 13 12 12 11 11 10 10 10 10 10 9 9 9 9
23 24 25 26 27 27 26 25 25 24 23 22 21 21 20 18 18 18 18 17 17 17 17 16 16 16 16 15 14 13 13 12 12 11 10 10 10 10 9 9 9 9
22 23 24 26 27 28 27 26 25 25 25 25 24 24 23 21 20 20 20 19 18 18 17 17 17 16 16 16 15 14 13 13 13 12 11 11 11 10 10 10 10 10
21 22 23 25 26 27 27 26 25 25 26 26 26 26 25 24 24 23 22 21 20 19 18 18 17 17 16 16 16 15 14 14 13 13 12 12 12 12 12 11 11 12
22 22 23 24 25 27 28 28 27 26 26 26 27 27 27 27 26 26 25 23 21 21 20 19 19 18 17 17 17 16 15 14 14 13 13 13 13 13 13 13 13 13
26 25 25 26 26 27 28 29 30 29 28 27 27 27 28 28 28 27 26 25 23 22 21 20 20 20 19 19 18 17 16 15 14 14 14 13 14 14 15 15 15 15
30 29 28 28 28 28 28 29 31 31 30 28 27 27 27 27 27 27 27 25 24 23 22 22 22 21 21 20 20 19 18 17 16 16 15 15 15 16 16 17 17 17
34 33 31 30 29 29 30 30 30 31 31 30 28 27 27 27 27 27 27 26 25 24 23 23 23 23 23 22 21 21 21 20 19 18 18 17 17 18 18 18 18 18
35 33 33 32 30 30 31 32 31 31 31 31 31 30 29 29 28 28 27 26 26 25 25 25 25 25 24 24 23 23 22 22 21 21 20 20 20 20 20 20 19 18
35 34 34 34 33 33 34 34 33 32 32 33 34 33 32 31 31 31 29 28 28 27 27 27 27 27 26 25 25 25 25 24 24 23 23 22 22 22 21 20 19 19
34 34 34 33 33 35 37 36 35 34 34 35 35 35 35 34 34 33 32 31 30 30 30 30 29 29 28 27 27 27 26 26 26 25 24 24 24 24 23 22 21 19
29 30 30 28 29 31 33 35 37 38 37 36 36 38 38 37 36 34 33 33 33 32 32 31 30 30 30 29 29 29 28 28 27 27 26 25 25 25 25 25 24 22
25 26 26 25 25 25 26 30 36 40 40 38 36 38 39 38 37 37 35 34 33 32 32 32 31 31 31 31 31 30 30 29 29 28 27 27 27 27 27 27 27 26
25 25 24 23 23 22 23 26 31 36 40 40 38 38 38 37 37 38 37 36 35 35 34 33 32 32 32 32 32 31 31 30 30 29 29 28 28 28 29 29 29 28
22 23 21 20 20 20 22 24 26 29 34 38 39 39 38 37 36 37 38 39 39 38 36 34 34 33 33 33 33 32 31 30 30 30 30 30 30 30 30 30 30 31
22 22 21 18 17 16 17 20 22 23 26 30 34 38 39 38 37 37 39 40 39 38 37 36 36 35 35 35 34 33 32 32 31 31 31 30 30 30 31 31 32 32
25 24 23 21 20 18 16 16 17 17 17 20 24 29 34 38 38 38 38 37 37 37 37 37 38 38 37 37 35 33 33 34 33 33 32 32 31 31 31 32 32 33

ECMWFNIL_500_spd_102.txt.gz
Wind_Speed
17 17 17 17 16 15 14 12 11 10 9 9 9 8 8 8 8 8 8 8 7 7 6 5 5 5 5 6 6 6 7 7 7 7 6 6 7 6 6 6 6 5
18 18 18 18 17 16 14 13 12 11 10 10 10 9 9 9 9 9 10 10 9 8 7 6 6 6 5 5 6 6 7 7 8 8 7 7 7 7 7 7 7 6
18 19 18 17 17 16 15 14 13 12 11 11 10 9 9 10 10 10 10 11 10 10 9 8 8 7 6 6 6 6 7 7 8 8 8 8 8 7 7 7 7 7
19 18 18 17 17 16 15 15 14 13 12 12 11 11 11 10 10 10 11 11 11 11 10 10 10 9 8 7 7 7 7 7 8 8 8 8 8 8 8 7 7 7
19 18 18 18 17 17 16 15 14 14 13 13 12 12 12 11 11 11 11 11 12 12 12 11 11 10 9 9 8 8 7 7 8 8 8 8 8 8 8 7 7 7
20 19 19 19 18 18 17 16 15 14 14 14 14 13 13 13 12 11 12 12 13 13 13 12 12 11 10 10 10 9 9 8 8 8 8 8 8 8 8 8 7 7
21 20 20 19 19 19 18 17 16 16 15 15 15 14 14 13 13 12 13 13 13 14 14 14 13 12 11 11 11 10 10 9 9 8 8 8 8 8 7 7 7 7
22 21 20 20 20 20 19 19 18 17 17 16 16 15 15 14 14 13 13 13 13 14 15 15 14 14 13 12 12 11 11 10 9 8 8 8 8 7 7 7 7 7
22 21 21 21 21 21 21 21 20 19 19 18 18 17 16 16 15 15 15 14 14 14 15 16 15 15 14 14 13 12 11 11 10 9 8 8 8 7 7 7 7 7
22 22 22 22 22 23 22 22 22 21 20 20 19 18 18 17 16 16 16 16 15 15 16 16 16 15 15 15 14 13 12 12 11 10 9 9 8 8 7 7 7 7
23 23 23 23 24 24 24 23 23 22 22 21 20 20 19 18 18 17 18 17 17 16 16 16 16 16 16 15 15 14 13 12 12 11 10 10 9 9 9 8 8 7
22 23 23 24 24 25 25 25 24 23 23 22 21 21 20 20 19 19 19 18 18 17 17 17 17 16 16 16 15 14 14 13 12 12 12 11 11 10 10 10 9 8
20 21 23 23 24 26 26 26 26 25 25 24 23 22 21 21 21 20 20 19 19 19 18 18 18 18 17 17 16 15 15 14 13 13 13 13 12 12 11 11 11 10
19 20 21 22 24 25 26 27 27 27 27 26 25 24 23 23 22 22 22 21 21 20 20 20 20 19 19 18 18 17 16 16 15 15 14 14 14 13 13 12 12 12
22 22 23 23 24 25 25 26 27 28 29 28 27 26 26 25 24 24 23 23 23 22 22 21 21 21 21 20 19 19 18 17 17 16 16 16 15 15 15 14 14 13
25 25 25 24 24 24 25 25 26 28 29 29 29 29 28 27 27 26 26 25 25 24 23 23 23 23 23 22 21 21 20 19 18 18 18 17 17 17 16 15 15 14
28 28 27 27 27 27 26 25 26 26 28 29 30 30 30 30 29 29 28 28 27 27 26 25 25 25 25 24 24 23 22 21 20 20 19 19 19 18 18 17 16 16
32 32 31 31 31 31 30 29 28 27 27 28 29 30 32 32 31 31 30 30 30 30 29 27 27 27 27 26 25 24 23 23 22 21 21 21 20 19 19 18 18 17
33 34 35 35 36 35 34 32 31 31 30 30 30 31 33 34 33 33 32 32 32 31 31 30 29 28 28 27 26 26 25 24 23 23 23 22 22 21 20 19 19 18
33 34 36 38 38 38 37 35 34 34 33 33 33 32 32 33 34 34 34 34 33 32 32 31 29 29 30 29 28 27 26 26 25 25 24 23 23 22 21 20 20 19
30 32 34 37 39 39 39 38 36 35 34 35 36 35 34 34 34 35 35 35 35 34 34 32 31 31 31 31 30 29 28 27 27 26 26 25 24 24 23 22 21 20
24 27 29 32 35 38 39 38 36 35 35 37 38 37 38 37 36 36 36 36 37 38 37 34 33 33 32 31 31 31 30 29 29 28 27 27 26 26 25 25 24 23
23 24 25 26 28 30 33 34 33 33 33 36 37 38 40 42 40 39 38 37 37 38 38 36 35 34 33 33 33 32 32 32 31 30 29 29 28 28 27 27 26 26
23 21 22 24 24 26 27 28 29 29 30 32 34 35 39 42 42 40 38 36 35 35 36 37 37 36 35 34 34 34 34 33 32 32 31 30 29 29 29 28 28 28
26 24 22 22 22 22 24 25 26 27 28 30 31 31 33 37 40 40 38 36 36 36 37 39 40 39 38 37 36 35 35 34 34 33 33 32 31 30 30 29 30 31
30 29 28 25 22 21 22 22 22 23 23 24 25 26 27 30 34 36 37 40 41 40 40 43 43 41 40 39 38 38 37 36 36 35 34 33 32 31 31 31 31 32

ECMWFNIL_500_spd_105.txt.gz
Wind_Speed
16 15 14 14 13 12 11 10 10 9 9 8 7 6 5 5 5 5 4 4 4 4 3 3 3 3 3 3 4 4 4 4 5 5 4 4 3 3 3 3 3 2
17 16 16 15 14 13 13 12 11 11 10 9 8 7 6 6 5 5 5 5 5 5 5 4 3 3 3 3 3 4 4 5 5 5 5 5 4 4 3 3 3 3
17 17 16 15 14 13 14 13 12 12 11 10 9 8 8 7 6 6 6 6 6 6 6 5 5 4 4 3 4 4 4 5 5 5 6 5 5 5 4 4 4 4
18 18 17 16 15 15 16 14 13 13 12 11 10 9 9 8 7 7 7 7 8 8 8 7 7 6 6 5 5 5 5 5 5 6 6 6 5 5 5 4 4 5
18 18 18 17 17 17 17 16 14 13 13 12 11 10 9 9 8 8 8 9 9 9 9 9 9 8 8 7 6 6 5 5 5 6 6 6 6 5 5 5 5 5
19 19 19 19 18 18 18 17 16 15 14 12 11 11 11 10 9 9 9 9 9 9 10 10 10 10 9 9 8 7 6 6 6 6 6 7 6 6 5 5 5 6
21 20 20 19 19 19 18 18 17 16 15 13 12 13 12 11 11 10 10 10 10 10 10 10 11 10 10 9 9 9 8 8 8 7 7 7 7 6 6 6 6 6
22 22 21 20 20 19 19 19 18 18 17 15 15 15 14 13 12 11 11 11 10 10 10 10 10 10 10 9 10 10 9 9 9 8 8 8 8 7 6 6 6 6
23 22 22 21 20 20 19 19 19 18 18 17 17 16 15 14 14 13 12 12 11 11 11 11 10 11 11 11 11 11 10 10 10 10 9 10 9 8 7 7 7 7
23 23 22 22 22 21 20 19 19 19 18 18 18 17 16 16 15 14 14 14 13 12 11 11 11 11 11 12 12 11 11 11 11 11 11 11 10 9 9 9 8 8
22 22 22 22 22 22 21 20 20 19 19 18 19 18 17 17 16 16 15 15 14 13 13 12 12 12 13 13 13 13 13 13 12 12 12 12 11 10 10 10 9 9
21 21 21 21 22 22 22 21 21 20 19 19 19 19 18 18 18 17 17 16 15 15 14 14 13 13 14 14 14 14 14 14 14 13 13 13 12 12 11 11 10 10
20 20 20 20 21 22 22 21 22 22 21 20 20 19 19 19 19 19 19 18 17 16 16 16 15 15 15 15 16 16 15 15 15 15 14 14 14 13 13 12 12 11
19 19 19 19 21 21 21 22 22 23 23 22 21 20 21 21 21 20 21 20 20 19 18 17 17 16 16 17 18 17 17 17 16 16 16 16 15 15 15 14 14 13
20 19 18 19 20 20 21 22 22 23 23 24 23 23 22 22 22 22 22 22 22 21 20 19 18 17 17 19 20 19 18 18 18 18 17 17 17 17 17 17 16 15
22 21 21 21 20 20 20 21 22 23 23 24 24 24 24 24 24 23 23 23 23 23 23 22 21 20 20 22 21 20 19 19 19 19 19 19 19 19 19 18 17 16
24 24 23 23 23 22 21 21 21 22 23 23 23 24 25 26 26 25 25 25 25 25 24 24 24 24 24 23 23 21 21 21 20 20 21 20 20 20 20 19 18 17
30 29 27 26 25 24 23 23 23 23 22 22 22 23 24 25 26 27 27 27 26 26 26 26 27 27 26 26 25 24 23 22 22 22 22 22 22 21 20 20 19 18
30 32 32 30 29 28 27 26 26 25 24 24 24 24 24 24 25 27 29 29 29 28 28 28 28 28 28 28 28 26 25 25 24 23 23 23 23 22 21 21 20 19
22 26 30 31 30 30 30 30 29 28 28 28 27 26 26 26 27 28 29 30 31 31 32 32 31 30 30 29 30 29 28 27 26 25 24 24 24 23 22 21 20 20
18 20 24 28 29 30 31 31 31 31 32 33 32 31 30 30 30 31 32 31 32 33 33 32 32 33 31 31 32 32 30 30 29 28 26 25 25 24 23 22 21 21
19 18 19 20 23 26 28 30 31 33 35 36 36 34 34 33 33 34 34 32 32 33 32 32 34 34 33 34 35 34 32 31 31 30 28 27 26 25 24 23 22 23
22 22 20 19 19 21 23 26 28 31 33 36 37 36 35 36 35 34 34 32 33 34 34 35 37 37 37 38 38 37 35 33 32 31 29 27 27 27 26 25 23 24
23 24 24 23 21 19 19 21 24 26 28 32 36 36 36 37 36 34 33 33 34 36 39 40 41 40 40 41 41 40 38 35 32 31 29 27 26 28 29 27 26 28
24 25 25 25 23 19 18 19 20 21 23 26 29 31 33 35 34 32 33 33 34 37 42 44 44 45 44 41 41 42 40 36 34 33 31 27 27 31 32 29 28 30
25 25 25 25 25 24 24 23 21 20 20 21 24 26 28 31 32 31 33 34 34 36 42 44 44 46 46 42 40 41 41 39 36 34 32 31 30 31 31 30 32 33

ECMWFNIL_500_spd_108.txt.gz
Wind_Speed
14 12 12 12 11 9 8 8 8 7 5 5 4 3 2 2 3 3 3 4 5 5 5 4 4 3 3 2 2 1 1 0 1 1 2 2 2 2 2 2 2 3
15 14 14 13 10 9 9 10 10 8 6 5 4 3 3 3 3 3 3 4 4 4 4 4 4 4 3 3 2 2 2 1 0 0 0 1 1 1 1 2 2 2
16 16 15 14 12 12 13 12 10 8 6 5 5 4 5 4 4 4 4 4 4 4 4 4 4 3 3 3 3 2 2 2 1 1 1 2 2 1 1 1 2 2
17 17 16 15 14 14 14 13 10 9 8 7 6 6 6 6 5 5 5 5 4 4 5 4 4 4 3 3 3 3 3 3 2 3 2 3 3 2 1 1 2 1
16 16 16 15 14 14 13 12 10 9 9 8 7 8 8 7 7 6 6 5 5 5 5 5 5 5 4 4 4 4 4 3 3 3 3 3 3 2 2 2 2 2
16 16 16 15 15 14 13 13 12 10 10 9 9 10 9 9 8 8 7 7 6 6 6 6 6 6 5 5 5 5 5 4 3 3 3 3 3 3 3 3 3 3
17 17 17 16 16 16 15 15 14 13 12 11 11 11 11 10 10 9 8 8 7 7 7 7 7 7 6 6 6 6 6 5 5 4 3 3 3 3 4 4 4 4
19 18 18 18 17 17 16 16 17 16 15 14 13 12 11 11 10 9 9 8 8 8 8 8 8 8 7 7 7 7 7 7 6 5 4 4 4 4 5 5 5 5
19 19 19 19 19 18 18 18 18 18 17 17 16 14 13 12 11 10 9 9 9 9 8 8 8 9 8 8 8 8 8 8 7 6 5 5 5 5 6 6 6 6
20 20 20 20 20 20 19 19 19 19 19 18 18 17 16 15 12 11 11 10 10 10 9 9 10 10 9 9 9 9 9 9 8 7 6 6 6 6 7 7 7 7
21 21 21 21 21 21 20 20 20 20 20 19 19 19 18 17 15 13 13 13 12 11 11 11 11 10 11 11 11 11 10 10 10 9 8 8 7 7 8 8 8 8
21 21 21 21 22 22 21 22 21 21 21 20 20 20 19 18 17 15 15 14 13 13 12 12 12 12 12 12 12 12 12 12 12 12 11 9 9 8 9 9 9 9
20 20 21 22 22 22 22 23 22 22 22 21 20 20 20 19 18 17 16 15 15 14 14 14 14 14 13 13 13 13 13 14 14 14 13 12 11 11 11 11 10 11
19 19 19 21 22 23 23 23 23 23 22 22 21 20 20 20 19 18 17 16 16 16 15 16 16 15 15 15 14 15 14 14 14 14 14 14 13 13 13 12 12 13
19 18 18 20 22 22 23 23 23 23 21 21 21 20 20 20 19 19 18 18 18 18 17 17 17 17 17 17 16 17 16 15 15 15 15 15 15 16 15 14 14 15
22 21 22 22 21 20 21 22 22 21 20 20 20 20 19 19 20 19 19 19 19 19 19 19 19 19 19 18 18 18 17 17 17 16 16 17 17 17 17 16 16 16
25 25 24 22 21 20 21 20 20 20 20 19 19 18 18 19 20 20 20 21 20 20 20 20 20 20 21 20 20 20 20 19 19 18 18 18 18 18 19 19 19 18
27 26 26 25 26 26 25 23 22 22 23 22 20 18 17 18 19 19 20 20 21 23 23 21 21 22 22 22 22 22 22 22 21 20 20 20 19 19 20 20 20 19
29 28 27 28 29 28 27 27 26 26 26 26 25 23 21 20 20 20 20 20 21 23 22 20 22 24 24 24 24 24 24 25 25 24 24 23 20 20 21 22 21 21
30 29 28 30 30 30 30 31 31 30 29 29 28 26 24 22 21 21 21 21 22 23 21 20 23 26 26 26 27 27 26 26 27 27 27 25 24 24 24 22 21 21
26 26 27 29 30 30 31 33 35 35 33 31 30 29 27 25 24 24 24 23 24 24 23 22 23 26 28 29 29 31 31 29 29 29 28 29 29 28 26 24 22 22
19 20 21 23 24 24 24 26 30 33 34 33 31 30 30 27 26 27 27 27 27 27 27 27 27 28 30 31 33 34 34 34 32 30 30 31 30 28 27 27 26 24
19 20 20 20 21 21 20 19 20 24 28 30 31 32 32 30 29 30 32 32 31 31 32 33 33 33 33 34 35 34 35 36 36 34 33 31 29 27 29 30 28 27
22 22 23 23 23 23 22 19 17 17 19 23 26 30 32 31 31 32 35 36 35 35 35 36 36 36 36 35 35 35 35 36 36 35 34 32 30 30 31 31 31 30
24 24 24 25 24 25 25 23 20 18 17 17 20 23 26 28 30 33 37 40 39 37 37 38 39 39 39 38 37 37 37 37 36 36 35 33 34 35 34 33 33 33
24 24 25 25 24 24 25 24 22 20 19 19 19 19 20 22 24 29 33 35 36 35 35 36 37 37 37 37 38 38 38 38 37 37 37 36 37 37 37 36 34 33

ECMWFNIL_500_spd_111.txt.gz
Wind_Speed
8 7 7 7 6 5 4 5 4 4 4 3 3 2 1 2 3 4 4 4 4 4 4 4 4 4 4 4 4 4 4 4 4 4 4 4 4 4 4 3 4 4
10 9 8 7 6 6 6 6 6 5 5 5 4 4 3 3 3 4 5 5 4 4 4 4 4 3 3 3 3 3 3 3 3 3 3 2 2 3 3 2 1 2
12 11 10 9 8 8 7 7 7 6 6 6 6 6 5 5 4 4 4 5 5 5 5 4 4 3 3 3 2 2 2 2 1 1 2 2 2 1 1 1 1 1
14 13 12 11 11 10 10 9 8 8 8 7 7 7 7 6 6 5 5 4 5 5 5 5 4 4 4 3 2 2 2 1 1 1 1 1 1 2 2 2 1 1
15 14 14 13 13 13 11 10 10 9 9 9 9 8 7 7 7 7 5 4 4 4 5 6 5 5 4 4 3 3 2 2 2 2 2 2 2 2 3 2 2 1
16 15 15 14 14 14 13 13 12 12 11 11 9 9 9 9 8 7 6 5 4 5 5 6 6 5 5 5 4 4 3 3 3 3 2 2 3 3 3 3 3 2
18 17 16 16 16 16 15 15 14 14 13 12 11 10 10 10 9 8 7 6 6 5 5 6 6 6 6 6 6 5 4 4 4 4 3 3 3 4 4 4 3 3
18 18 17 17 17 17 17 16 16 16 15 14 13 12 11 10 9 9 8 7 7 7 6 6 6 7 7 7 7 6 6 6 5 5 5 5 5 5 5 5 5 4
19 19 19 18 18 18 17 17 17 17 16 16 15 15 13 12 10 10 9 8 8 8 7 7 7 7 7 7 7 8 7 7 7 6 7 7 7 7 7 6 6 6
20 20 19 19 19 19 19 18 18 18 18 18 17 16 15 13 12 11 10 10 10 10 9 9 8 8 8 8 8 9 9 8 8 8 8 8 8 8 8 8 7 7
20 20 20 20 20 20 19 19 19 18 18 18 17 16 16 16 15 14 13 12 11 11 11 11 10 10 10 9 9 9 10 10 10 9 9 10 9 8 9 9 8 8
20 20 20 19 19 20 19 19 19 18 18 17 16 16 16 16 17 17 16 14 14 13 13 12 11 11 11 11 10 10 10 10 11 11 11 11 10 10 10 10 9 9
18 18 19 19 19 19 19 18 18 18 18 17 17 17 17 17 18 18 18 17 16 15 15 14 13 13 12 12 12 12 11 12 13 13 13 13 12 11 12 11 11 11
19 19 19 20 19 19 18 17 18 18 18 17 17 17 18 18 18 19 19 19 18 17 16 15 15 14 14 14 14 13 13 13 14 14 15 14 14 13 12 12 12 12
20 21 21 20 20 20 19 19 19 19 19 19 18 18 17 18 18 19 20 20 19 18 17 16 16 16 16 16 16 15 15 14 15 15 15 15 15 14 13 12 13 14
21 21 22 21 21 20 19 19 19 19 20 21 20 19 18 18 19 20 20 20 19 19 19 19 19 18 18 18 18 17 17 16 16 16 16 16 16 16 14 13 13 14
24 23 23 23 23 21 19 19 19 19 20 21 21 21 21 20 21 22 22 20 19 19 20 21 21 21 21 20 20 19 19 18 18 18 18 17 17 17 16 15 15 16
26 25 25 25 25 24 22 21 21 20 20 20 20 21 21 20 21 22 21 20 20 21 22 23 24 23 23 22 21 21 21 20 20 20 19 19 19 18 18 18 18 19
27 27 27 27 27 26 25 24 23 22 22 21 20 20 20 20 20 21 20 20 22 22 21 23 25 25 24 24 23 23 23 23 22 21 20 21 21 20 20 20 20 20
26 27 29 30 30 29 28 27 26 25 25 24 24 23 22 21 21 22 21 22 23 22 20 22 25 25 25 26 26 25 25 25 24 22 21 22 23 23 23 23 23 23
20 22 24 28 31 32 31 29 28 27 27 27 27 27 25 24 24 25 26 26 26 24 22 21 22 23 25 26 26 25 25 25 25 23 22 25 27 26 25 26 26 26
17 16 17 21 28 32 32 30 29 29 28 29 30 30 30 29 28 28 29 29 29 27 24 22 22 24 25 25 24 24 24 24 24 23 25 29 30 28 27 29 30 30
15 15 14 15 21 26 29 29 29 29 29 29 30 31 32 34 34 33 33 32 31 30 27 26 26 26 26 25 25 26 26 27 27 26 28 30 31 31 31 32 33 32
15 16 16 16 17 19 21 24 25 26 25 24 25 26 27 30 32 34 35 35 34 33 31 29 28 29 29 29 29 30 30 30 30 31 32 32 33 33 34 34 35 35
17 17 18 18 19 19 20 21 22 23 23 23 22 21 21 22 24 28 32 34 35 35 33 31 31 32 33 33 34 35 35 34 34 35 36 36 36 35 36 36 36 37
19 19 19 19 21 21 22 22 22 23 24 25 25 24 21 19 20 22 25 28 32 34 34 34 34 35 38 38 38 38 38 37 37 38 38 38 38 38 39 39 38 40

ECMWFNIL_500_spd_114.txt.gz
Wind_Speed
11 10 10 10 10 10 9 8 8 8 8 7 6 6 5 5 4 4 5 5 5 5 5 5 5 6 6 6 6 6 6 7 8 8 7 7 8 7 6 5 5 5
12 11 10 10 10 10 10 9 8 8 8 7 7 6 6 6 6 5 5 5 5 5 5 4 5 5 6 6 6 5 6 6 7 7 7 7 7 7 6 6 5 5
13 12 11 11 10 10 10 10 9 9 8 8 7 7 6 6 6 6 6 6 6 6 5 5 5 5 5 6 6 5 5 5 5 6 7 7 6 6 6 6 5 5
14 14 13 12 11 11 11 10 9 9 9 9 8 7 7 6 6 6 6 6 6 7 7 6 6 6 6 6 6 5 5 5 5 5 6 6 6 7 6 5 5 5
15 15 15 14 13 12 11 10 9 10 10 10 9 8 8 7 7 7 7 7 7 7 8 8 7 7 7 7 6 6 6 5 5 5 5 5 5 6 6 6 5 5
15 16 16 16 15 14 13 11 11 11 11 10 10 9 9 9 8 8 8 8 8 8 8 8 9 9 9 9 8 7 7 6 5 5 4 5 5 5 6 6 5 5
17 17 17 17 17 16 15 14 13 13 12 11 11 11 11 10 9 9 9 10 10 9 9 9 10 10 10 10 10 9 8 7 6 5 5 4 4 5 5 5 5 5
18 18 18 18 17 17 17 16 15 14 13 13 13 13 12 11 11 11 11 11 11 10 10 10 11 12 12 11 11 11 10 9 8 7 6 6 6 5 5 5 5 5
18 19 19 19 18 18 18 17 16 15 15 15 16 15 13 13 12 13 13 12 12 11 11 11 11 12 12 12 11 11 11 10 9 8 8 8 8 7 7 6 5 5
19 19 20 20 19 19 19 18 17 16 16 17 17 16 15 15 14 15 14 14 13 12 12 12 12 12 12 12 12 11 11 11 10 9 9 10 10 9 9 7 7 6
20 19 20 21 21 20 20 19 18 18 18 18 17 17 17 17 17 16 15 14 14 14 13 13 13 12 12 12 12 12 12 11 11 11 10 10 11 11 10 9 8 8
19 19 20 21 21 21 21 20 20 20 19 18 18 18 18 19 19 18 17 16 16 16 15 14 14 13 13 13 13 12 12 12 12 12 11 11 11 11 11 10 9 9
20 20 21 21 21 22 22 22 21 21 20 20 20 20 20 20 20 20 19 18 18 18 17 16 15 15 14 14 14 14 13 12 13 13 13 12 12 12 12 11 11 10
23 24 24 23 21 22 23 23 23 23 23 23 23 23 22 22 21 21 20 20 20 20 19 17 17 17 17 17 16 16 15 14 14 14 14 14 14 14 13 13 13 13
24 24 24 24 23 22 22 22 22 23 24 24 24 24 24 23 23 22 22 22 22 22 21 19 19 19 18 18 18 17 17 16 16 15 15 15 15 15 14 15 15 15
24 23 24 25 25 23 21 21 21 22 23 23 24 24 24 23 23 23 23 22 22 22 23 22 21 21 21 20 19 19 19 18 18 16 15 15 15 15 16 16 16 15
26 25 25 26 26 23 21 20 21 21 22 23 23 23 23 23 23 23 24 24 23 23 24 24 24 24 23 21 21 21 21 21 19 17 16 17 17 17 18 18 17 16
29 27 26 28 28 25 22 21 21 21 21 22 22 22 22 23 23 23 24 24 24 24 24 24 25 25 24 23 22 23 23 22 20 18 19 20 20 19 20 20 19 18
31 29 28 30 30 28 24 22 22 22 22 22 22 21 21 23 23 24 24 24 24 24 24 25 25 25 24 25 25 25 24 23 22 22 22 21 21 22 22 22 21 21
30 29 29 30 30 28 27 26 26 25 24 24 23 22 21 21 22 23 23 23 23 24 25 26 26 25 25 25 25 26 25 25 25 26 25 23 23 23 24 24 24 25
27 27 28 28 28 28 30 30 29 27 27 26 25 24 23 22 22 22 22 22 23 23 24 25 25 25 25 25 25 26 26 26 27 27 27 26 25 25 26 27 27 27
27 27 27 27 28 29 30 31 30 29 30 29 28 26 26 24 24 24 24 23 23 23 24 25 26 26 27 26 25 24 24 25 26 28 28 28 28 28 29 29 28 29
24 24 24 24 24 25 26 29 31 30 30 31 30 29 28 27 27 27 26 26 26 27 28 29 29 29 29 29 26 23 23 25 26 26 27 28 29 29 30 30 30 30
21 21 20 20 20 20 20 21 24 26 28 29 29 30 31 30 30 30 28 26 27 30 31 32 34 33 32 31 29 26 26 27 27 26 26 28 28 28 28 29 30 31
17 17 17 16 16 17 17 17 17 20 22 24 26 28 30 31 30 30 27 24 25 28 30 31 35 37 35 33 33 31 30 30 29 28 29 30 30 31 31 30 31 33
14 15 16 15 14 14 16 17 17 17 18 19 22 24 27 28 28 27 26 24 23 24 26 27 30 34 35 35 35 35 34 33 31 32 33 35 35 36 36 35 35 36

ECMWFNIL_500_spd_120.txt.gz
Wind_Speed
14 13 12 11 10 9 8 8 7 6 6 5 6 7 7 7 6 6 6 7 7 8 8 8 8 8 7 7 6 6 5 5 5 4 4 4 3 3 3 4 5 6
15 14 13 12 12 11 10 8 7 7 6 6 6 6 7 7 7 7 6 6 6 7 8 8 8 8 8 8 7 7 6 6 5 5 5 5 4 4 4 4 4 4
16 15 14 14 13 12 10 9 8 7 7 7 7 6 5 6 6 7 7 7 6 6 7 7 8 8 8 8 8 8 7 7 7 7 6 6 5 5 5 5 5 5
17 17 16 15 14 12 11 10 9 8 8 7 6 6 5 5 6 6 6 6 6 6 6 6 7 7 7 7 7 7 7 7 7 7 7 7 7 6 6 6 5 6
19 18 17 16 15 14 13 12 11 10 9 8 7 6 6 6 5 5 5 5 5 6 6 6 6 6 6 6 7 7 6 6 6 7 7 7 8 8 7 6 6 6
20 19 18 17 16 15 15 14 12 11 10 10 9 8 7 7 7 6 6 5 5 5 6 6 7 7 7 7 6 6 6 6 6 6 6 7 7 7 7 6 6 7
21 20 20 19 17 17 16 15 14 14 13 11 11 10 9 9 8 7 7 7 6 6 6 6 7 7 8 8 7 7 7 6 6 6 6 6 6 6 6 6 6 7
23 22 22 21 19 19 18 17 16 16 15 14 13 12 11 10 10 9 9 9 8 7 7 7 7 8 8 8 8 8 8 7 7 7 6 6 6 5 5 5 5 6
24 24 23 22 22 21 20 19 19 18 17 16 15 14 13 12 12 11 11 11 10 9 9 9 9 9 9 9 9 9 9 8 8 8 8 8 7 6 5 5 5 5
25 25 24 24 24 24 23 22 21 20 20 18 17 16 16 15 14 13 14 13 12 11 11 11 10 10 10 10 9 9 9 9 9 9 9 9 8 7 7 6 6 6
27 26 26 26 26 26 26 25 24 23 23 21 20 20 19 17 16 16 16 16 14 13 13 13 12 12 12 11 11 10 10 10 10 10 10 9 8 8 8 8 8 8
28 28 28 28 29 28 28 27 26 26 25 24 23 23 21 20 19 19 19 18 17 16 15 15 14 13 13 13 12 12 11 11 11 11 10 10 10 10 10 10 10 10
30 30 31 31 31 31 31 29 28 28 27 26 25 24 23 22 21 21 21 20 19 18 18 17 16 15 15 15 14 14 13 12 12 12 11 11 11 12 11 11 11 11
31 31 32 32 31 31 30 29 29 28 28 27 26 25 25 24 24 23 23 22 21 21 21 20 19 19 18 17 16 16 15 14 14 13 13 13 13 13 13 12 12 12
30 31 32 32 31 29 28 27 27 28 28 28 27 27 26 26 25 25 24 23 23 22 23 22 22 21 21 20 19 18 17 15 15 15 16 16 15 15 15 15 14 14
29 30 31 32 31 30 29 29 28 27 27 27 27 28 28 27 26 25 25 24 23 22 23 23 24 24 23 23 22 21 19 18 17 18 19 19 18 17 17 17 16 16
29 30 31 32 31 31 32 31 30 29 28 28 28 28 29 28 26 25 25 25 24 23 23 24 25 25 25 24 24 23 23 22 21 21 21 21 20 19 19 18 18 18
31 30 31 31 30 31 32 32 31 31 30 30 29 28 29 29 28 26 25 25 25 25 25 25 25 24 24 24 25 25 25 24 24 24 24 23 22 21 21 20 20 20
35 33 31 30 29 29 31 32 32 33 34 33 31 29 28 28 29 28 25 24 24 25 26 26 25 24 24 25 25 26 26 25 25 26 26 25 25 24 23 22 22 22
37 35 32 30 29 29 32 33 34 35 36 34 32 29 28 28 28 28 26 25 25 25 25 25 25 25 26 26 26 26 26 26 27 27 27 27 26 26 25 24 24 24
37 37 36 33 32 32 34 36 36 36 36 35 32 29 28 28 28 28 27 26 25 25 24 24 24 25 26 25 25 25 26 26 26 27 27 27 27 27 27 27 27 26
38 39 39 37 35 34 34 35 36 34 34 35 34 32 30 30 29 28 27 27 26 25 24 24 24 24 24 24 25 25 25 26 26 26 26 26 27 27 27 28 27 27
39 40 41 39 36 35 34 34 34 35 35 35 35 34 32 32 32 30 28 27 27 26 26 25 23 23 23 23 24 25 25 25 25 25 25 26 27 28 28 28 27 27
37 39 42 40 38 37 37 35 34 35 36 37 36 35 34 33 33 31 29 29 30 29 29 28 26 25 24 24 24 24 24 24 24 24 25 25 26 27 28 28 28 28
37 39 41 41 39 39 39 37 37 36 36 36 37 36 35 34 34 33 32 32 33 33 32 32 31 29 27 26 26 26 26 26 26 26 26 27 28 29 30 30 31 31
36 38 40 40 40 39 38 39 39 39 39 39 38 37 36 34 33 33 33 34 37 38 36 34 34 33 31 29 29 28 28 28 28 28 29 30 30 32 34 34 35 35

ECMWFNIL_500_spd_123.txt.gz
Wind_Speed
14 13 11 10 9 8 7 6 5 5 4 4 4 5 5 5 5 5 5 5 5 5 5 5 4 4 4 4 4 3 3 4 4 4 4 4 3 3 3 4 5 5
15 14 13 11 11 10 9 8 7 6 5 4 5 5 5 6 6 6 6 6 6 7 6 6 6 5 5 5 5 4 4 4 4 4 4 4 3 3 4 4 5 5
15 15 14 13 12 12 10 9 8 7 6 6 6 5 5 6 7 7 7 7 7 7 7 7 7 7 7 7 6 6 6 6 5 5 5 5 4 4 5 6 6 6
16 16 15 14 13 13 12 11 10 9 9 8 7 6 6 7 7 8 8 8 8 8 8 8 8 8 8 8 8 7 7 7 7 7 6 6 6 6 6 6 7 6
18 17 16 15 14 14 13 13 12 11 10 9 9 8 8 7 8 8 8 8 8 8 8 8 8 8 8 8 8 8 8 8 7 7 7 7 7 6 6 6 7 7
19 18 18 17 16 16 16 15 14 13 12 11 11 10 10 9 9 9 8 8 8 8 8 8 8 8 8 8 8 8 8 8 7 7 7 7 7 6 6 6 6 7
21 20 20 19 18 18 18 17 15 15 14 13 13 12 12 11 11 10 9 9 9 9 8 9 9 9 8 8 8 8 8 8 7 7 6 6 6 5 5 5 5 6
24 22 21 21 20 20 20 19 18 17 17 16 15 15 14 13 12 11 11 10 10 10 9 9 9 9 9 9 9 9 9 9 8 7 7 7 6 6 5 5 4 5
25 24 24 23 23 23 22 21 20 19 19 19 18 17 16 15 14 13 13 12 12 12 11 11 10 10 9 9 9 10 10 10 9 9 8 8 7 7 7 7 6 6
25 26 26 25 25 25 24 23 23 22 21 21 20 19 18 17 17 16 16 15 14 13 13 12 12 11 10 10 10 10 10 10 10 10 9 9 9 9 9 9 8 8
27 27 27 27 27 28 27 26 25 24 24 23 22 21 20 19 19 18 18 17 16 15 14 14 14 13 12 12 11 11 11 11 11 10 10 10 10 10 10 10 10 9
28 28 28 28 28 29 28 28 27 26 25 25 24 23 22 21 21 20 20 20 18 17 16 15 15 15 14 14 13 13 12 11 11 11 11 11 11 11 11 11 11 10
30 30 30 30 30 29 28 28 27 27 27 26 26 25 24 24 24 23 22 22 21 20 19 18 17 17 16 15 15 14 13 12 11 11 11 11 12 12 13 13 13 12
30 31 32 32 31 30 29 27 27 27 28 28 28 27 27 27 26 26 25 24 23 23 22 21 20 19 18 17 16 15 13 12 11 11 12 13 13 13 14 14 14 14
30 32 33 34 34 32 30 29 28 28 29 29 29 29 29 29 28 28 27 26 26 25 24 23 23 22 21 19 17 15 14 14 13 13 16 17 16 15 15 16 16 15
31 32 34 35 35 34 33 31 30 30 30 30 31 31 31 30 30 29 29 28 28 27 25 24 24 24 23 21 19 17 16 17 17 17 18 19 19 18 17 17 17 17
31 32 33 35 36 36 35 33 31 31 31 32 32 32 32 32 31 31 30 30 29 28 27 25 25 24 24 23 22 22 21 21 21 20 20 22 22 21 19 19 19 18
34 32 32 33 35 35 35 34 33 33 33 33 32 33 33 33 33 32 32 31 30 29 28 27 26 25 24 24 24 23 23 23 23 23 24 25 25 24 23 22 21 20
36 36 36 35 34 34 34 34 33 33 33 33 33 33 34 34 34 33 33 33 32 31 30 29 28 27 26 26 25 24 23 24 25 26 26 26 26 26 25 24 23 22
38 41 43 40 36 36 35 34 33 33 33 33 33 33 35 35 35 34 34 33 32 31 30 29 29 28 28 28 28 27 25 25 26 26 26 26 26 27 26 26 26 25
42 45 47 44 40 39 38 35 33 34 34 33 33 34 35 35 35 34 34 33 32 31 30 30 29 29 29 29 28 28 28 28 27 27 27 27 27 27 27 27 27 26
45 47 47 46 44 41 39 37 35 34 34 32 32 34 36 35 34 34 34 33 32 30 29 29 28 28 29 29 29 29 29 29 29 28 28 27 27 27 27 27 27 27
45 47 48 47 44 42 41 39 37 36 34 33 34 36 36 36 36 35 35 34 33 31 30 29 28 28 28 29 29 28 28 29 29 29 28 28 28 28 28 28 28 28
44 46 47 46 44 43 42 41 40 38 35 35 37 37 35 35 37 38 37 35 34 32 31 30 29 28 28 28 28 28 28 28 28 28 28 28 28 28 28 27 27 27
39 41 42 43 43 43 42 41 42 41 37 36 38 38 34 34 37 39 37 36 35 33 32 32 30 29 29 29 29 29 29 28 27 26 27 27 27 27 27 27 27 26
29 33 37 39 41 42 41 41 42 42 39 38 38 38 36 34 36 37 36 35 35 34 33 32 32 32 32 32 32 32 32 31 30 28 27 27 27 27 27 28 28 27